GFSCGP_prec_cthk_000.txt.gz
RH
81 70 58 52 30 30 34 32 28 27 29 25 25 24 24 23 23 27 28 26 25 22 20 17 16 15 15 15 14 16 16 16 19 20 22 22 22 23 24 23 23 24 25 24
78 66 51 41 33 32 31 31 29 28 26 21 23 29 27 23 24 25 24 23 22 21 20 19 18 17 16 15 13 14 15 18 21 21 20 22 23 23 26 26 25 28 29 26
67 55 43 44 33 29 29 33 37 33 25 23 25 32 28 27 27 25 24 24 23 22 21 19 18 17 18 18 18 18 18 20 22 26 26 26 26 25 25 25 29 32 32 30
56 47 42 34 28 25 30 29 33 27 27 34 27 37 30 29 29 29 26 26 23 20 20 20 21 21 21 20 20 20 22 22 24 27 30 31 32 32 31 32 33 33 31 29
47 43 33 28 27 28 39 30 27 26 27 30 29 33 30 28 28 26 23 23 23 23 24 24 24 24 23 22 23 23 23 24 26 29 30 32 33 33 33 34 36 37 38 36
36 30 27 29 28 27 31 28 27 26 27 32 26 27 30 27 27 24 24 26 26 26 26 26 25 26 27 28 28 28 28 28 27 27 29 31 32 32 32 32 34 34 36 38
31 26 26 27 29 28 30 30 39 42 38 36 26 27 26 24 23 24 25 24 25 26 27 28 30 30 30 31 31 32 31 29 30 30 30 31 32 33 35 37 39 40 40 42
36 35 31 29 29 30 30 31 45 57 51 38 28 28 23 22 22 24 25 27 30 31 35 36 35 33 31 30 29 29 30 33 34 33 32 33 33 33 33 33 33 35 38 41
42 41 35 34 33 31 32 37 35 40 37 40 33 29 29 27 30 32 33 35 36 35 36 35 34 32 30 29 28 28 27 26 26 29 32 35 36 36 37 38 39 39 39 38
43 47 42 42 37 34 33 33 37 38 40 39 34 32 35 31 32 32 35 35 37 37 37 37 35 32 31 29 26 27 27 28 29 29 29 30 31 33 36 39 40 42 44 45
47 46 48 44 41 39 38 36 35 35 36 43 42 38 36 35 33 33 34 34 34 34 35 36 34 32 32 30 30 34 37 39 40 40 40 41 41 42 43 44 45 45 46 48
51 52 53 49 46 44 41 41 41 45 43 43 42 40 32 33 32 32 31 32 31 29 32 34 36 37 38 40 42 44 45 45 45 45 44 43 42 42 42 43 43 43 43 43
60 58 61 59 52 47 47 44 41 42 43 49 45 35 29 29 30 31 32 33 34 35 40 43 45 46 47 48 50 51 51 48 48 46 47 47 47 47 46 46 45 43 42 42
60 59 58 56 52 49 50 45 42 42 43 37 35 30 27 30 32 33 35 38 43 45 46 48 50 51 52 51 50 50 47 46 47 47 47 46 46 46 45 45 46 46 45 44
58 57 54 52 46 42 38 35 32 34 30 38 28 32 30 33 38 44 47 47 48 48 47 47 48 48 49 49 50 48 48 49 50 50 49 48 49 49 48 47 47 47 46 46
45 46 41 37 32 30 30 26 28 32 35 38 41 42 43 44 46 45 44 43 43 44 44 45 46 48 50 50 50 49 50 52 52 55 54 54 52 51 50 49 48 48 49 48
35 33 33 33 32 37 41 41 43 44 44 43 43 41 41 41 40 38 39 41 43 43 44 45 48 50 49 50 51 53 55 58 58 58 57 56 54 52 51 52 51 50 48 47
40 43 44 48 48 57 43 42 37 33 31 33 35 36 37 38 39 41 42 43 46 49 50 53 54 52 53 56 60 63 63 61 59 57 55 54 54 53 51 49 46 45 44 43
47 51 56 63 63 52 41 34 36 36 37 35 36 37 39 40 41 42 45 46 51 55 59 59 59 61 64 64 64 62 61 59 57 54 52 49 46 43 37 32 31 31 33 37
66 62 60 68 63 63 36 37 35 37 42 40 42 43 46 48 52 52 53 56 58 61 63 64 67 70 70 67 63 60 58 55 53 49 46 41 38 32 28 28 28 27 28 26
57 53 51 51 57 49 36 40 39 46 47 44 46 49 51 53 52 53 55 57 61 63 65 69 73 73 71 65 62 58 54 51 47 44 40 34 31 29 26 24 23 24 22 23
54 56 55 53 55 56 39 41 47 48 48 48 50 50 50 52 55 58 61 63 65 72 76 76 74 73 71 68 62 56 50 47 41 35 32 31 28 25 23 23 22 20 19 19
48 43 48 52 50 41 44 48 48 47 48 50 51 52 53 55 58 61 66 67 70 76 76 77 77 75 70 64 55 50 46 39 34 33 30 25 22 20 20 20 18 17 16 16
47 43 43 45 36 39 41 42 45 47 47 49 54 54 55 58 61 68 73 76 80 81 81 80 73 66 59 53 48 40 35 33 30 27 24 22 21 21 20 18 18 18 17 20
49 45 45 47 44 43 43 47 46 48 51 53 53 56 58 61 66 71 75 79 83 84 80 71 60 55 50 43 38 34 31 28 26 25 24 23 22 20 19 19 20 21 22 24
44 43 48 46 41 43 42 44 46 46 47 52 53 55 58 62 67 72 77 82 82 76 68 62 53 45 39 38 33 28 26 27 28 27 25 23 23 23 23 23 21 21 25 26

GFSCGP_prec_cthk_003.txt.gz
RH
85 88 78 66 57 59 46 36 28 29 28 29 27 29 22 21 23 23 23 26 29 28 26 21 18 17 17 17 18 18 18 20 21 21 23 23 23 24 25 26 25 27 30 31
84 77 72 65 61 47 43 36 30 29 28 28 26 26 23 23 24 24 26 28 27 25 23 20 19 19 18 17 17 18 20 22 24 27 29 30 29 30 31 32 32 33 34 35
75 68 67 61 54 48 44 32 31 31 30 26 25 26 23 27 26 27 28 27 26 24 23 22 20 18 18 19 19 20 20 21 23 25 28 33 34 33 33 33 33 34 37 38
77 75 62 55 54 49 40 29 28 29 30 34 30 36 26 30 31 30 28 27 26 25 24 23 21 21 21 20 21 21 22 23 26 28 30 34 37 37 38 39 40 40 41 41
75 68 59 59 51 40 36 27 27 27 29 33 31 33 29 31 34 32 29 26 25 23 23 23 23 24 24 25 26 27 27 27 28 28 30 32 35 37 38 39 39 40 41 44
63 60 56 51 42 35 32 29 29 30 33 39 28 31 29 30 30 29 28 26 25 24 24 25 25 26 27 29 29 29 28 28 29 30 29 29 30 31 32 33 35 37 40 42
58 56 49 39 36 30 28 32 42 41 41 39 26 29 24 23 23 23 25 25 24 25 26 27 28 32 33 32 30 27 26 25 26 27 29 31 31 33 34 34 34 34 34 34
60 55 39 34 30 24 28 34 46 51 49 40 30 32 25 19 22 24 29 31 32 33 35 36 36 37 37 34 33 31 30 27 26 25 25 25 26 28 31 33 35 37 37 38
47 43 34 31 26 27 31 33 35 40 42 44 39 33 26 27 31 34 35 36 35 37 36 37 37 37 36 35 33 30 28 28 29 31 33 35 36 37 38 38 39 41 43 44
36 39 34 32 30 29 29 31 37 41 40 39 36 34 36 32 35 37 39 38 37 36 35 34 33 33 33 33 33 34 35 36 39 40 40 40 41 41 42 42 43 43 43 42
44 43 41 38 36 35 35 35 33 36 38 43 45 41 36 37 38 38 39 38 36 33 31 32 33 35 38 40 42 44 45 45 43 40 39 40 40 40 41 41 42 43 43 43
50 50 50 46 38 38 38 40 39 43 42 45 47 45 39 38 36 37 37 35 34 34 35 37 42 46 48 47 46 45 44 42 38 38 39 40 40 40 41 41 41 41 41 41
49 50 58 51 47 46 46 45 45 47 49 50 48 41 33 33 34 35 37 35 35 38 46 50 51 49 44 42 43 43 43 40 39 40 42 42 43 42 43 43 44 43 42 42
53 56 51 53 48 50 51 49 48 47 48 42 38 33 31 32 33 33 34 38 45 49 49 46 45 44 44 45 45 44 43 40 42 44 45 46 47 47 47 48 45 44 42 41
61 61 57 53 49 46 45 42 40 40 36 38 28 31 34 34 35 37 41 46 48 46 44 44 43 44 46 46 46 44 43 45 46 47 49 50 49 48 47 45 43 41 41 41
56 57 51 47 40 34 28 27 27 28 33 41 44 43 41 38 37 39 40 39 40 42 43 44 44 45 46 46 46 47 48 50 52 52 50 48 47 44 40 37 34 32 31 33
46 42 39 37 35 33 35 36 43 45 44 37 36 30 29 32 34 35 38 41 43 44 44 43 45 46 46 49 52 53 54 55 53 50 48 44 37 33 31 31 29 29 30 30
35 35 38 43 43 53 43 44 40 37 31 33 31 30 32 35 39 41 41 42 44 44 45 47 49 52 52 55 57 59 59 56 51 46 39 36 33 32 31 31 32 31 31 31
40 45 52 60 63 51 43 39 36 35 34 36 35 37 40 41 41 42 41 43 46 48 47 50 57 61 64 65 66 62 56 51 47 42 39 37 36 35 34 33 32 31 31 29
62 61 60 69 63 57 42 37 37 37 40 39 43 44 44 43 48 48 46 46 49 52 56 59 62 61 64 64 60 56 52 46 43 41 39 39 38 37 35 34 33 30 27 24
61 54 55 57 56 45 38 37 38 41 44 43 45 44 47 49 46 47 50 56 55 58 60 62 65 67 64 58 52 51 48 43 40 40 40 38 36 35 33 30 27 25 24 22
54 58 57 54 57 56 42 45 45 47 48 48 48 51 52 53 51 51 56 58 58 60 63 66 68 65 61 57 53 47 43 41 42 39 37 36 35 31 28 26 23 23 24 22
49 49 54 51 48 45 48 48 48 50 50 49 48 49 52 55 59 59 59 60 62 63 64 65 68 66 65 57 52 46 43 41 38 38 37 32 28 25 24 25 25 25 24 23
45 46 49 45 41 43 47 50 49 48 48 47 47 49 51 52 54 57 59 62 63 63 65 69 72 66 61 55 51 48 43 42 41 35 29 26 27 27 28 27 27 26 25 25
50 49 49 49 44 44 43 44 44 44 44 46 48 47 45 44 48 52 57 61 63 65 70 71 65 62 59 54 50 45 44 40 32 27 29 31 31 30 29 28 27 26 25 30
44 44 51 50 45 46 43 42 45 47 47 46 46 46 46 45 47 51 56 60 64 66 66 62 60 54 49 46 42 38 32 28 30 32 34 34 33 32 30 29 26 24 26 31

GFSCGP_prec_cthk_006.txt.gz
RH
85 92 84 78 63 60 61 51 48 37 25 27 29 30 29 26 23 19 22 22 24 27 30 29 25 22 21 20 19 20 20 21 23 25 27 29 31 31 31 33 34 36 38 39
85 85 77 76 73 63 64 52 46 37 27 28 30 30 26 21 21 22 23 24 26 29 28 26 24 22 21 21 20 19 19 19 21 23 26 30 33 35 36 38 39 42 42 41
81 81 86 74 69 67 59 49 45 42 31 28 30 32 23 21 23 27 27 27 30 29 27 25 24 24 24 22 20 19 20 21 23 25 28 31 34 38 42 44 44 45 45 45
80 75 76 77 67 62 51 46 43 40 34 35 33 37 25 23 26 30 30 29 28 28 28 27 27 25 25 23 22 23 25 26 28 29 31 34 37 39 39 40 41 42 43 42
68 65 74 73 60 53 50 46 42 38 34 32 33 36 28 27 30 32 32 30 29 28 28 27 25 24 24 24 26 27 29 29 27 27 26 27 29 31 32 31 31 33 35 39
66 68 73 64 55 53 53 46 43 41 35 38 30 34 29 28 26 31 31 30 27 28 27 25 25 26 26 27 31 33 32 30 29 28 28 28 29 30 30 30 30 31 32 33
73 69 64 55 56 54 48 45 51 48 45 38 28 31 24 24 24 24 28 27 28 29 28 29 31 33 34 36 37 37 34 32 30 28 28 29 30 31 33 35 36 38 39 40
75 67 67 55 54 50 43 45 50 48 47 37 29 32 24 22 21 24 26 30 33 34 33 35 37 39 38 37 35 34 34 33 33 34 34 35 36 39 40 40 40 39 38 37
75 68 56 52 47 42 39 43 37 44 43 43 39 31 23 25 26 29 32 33 37 38 37 39 38 37 35 33 33 35 37 37 38 39 40 40 39 38 36 36 36 36 36 35
64 64 57 51 44 37 37 33 39 44 44 44 39 34 31 31 33 34 37 39 42 41 41 41 38 36 35 37 39 42 43 45 44 39 36 35 35 35 36 37 37 37 37 36
58 55 55 46 41 37 36 34 32 38 40 41 42 36 30 33 38 40 43 43 41 41 40 39 38 38 41 46 49 49 47 43 40 36 35 36 37 38 39 39 39 39 39 39
53 53 49 42 36 36 36 37 35 38 38 42 43 41 37 39 40 41 40 38 39 39 39 39 40 47 52 51 46 43 41 40 36 36 37 38 39 40 41 41 41 41 40 39
50 52 52 51 47 43 41 37 38 40 44 47 50 47 38 36 34 34 36 38 39 39 40 44 49 52 46 43 42 41 40 40 40 41 41 43 44 44 42 41 39 37 35 34
55 53 47 48 43 43 45 45 45 46 53 50 49 40 34 34 35 37 37 37 39 43 47 49 46 43 42 42 43 44 44 44 45 46 46 46 46 43 39 36 32 29 27 24
49 50 48 46 44 46 49 51 52 52 48 42 34 34 33 35 35 36 37 38 42 46 47 46 45 44 45 46 45 43 44 47 49 50 48 45 41 37 32 29 26 24 23 23
59 61 57 53 48 47 45 44 41 39 38 37 37 36 42 45 42 39 40 42 44 45 44 44 45 46 47 46 46 50 52 53 53 50 45 40 37 35 30 28 25 24 23 23
62 61 56 52 55 51 46 38 35 32 31 35 42 41 33 30 34 38 39 40 42 43 45 45 48 49 49 51 52 51 51 52 49 44 41 39 33 30 28 26 26 26 25 25
57 54 53 52 46 49 35 36 43 46 46 45 42 33 34 35 37 37 39 41 43 45 48 50 51 50 51 54 55 57 54 49 44 43 41 35 31 30 29 29 28 28 28 28
41 41 45 47 46 40 42 44 45 47 45 39 37 37 38 38 38 39 41 43 45 47 48 47 49 54 60 63 62 57 52 47 46 44 40 34 31 31 32 31 31 30 29 27
39 41 47 63 62 57 47 45 40 36 39 39 40 40 42 42 46 43 42 43 44 45 49 56 60 63 66 65 60 53 48 47 45 40 36 35 36 35 33 33 33 30 26 24
69 69 69 70 65 52 41 40 37 39 36 42 43 43 42 46 47 46 46 46 47 51 58 61 66 67 64 57 55 53 49 42 39 37 39 41 40 39 39 38 32 28 28 27
61 65 60 58 58 53 40 40 41 42 44 43 44 45 45 46 46 46 47 48 49 53 56 60 62 59 60 56 54 49 44 42 42 41 43 43 41 41 35 30 30 30 29 28
57 52 51 46 45 41 42 42 44 46 48 48 48 48 47 46 46 47 48 51 54 57 61 63 63 63 61 53 47 43 42 42 42 43 42 37 30 30 32 33 31 29 29 29
49 44 47 44 44 47 48 49 49 49 50 49 46 45 44 46 45 45 45 47 52 56 60 61 63 60 55 50 46 42 38 39 38 30 28 30 33 35 33 30 28 27 28 33
48 45 46 47 46 47 50 50 50 49 47 45 44 47 47 44 41 43 47 52 54 56 59 59 57 51 45 41 37 35 32 28 29 31 34 35 34 30 27 26 28 30 33 41
45 43 47 49 45 45 46 46 45 46 48 50 49 47 45 45 47 49 52 56 57 57 57 55 44 39 35 30 26 26 29 32 36 38 36 31 28 28 29 29 27 28 32 36

GFSCGP_prec_cthk_009.txt.gz
RH
96 94 77 65 75 58 64 58 53 51 44 40 27 28 28 29 28 28 29 26 23 21 24 26 29 29 27 25 23 23 22 22 22 22 24 26 28 31 34 37 38 39 41 44
94 88 72 70 65 67 66 58 55 49 44 42 27 29 29 28 27 26 22 20 22 24 26 28 30 28 26 25 25 24 23 22 21 21 24 28 31 34 38 41 43 46 48 49
81 91 84 78 78 73 68 61 59 53 45 43 32 29 30 29 27 23 23 24 27 28 30 30 29 28 28 28 26 24 23 22 22 24 26 28 31 35 38 40 41 43 43 43
85 77 81 90 83 75 77 60 62 52 50 49 36 39 31 27 27 26 26 28 31 31 32 31 30 29 28 27 26 25 24 25 26 26 26 27 29 31 32 32 33 34 34 36
88 86 79 88 72 72 69 65 55 53 48 43 37 37 31 27 28 28 31 30 31 32 32 31 30 28 28 27 26 26 27 28 31 31 30 29 29 31 31 32 33 34 36 37
71 71 77 71 83 73 73 57 55 54 50 49 35 33 30 29 26 30 30 31 31 30 30 30 29 28 27 27 30 32 34 35 35 34 32 31 32 33 33 34 35 36 37 36
76 74 71 77 78 72 62 60 65 61 57 52 33 34 22 25 26 29 30 30 30 30 32 32 31 29 30 34 36 36 35 34 34 34 34 34 34 36 37 36 34 32 31 31
77 88 68 76 68 60 57 56 61 57 56 46 35 33 22 23 24 24 26 28 32 33 33 33 32 33 36 38 38 37 38 38 38 37 36 37 38 35 33 32 32 33 33 33
70 63 62 58 55 57 54 57 53 53 54 57 43 30 22 26 26 24 26 32 33 34 35 35 35 40 41 40 39 40 42 42 43 43 41 37 35 34 34 34 35 35 36 35
64 61 61 55 57 57 53 56 54 55 57 55 44 36 32 29 31 31 34 35 36 38 40 43 44 43 40 40 41 44 48 49 46 40 36 34 35 36 37 38 38 38 38 36
62 60 67 62 58 57 55 50 46 47 50 48 45 35 27 27 32 36 38 40 43 44 45 44 43 39 39 42 48 53 49 43 39 37 36 37 37 39 40 40 40 38 36 33
65 71 73 62 63 58 54 47 42 43 40 44 43 36 31 35 37 43 45 46 45 44 41 40 40 41 46 51 53 49 44 42 41 39 39 40 42 42 42 40 36 33 30 27
67 69 82 75 70 60 54 43 38 39 40 43 46 41 37 40 40 41 42 41 40 40 41 42 44 50 52 50 48 46 46 45 44 43 43 44 44 43 40 35 31 28 25 23
68 71 63 56 54 50 44 38 36 39 47 46 46 46 47 45 39 37 37 39 39 41 44 44 45 50 51 50 49 49 46 46 47 47 45 42 39 35 31 29 27 25 24 24
70 61 61 50 38 42 38 40 43 44 44 48 49 53 45 39 38 36 36 41 41 40 43 47 49 50 49 48 47 45 47 48 48 45 44 39 34 33 31 30 29 27 26 24
55 57 52 46 41 43 42 44 50 52 53 54 53 46 40 32 36 47 49 40 41 42 45 46 47 48 49 48 47 47 47 50 49 48 45 37 35 35 34 30 28 27 26 25
58 57 53 50 50 47 47 46 46 49 47 40 36 31 34 47 54 42 36 36 38 41 43 44 47 49 49 48 47 48 51 56 58 51 42 39 38 38 33 30 28 28 28 28
64 62 60 60 58 59 48 53 48 43 40 36 41 45 53 54 40 39 38 38 38 40 43 47 48 48 46 49 53 59 62 58 52 42 42 42 38 33 32 31 31 31 32 35
68 67 68 67 64 51 53 46 42 42 49 51 53 52 44 39 39 40 40 39 41 43 43 44 43 44 50 55 59 62 59 48 44 45 44 38 35 33 32 33 33 35 35 31
53 50 51 62 58 53 43 41 40 44 56 55 51 43 41 41 44 43 40 40 39 40 43 46 48 53 57 59 58 54 49 48 46 43 41 37 34 33 33 32 30 29 30 31
47 47 48 50 51 47 45 45 48 53 43 41 40 41 41 43 44 41 39 40 42 43 46 49 52 55 57 57 54 52 50 49 44 39 36 35 31 28 26 28 30 31 30 27
68 74 72 74 73 68 52 46 43 41 41 41 43 43 43 43 41 40 39 40 43 46 48 50 55 56 57 55 55 53 49 42 38 34 29 26 23 26 29 31 30 25 22 22
65 57 59 56 52 42 40 40 41 42 43 45 45 46 46 43 41 41 41 43 45 48 52 55 58 56 54 54 51 47 40 34 28 23 21 23 28 31 31 26 22 22 23 25
59 58 57 51 49 45 43 44 45 47 48 48 49 47 43 43 43 42 42 44 49 54 56 55 55 57 55 51 42 32 26 22 21 22 24 30 32 29 24 24 24 25 26 27
61 59 55 51 49 49 47 47 47 48 47 46 45 44 45 45 45 44 46 50 52 57 59 58 56 53 47 36 29 23 21 22 23 26 33 33 30 25 25 24 24 26 26 34
63 57 56 49 44 46 47 47 47 47 45 44 43 43 44 47 48 48 50 52 54 57 59 57 53 41 32 27 23 23 25 24 30 34 34 31 27 26 26 24 22 24 29 33

GFSCGP_prec_cthk_012.txt.gz
RH
88 93 85 67 59 56 59 56 55 51 51 43 43 36 24 27 26 26 28 30 32 30 29 24 19 20 25 29 29 28 25 24 24 25 26 28 30 34 38 40 42 44 47 49
98 90 78 74 68 70 56 59 57 56 51 43 45 39 25 28 27 27 29 30 30 26 22 21 24 26 30 32 30 27 26 26 25 25 25 26 29 32 34 37 39 41 43 44
93 82 80 81 73 68 66 61 64 61 55 47 44 41 25 23 25 28 29 28 26 25 25 26 28 31 33 31 29 28 28 27 25 24 25 27 30 34 35 36 36 36 36 36
93 97 89 85 76 70 76 64 68 63 62 55 45 50 31 23 27 30 29 29 29 28 31 30 33 33 32 32 31 30 28 27 26 26 27 29 33 33 34 35 36 36 36 36
91 93 96 89 74 69 73 73 71 66 59 52 49 50 33 24 29 29 28 31 32 31 32 33 34 34 34 33 31 30 27 26 27 28 30 33 34 36 37 37 36 35 35 34
89 91 90 91 82 77 79 76 68 65 59 59 49 44 35 26 26 27 29 33 34 33 33 34 34 34 33 33 31 29 28 29 32 34 35 36 37 36 35 35 35 33 30 30
86 83 76 74 81 81 80 79 73 71 65 57 45 44 32 22 26 28 32 34 36 35 33 33 34 33 33 33 32 32 35 38 39 39 38 38 38 38 37 34 30 29 30 31
85 88 84 79 74 83 82 75 68 66 63 52 46 42 28 22 23 23 29 31 34 35 35 36 35 35 35 35 37 40 42 42 42 43 42 41 38 35 32 31 31 33 34 34
73 80 74 73 61 84 78 75 64 64 58 58 50 38 29 26 27 28 30 31 35 36 36 36 35 37 40 42 43 44 43 43 45 46 43 38 34 34 35 35 36 37 38 36
66 68 64 57 67 72 70 68 67 66 64 60 50 42 38 30 31 32 32 33 36 38 38 39 41 44 46 46 45 43 43 47 50 46 41 37 37 38 39 40 40 37 33 29
62 62 71 67 61 70 68 62 60 60 62 58 54 41 32 30 30 37 40 40 40 42 44 46 48 48 45 43 46 47 51 52 47 41 40 40 41 42 39 36 32 28 26 24
65 63 70 64 59 64 64 60 58 63 59 56 51 41 29 34 36 41 42 43 46 49 50 47 44 44 45 49 54 51 48 45 43 43 42 44 42 39 37 32 28 26 25 24
66 67 78 74 67 61 59 58 60 60 58 53 48 40 33 36 39 42 43 45 47 46 44 43 45 48 52 51 51 49 47 45 45 46 46 45 40 37 34 32 30 28 26 26
69 70 65 66 61 64 65 62 60 61 59 48 43 33 35 41 44 48 49 46 42 41 44 50 51 50 50 52 52 49 47 48 47 47 46 44 41 38 37 33 29 29 29 26
73 72 69 66 64 65 65 68 61 51 36 40 35 44 47 45 49 48 42 38 39 48 48 46 46 48 50 50 50 49 49 50 49 48 45 41 40 38 32 31 32 30 27 25
76 73 68 67 61 54 50 53 45 37 37 39 43 47 50 52 49 45 37 42 51 45 39 42 45 47 48 50 50 50 50 50 49 50 47 43 38 34 33 32 29 27 25 24
76 71 64 69 64 57 44 40 51 49 48 49 54 53 54 51 43 40 51 55 46 37 39 41 43 47 48 48 48 49 51 52 53 52 49 43 35 33 33 29 27 26 25 22
68 67 66 61 59 54 39 44 42 49 49 49 50 45 40 45 48 56 58 49 39 39 39 40 43 46 45 45 48 53 55 56 52 46 41 39 35 33 29 28 26 21 18 19
73 68 68 63 59 49 47 47 50 52 55 48 48 50 52 57 59 53 45 40 39 38 38 42 45 45 45 49 53 55 56 49 44 43 42 38 34 31 26 20 18 20 22 22
65 62 64 76 76 68 58 58 52 50 58 53 56 58 59 60 55 46 41 39 38 37 40 43 45 47 50 52 55 55 52 46 44 44 40 34 28 22 18 20 23 25 23 20
72 73 70 71 65 58 52 50 52 58 52 55 55 58 54 48 43 41 40 39 39 41 42 46 49 51 53 57 55 53 47 45 44 37 31 25 20 20 23 25 27 24 22 21
60 62 62 61 59 54 44 46 54 55 57 51 47 44 44 43 42 41 40 39 40 43 45 48 52 55 56 56 53 47 47 42 36 28 22 21 22 25 28 28 25 24 24 23
62 66 67 69 70 69 66 58 51 47 44 45 45 44 44 43 42 39 39 42 43 45 47 51 55 58 56 53 50 47 41 33 26 22 22 24 26 30 30 26 26 25 24 24
65 62 65 63 60 56 52 48 44 44 45 46 45 45 43 42 41 42 41 42 44 48 51 55 58 58 55 52 47 39 29 26 24 24 25 27 31 29 27 28 28 26 25 26
62 62 62 63 61 58 54 51 50 48 47 45 44 43 42 42 43 43 43 44 50 52 53 55 55 56 54 49 36 30 27 26 26 27 28 31 30 28 28 27 27 26 26 30
61 59 60 62 60 57 53 49 47 46 44 43 43 42 42 42 43 44 47 50 52 53 53 53 54 54 45 33 31 28 28 28 29 29 32 30 29 28 28 27 25 25 27 29

GFSCGP_prec_cthk_015.txt.gz
RH
84 97 94 81 75 66 61 62 55 49 51 46 42 37 40 30 24 27 27 29 31 31 32 33 32 29 22 18 21 28 31 31 31 28 30 32 32 33 34 36 38 40 42 43
92 95 90 83 72 67 65 62 56 55 51 49 44 38 39 31 23 25 28 31 30 29 31 32 27 21 22 25 29 32 33 32 29 29 30 30 31 31 33 35 37 38 37 36
90 90 87 86 77 73 67 59 59 60 58 54 44 37 40 34 25 24 28 32 31 30 28 25 24 25 29 33 34 34 32 32 31 30 28 28 29 30 31 34 36 37 38 38
96 96 88 85 81 70 69 65 61 65 66 61 48 45 42 37 25 25 28 32 31 30 27 27 29 31 34 37 37 35 34 32 30 28 26 27 28 32 36 38 38 37 36 35
94 97 83 86 73 70 71 69 70 68 65 56 50 49 41 37 24 25 31 34 32 31 29 30 32 35 38 38 38 36 34 30 28 26 29 32 35 37 39 39 38 36 35 32
97 95 89 78 82 78 68 76 70 67 62 57 49 48 43 30 25 25 29 31 33 31 32 33 34 36 38 38 37 36 33 32 30 32 35 38 40 41 40 38 35 32 31 31
95 94 97 85 84 81 76 79 92 80 70 58 50 49 38 30 27 27 28 31 35 33 32 34 36 38 38 38 38 36 36 35 35 37 40 41 43 41 38 34 33 32 33 33
97 95 91 93 88 90 88 79 78 72 67 56 52 46 32 29 28 26 25 32 35 35 35 35 37 39 40 39 39 40 40 40 41 42 44 46 45 41 37 35 34 34 31 28
82 81 80 82 82 87 89 90 74 67 62 60 50 41 35 33 31 32 29 31 34 35 36 37 40 40 42 44 45 46 46 43 44 46 47 47 42 38 37 36 33 32 30 27
72 75 70 75 78 83 81 81 83 70 68 63 53 46 43 37 36 37 34 33 35 35 37 39 42 45 48 51 51 49 47 47 50 48 44 40 40 39 38 37 35 33 30 28
67 68 69 71 72 70 75 80 80 70 64 58 54 45 40 37 35 35 36 35 37 39 42 46 49 52 55 52 49 50 53 51 46 44 43 43 41 40 40 36 33 30 28 25
66 65 77 66 70 72 65 73 70 69 64 62 58 51 40 35 32 34 38 39 42 45 48 52 54 54 52 50 54 54 51 49 48 46 45 43 42 42 39 37 32 29 27 25
68 69 76 76 68 65 63 64 67 66 65 59 58 51 42 39 38 36 39 41 44 48 51 51 49 50 55 56 52 50 51 50 48 48 46 45 45 44 39 37 33 28 26 26
71 71 66 66 61 62 62 59 65 65 69 60 56 53 45 34 34 40 43 47 50 52 51 47 52 56 54 51 51 51 50 50 50 47 47 47 48 43 37 33 28 27 26 25
75 72 66 62 60 58 59 59 58 59 57 61 58 60 35 34 38 43 47 52 54 51 46 54 52 47 49 52 50 49 50 50 49 48 50 50 45 39 33 30 29 28 26 24
75 74 69 67 67 65 65 65 62 63 66 65 55 39 30 36 41 47 53 55 51 42 53 56 50 52 50 49 49 49 50 50 51 51 49 40 41 36 31 30 29 26 23 20
79 74 73 74 71 69 64 59 60 59 63 50 42 28 39 45 51 57 56 48 43 50 61 54 49 46 46 47 49 50 51 52 51 48 43 40 38 36 31 29 25 21 19 20
84 77 76 75 70 70 59 55 46 47 48 47 42 43 50 56 58 52 50 48 54 59 51 42 41 42 46 49 50 52 54 52 50 48 43 40 39 33 28 23 20 21 22 22
81 78 77 75 69 57 52 50 44 44 49 48 50 51 51 54 52 52 55 60 56 46 39 36 40 46 48 50 52 55 55 53 50 44 42 39 32 26 22 21 23 24 22 20
72 81 89 77 67 58 56 58 50 46 48 51 57 59 57 58 63 63 61 57 45 36 33 37 42 46 49 52 53 54 54 50 46 43 40 31 24 22 23 24 25 23 21 20
84 83 71 74 71 66 62 58 54 59 55 57 55 54 55 57 59 60 52 43 35 34 38 43 46 50 53 55 55 55 53 50 45 40 30 25 24 24 25 26 25 22 22 21
73 77 78 78 75 66 57 56 54 53 54 57 58 60 58 56 50 46 41 36 36 39 43 47 49 52 55 56 56 54 51 47 40 29 26 25 25 27 28 26 23 24 22 22
71 65 64 58 52 53 56 61 63 60 57 64 55 51 49 47 44 39 36 37 41 44 47 49 50 53 58 56 51 50 48 39 30 27 26 26 28 29 27 23 23 23 23 24
57 57 65 68 66 64 62 60 58 56 53 46 45 45 44 42 39 38 39 41 44 46 47 49 52 57 55 53 52 48 36 30 28 27 27 30 30 27 24 24 25 25 25 26
61 64 63 62 62 62 63 61 58 55 53 51 49 45 42 39 39 41 43 44 45 47 48 50 54 53 53 51 46 33 30 28 28 29 32 32 29 26 24 25 27 26 29 33
64 65 63 60 54 55 58 62 64 60 55 52 46 40 38 40 41 42 44 44 44 46 49 53 53 55 52 41 32 30 28 29 31 34 33 30 27 25 27 27 25 29 31 37

GFSCGP_prec_cthk_018.txt.gz
RH
86 89 90 89 76 72 71 59 59 56 54 47 44 39 38 40 37 30 24 26 27 30 32 31 30 29 29 29 29 25 23 26 32 39 40 37 38 39 40 39 39 40 41 40
92 88 82 93 86 71 66 64 59 60 50 48 46 38 38 39 35 31 24 26 27 31 32 32 31 30 30 28 23 23 27 32 36 37 36 36 36 36 34 32 32 32 34 35
82 81 89 91 81 76 74 66 61 60 56 54 49 38 34 34 34 32 23 25 29 31 32 33 32 30 27 23 24 31 35 36 36 36 36 35 31 29 29 32 34 35 36 37
85 90 90 89 79 71 75 64 64 65 68 64 50 44 35 32 33 33 27 26 30 31 32 33 32 26 26 28 32 35 38 38 37 35 34 31 29 31 33 36 38 40 40 39
90 93 95 93 71 72 69 67 66 68 71 64 53 50 35 34 33 32 25 28 31 31 33 34 34 30 31 35 36 39 40 38 36 33 31 32 33 36 39 41 41 40 37 35
81 89 93 80 83 80 80 73 72 71 67 62 49 45 37 31 29 29 26 28 32 32 35 37 34 32 35 37 38 39 39 37 34 33 34 35 38 42 45 45 42 39 35 31
87 95 90 84 89 86 79 76 90 88 79 57 44 44 37 35 31 29 28 28 30 33 35 35 35 35 37 38 39 38 38 37 37 37 37 42 46 47 46 42 38 34 31 30
96 99 96 86 81 82 77 70 67 68 60 52 51 44 35 33 34 33 29 30 31 34 37 36 38 38 39 40 39 39 40 41 41 40 44 48 48 45 41 36 33 32 32 30
90 94 97 90 84 83 86 77 69 60 55 50 44 40 35 33 33 32 31 30 32 36 38 38 39 40 40 41 41 43 46 45 44 47 49 48 44 40 38 37 35 33 33 30
81 94 95 97 90 86 82 75 79 64 60 56 46 42 40 37 35 35 32 33 35 38 38 38 40 42 44 46 47 50 50 48 51 50 47 45 43 43 40 38 37 35 32 29
81 78 86 91 93 84 85 92 82 66 60 53 47 41 38 36 34 33 35 36 39 41 41 42 45 49 50 52 53 52 51 54 48 47 47 47 46 44 41 40 39 35 31 27
78 70 76 88 79 80 80 79 77 75 65 56 50 43 41 39 37 34 36 39 43 43 44 47 51 52 53 52 52 54 56 50 49 49 50 49 47 44 43 42 39 33 28 26
71 68 73 75 77 75 74 75 75 69 60 60 59 47 42 44 45 40 37 40 42 44 47 50 55 54 54 54 58 55 50 49 50 51 51 49 48 45 45 38 31 29 28 27
70 66 58 61 57 57 62 66 65 64 70 59 52 51 46 48 52 45 37 41 44 47 50 53 56 55 54 59 53 50 50 51 52 52 50 48 46 45 40 33 31 30 28 26
77 67 63 59 59 55 56 61 60 60 53 59 52 58 51 53 54 40 36 39 43 48 54 58 56 54 62 57 54 55 52 51 53 51 48 47 47 43 38 34 32 30 26 25
77 74 67 63 61 59 57 55 57 58 58 52 51 50 50 56 47 37 40 44 48 55 61 60 52 61 65 60 57 50 51 53 52 50 50 49 44 40 37 33 29 27 25 25
79 77 74 72 67 65 62 54 53 51 52 50 49 48 57 47 38 35 39 46 55 58 55 52 59 68 60 55 49 49 52 53 53 53 52 47 43 38 34 30 27 26 26 26
81 76 73 72 67 83 57 54 51 52 47 48 50 52 46 43 41 42 48 53 55 54 53 57 62 59 49 45 46 50 54 56 55 53 50 43 39 35 31 28 26 26 28 26
85 80 81 74 67 59 54 53 54 53 42 44 47 49 49 50 51 54 55 57 55 54 59 62 53 46 42 45 50 54 56 55 51 51 45 41 36 32 29 26 27 29 27 23
85 95 88 80 72 65 53 54 51 48 41 39 44 48 52 53 54 56 59 58 60 63 60 47 40 38 44 50 53 55 55 52 52 49 43 38 33 29 27 28 30 28 23 21
82 85 88 89 94 57 58 62 57 56 56 56 53 51 53 56 56 59 62 63 61 55 44 36 37 43 47 52 55 54 52 53 52 47 39 33 29 27 29 31 29 23 21 20
83 81 85 88 79 68 62 64 61 55 55 55 54 53 57 62 64 64 61 56 48 38 34 37 43 47 50 53 54 52 53 51 48 39 32 29 27 30 32 28 24 22 23 22
79 74 72 69 66 66 63 59 56 55 61 61 60 64 64 61 59 55 46 38 33 34 39 43 46 49 51 54 52 51 50 49 37 31 28 28 31 32 30 26 23 25 25 26
73 73 70 67 62 60 66 67 63 63 60 62 60 57 52 48 44 40 35 34 37 40 42 44 47 50 51 53 51 50 49 33 29 27 30 33 34 31 28 25 27 28 29 29
66 60 59 61 64 66 61 62 62 62 60 56 54 51 49 44 38 35 38 39 39 41 43 45 47 51 53 50 50 44 29 27 28 32 35 36 33 30 27 28 30 30 30 31
56 56 59 60 58 57 56 54 53 55 58 61 60 55 46 38 38 39 39 39 40 41 43 47 53 52 51 47 34 27 27 29 33 36 38 35 32 30 30 30 30 31 33 37

GFSCGP_prec_cthk_021.txt.gz
RH
63 70 69 51 71 65 69 71 68 58 55 57 52 45 37 37 36 39 38 33 26 28 29 31 33 35 34 34 33 34 34 35 37 36 36 41 46 46 45 45 44 42 37 36
88 90 59 45 67 87 70 74 62 60 59 58 51 43 38 38 37 38 40 36 27 28 30 32 35 35 34 33 31 31 32 33 32 33 38 42 43 42 38 36 34 31 30 31
85 60 61 63 80 94 86 75 59 64 64 57 52 45 38 36 36 37 37 36 29 30 32 31 33 34 33 31 30 28 27 25 34 36 39 39 37 37 35 32 30 33 37 41
91 83 91 75 85 86 82 70 64 68 68 63 59 47 41 35 34 33 34 36 33 30 31 33 33 34 33 30 28 26 28 30 35 39 40 39 36 34 31 33 36 39 42 42
83 84 93 82 91 93 72 70 69 73 68 69 65 58 37 40 33 32 32 35 36 30 30 35 34 34 34 32 28 30 33 35 38 38 36 34 33 33 35 37 41 45 42 38
82 84 88 69 92 91 77 74 78 76 72 72 54 54 40 41 35 31 32 36 35 32 32 35 34 35 34 34 32 35 37 39 38 37 36 35 36 38 41 45 44 41 35 30
88 94 92 93 96 95 85 86 95 91 81 58 51 53 46 36 31 29 30 33 34 32 34 35 35 36 38 35 36 38 39 39 39 38 39 38 39 44 48 45 39 34 30 30
97 98 97 92 95 88 89 79 69 73 63 52 51 48 41 36 37 33 32 33 34 33 34 34 35 36 37 39 40 40 40 40 41 43 41 41 48 50 45 40 37 35 33 32
92 91 94 96 95 88 88 75 71 63 53 54 50 45 38 34 36 34 33 35 35 34 36 38 37 37 39 41 41 42 41 43 46 44 47 50 47 44 42 41 40 37 35 34
94 97 91 95 91 88 77 69 75 61 60 55 50 46 45 35 32 34 34 37 37 34 38 39 39 38 38 41 43 45 46 49 48 50 51 46 44 43 44 43 40 36 34 30
96 98 98 91 95 87 87 77 70 60 56 54 51 46 42 37 35 34 34 35 37 37 40 43 42 41 43 46 48 50 50 50 52 53 48 46 46 46 45 44 39 35 30 27
93 94 98 94 88 82 78 72 67 62 61 52 49 49 41 38 36 34 36 38 41 41 43 46 47 46 46 50 51 51 53 56 53 50 47 47 48 48 46 42 39 32 29 28
85 82 98 98 92 87 82 79 71 67 61 57 54 52 44 42 40 39 36 39 42 43 45 46 48 48 50 53 54 54 58 54 50 49 49 51 51 48 46 43 36 31 30 30
83 76 71 75 76 82 76 75 73 68 65 59 55 56 51 47 46 43 42 41 42 44 46 48 50 50 52 54 55 56 61 55 56 55 53 51 51 50 45 40 35 32 31 28
81 71 64 60 63 64 70 72 73 74 68 61 57 56 54 54 55 50 51 49 43 42 44 47 49 53 57 58 55 62 62 59 57 54 52 53 53 48 43 38 33 31 29 27
78 72 67 64 59 58 58 56 59 58 59 55 54 52 57 51 51 54 52 50 42 43 47 50 55 61 62 57 60 67 60 57 54 53 55 55 51 45 39 34 32 30 29 28
81 77 71 71 62 60 60 51 48 48 48 51 50 48 52 48 51 53 49 45 41 42 48 56 62 63 59 59 64 62 56 53 52 55 56 53 48 40 36 33 31 30 30 30
80 80 77 79 68 78 55 51 49 48 47 49 49 50 50 48 51 55 49 46 41 45 54 60 61 61 60 65 61 53 50 51 55 56 53 49 43 38 34 31 31 29 30 29
82 84 82 77 70 62 57 54 53 53 50 48 48 47 48 53 56 53 49 47 49 55 57 60 60 62 67 58 50 50 52 55 56 53 49 45 40 35 32 29 28 30 28 23
89 88 88 77 73 71 57 54 52 52 52 45 41 46 50 55 55 52 51 53 53 55 59 61 63 64 56 46 46 51 55 55 52 50 46 42 37 32 27 27 29 28 24 21
95 94 95 91 84 70 58 58 56 56 55 48 42 43 48 51 53 56 59 62 64 62 63 64 55 50 42 42 48 52 54 51 47 46 46 38 30 25 27 30 28 24 22 23
86 93 94 96 95 85 63 59 60 61 60 53 53 56 57 61 62 61 58 58 60 59 56 50 43 38 42 47 50 50 47 45 48 48 36 27 25 28 30 29 26 24 25 25
87 75 77 77 75 69 65 66 64 62 60 57 57 58 56 56 58 59 59 58 54 48 40 36 39 42 45 48 49 44 46 51 47 31 25 26 29 31 31 28 27 27 27 26
78 79 72 70 68 70 69 66 59 61 59 58 59 59 64 60 61 56 49 41 36 34 37 40 41 43 45 46 46 49 50 44 28 25 27 30 33 33 31 30 29 28 27 28
73 76 74 71 72 62 60 64 64 63 63 61 61 57 55 51 48 44 39 36 37 40 40 40 41 43 44 49 50 47 36 26 26 28 31 35 36 35 33 31 30 29 30 33
70 69 61 56 56 54 54 59 60 56 51 51 52 53 55 53 47 42 39 40 40 38 39 41 43 47 50 47 43 31 26 26 29 32 36 38 39 37 33 31 30 31 33 33

GFSCGP_prec_cthk_024.txt.gz
RH
68 67 60 48 49 40 46 58 67 57 55 59 54 49 50 49 43 37 34 36 38 37 33 28 28 28 31 36 37 37 35 35 36 38 39 40 40 40 46 49 47 43 39 34
77 76 46 51 51 51 52 59 69 70 60 61 56 50 53 48 42 35 32 35 39 36 33 29 31 32 35 37 39 38 38 37 37 37 36 36 39 43 44 40 36 33 32 31
82 58 71 69 62 63 53 61 61 76 63 65 66 55 52 44 38 35 33 36 41 36 36 31 32 33 35 37 36 36 36 35 36 34 31 32 36 39 38 35 35 34 34 35
84 67 74 79 71 67 62 43 69 87 77 76 68 62 47 42 37 34 34 35 39 36 38 31 33 33 33 34 33 34 33 33 30 31 33 36 37 37 36 36 35 36 38 38
86 74 75 81 77 68 49 46 77 85 89 77 76 69 48 44 39 36 34 33 37 36 41 37 33 33 33 34 34 34 34 33 33 36 38 37 37 36 36 37 39 39 41 40
83 82 93 70 69 63 53 72 88 80 83 90 70 68 52 44 38 38 35 33 35 37 41 38 33 34 35 35 35 35 35 35 35 36 37 38 37 38 40 40 42 43 41 34
84 89 82 91 86 70 75 93 98 99 97 89 56 65 53 42 40 37 34 34 35 37 42 39 34 35 37 36 35 36 37 37 37 38 39 39 41 41 41 44 46 41 37 34
91 79 85 86 86 68 79 98 94 88 92 70 56 65 51 45 39 37 34 33 34 37 40 37 34 36 36 36 37 39 39 39 40 40 42 45 43 42 47 45 41 39 38 36
98 96 93 84 90 88 94 98 89 68 52 56 56 51 45 44 42 38 36 35 36 36 37 38 36 36 36 38 39 40 41 41 41 43 46 44 45 50 44 42 41 41 39 34
93 98 95 91 94 93 91 85 84 70 67 68 63 55 47 43 38 36 37 38 38 38 38 39 40 39 39 39 40 41 42 44 45 48 46 48 53 46 43 43 43 42 38 31
93 96 95 97 92 94 98 94 78 61 58 69 66 59 46 40 36 34 35 38 41 41 39 40 42 42 40 40 42 44 47 48 48 47 52 55 48 46 44 45 46 43 34 28
92 98 99 98 90 91 88 79 72 65 67 66 57 55 45 43 38 37 37 40 41 40 40 42 44 45 45 45 46 48 50 50 50 53 58 51 49 47 49 50 46 39 33 28
96 98 97 95 91 96 93 77 70 65 62 69 61 59 49 44 41 40 39 40 43 43 44 44 46 48 47 47 49 51 53 53 54 60 59 54 54 54 51 48 44 37 30 28
93 96 98 98 78 76 81 77 72 71 68 63 59 55 53 48 45 43 41 42 43 44 45 46 48 50 50 50 49 51 55 56 57 65 61 57 55 53 51 48 41 32 29 28
90 94 92 84 80 79 76 74 74 69 62 63 62 55 55 55 49 45 45 47 49 49 48 49 50 52 51 50 51 56 61 58 63 68 60 56 56 54 50 44 35 30 29 30
81 89 79 70 76 77 76 75 73 68 67 63 63 59 57 55 56 53 57 54 53 53 51 50 50 51 52 53 58 61 61 60 67 63 57 56 54 52 48 38 31 30 30 28
83 85 76 77 65 67 68 60 62 66 62 60 64 57 61 60 60 56 52 52 52 53 54 51 54 55 56 61 63 61 59 68 64 57 57 55 52 49 40 32 32 31 28 27
75 78 83 84 70 79 57 54 51 50 48 51 54 54 57 56 55 53 53 52 55 53 49 48 52 55 61 64 61 62 69 63 57 56 53 53 50 41 33 33 31 28 27 24
77 82 86 84 76 70 62 58 56 56 51 47 47 51 57 55 54 58 55 58 58 51 49 52 56 62 62 62 64 66 60 56 54 52 52 49 41 36 34 29 27 28 25 22
79 82 87 87 84 79 66 58 53 51 59 52 50 51 52 53 58 59 59 59 58 58 57 58 59 62 66 68 65 55 52 51 51 50 48 42 38 34 28 28 29 26 23 22
86 91 91 90 87 77 67 61 56 60 60 52 49 46 46 50 52 56 58 59 56 57 62 66 64 63 62 55 51 47 48 49 48 46 44 41 33 27 29 30 29 26 23 22
86 90 92 93 91 88 68 64 64 65 62 58 54 54 55 55 55 56 59 60 60 60 58 59 60 55 49 44 44 47 47 46 45 47 41 31 27 30 31 31 29 25 24 23
85 80 85 84 80 72 69 68 64 63 62 62 60 56 56 57 58 60 60 57 56 60 61 56 48 39 40 44 46 47 45 45 48 38 28 26 30 32 33 32 28 25 26 26
81 79 76 75 73 72 73 69 67 65 60 60 58 58 56 59 63 63 62 61 56 50 39 35 37 40 43 45 46 44 46 46 36 27 27 30 32 33 34 32 28 28 28 28
80 81 78 75 74 74 72 71 67 62 64 63 61 59 57 56 55 51 48 46 43 40 39 41 41 41 43 44 44 47 45 33 26 28 30 32 34 35 35 32 30 30 30 32
78 75 78 77 74 72 67 63 62 61 57 53 50 49 49 46 47 47 46 42 41 43 44 41 41 41 42 46 46 43 32 27 28 30 32 35 37 38 37 32 30 31 31 31

GFSCGP_prec_cthk_027.txt.gz
RH
65 64 62 57 57 57 55 57 62 53 55 58 51 56 44 42 46 46 43 39 37 33 36 38 33 28 27 29 31 36 37 37 39 40 42 44 44 47 47 50 52 50 43 36
73 64 65 59 55 64 60 60 54 47 55 65 57 55 40 43 44 46 45 40 39 34 36 40 37 31 31 33 34 34 39 40 40 40 41 43 44 42 42 44 41 37 36 37
80 67 68 71 70 68 65 66 50 47 53 61 66 63 50 43 44 46 46 42 40 35 35 39 40 32 33 37 39 41 43 42 39 39 40 39 36 36 37 36 37 39 39 37
86 78 79 83 79 74 72 53 52 49 61 73 71 76 53 47 39 45 46 42 39 37 39 42 40 32 32 38 41 44 44 41 40 38 36 33 33 35 36 38 40 40 39 38
90 82 81 84 69 84 65 63 62 61 61 73 75 84 54 46 43 43 41 41 37 36 38 40 40 34 31 35 38 39 38 39 36 35 36 35 36 37 39 41 41 42 42 42
94 90 90 74 71 78 67 78 70 64 68 88 69 85 67 47 39 37 39 40 38 38 37 38 42 42 35 33 35 36 37 37 37 39 41 38 39 41 42 42 43 42 40 40
96 89 82 84 84 80 82 93 88 84 80 69 65 86 78 43 38 37 42 40 39 38 37 39 43 43 36 33 34 37 37 38 39 41 42 41 42 44 45 45 45 43 42 40
89 85 77 75 64 74 77 87 84 78 58 51 78 98 57 47 43 42 43 41 41 40 39 41 42 42 37 33 34 37 37 39 41 42 43 44 45 47 47 47 46 45 43 40
91 91 81 80 77 78 75 92 55 76 79 78 77 71 51 46 45 47 43 42 40 38 38 39 43 39 36 34 35 36 38 41 43 44 46 47 49 48 48 51 48 45 43 40
90 95 85 92 96 89 82 74 80 91 96 98 80 58 46 43 46 46 42 40 40 38 37 38 39 38 37 37 38 40 42 43 44 46 50 52 49 50 57 53 49 46 44 42
96 99 94 98 90 71 82 88 79 88 84 96 78 58 47 48 45 45 42 40 41 40 39 38 40 41 42 41 41 41 42 45 49 52 54 51 51 60 61 54 49 49 48 38
93 93 91 94 88 90 88 83 80 87 98 92 66 55 47 48 43 39 38 38 40 41 40 41 43 44 45 44 44 45 48 51 53 54 55 57 58 65 61 54 52 50 41 34
96 97 97 94 94 96 96 88 83 92 90 74 64 58 52 49 45 38 40 42 41 42 42 42 43 46 46 47 48 49 50 52 56 57 58 58 61 68 63 56 52 46 38 29
94 98 99 99 95 92 95 96 95 91 86 76 65 58 52 48 45 42 42 43 44 44 44 44 46 48 49 50 50 52 54 55 57 60 64 64 68 70 58 56 51 42 31 27
96 98 98 88 89 85 88 85 84 88 81 73 65 62 56 50 46 44 44 46 46 47 49 49 51 54 55 53 53 56 56 57 60 68 68 66 73 62 59 55 43 32 29 28
91 98 96 94 80 79 81 76 78 79 77 74 73 65 59 54 50 50 50 51 56 57 57 58 57 58 58 55 54 54 57 63 71 70 66 75 65 60 56 42 34 29 29 33
83 91 95 92 88 78 78 70 69 69 66 68 71 64 58 58 57 57 57 57 58 57 55 55 57 58 58 58 58 58 64 71 69 70 77 67 62 55 45 35 29 31 34 30
78 83 89 86 72 80 66 62 63 73 69 68 64 73 64 59 57 56 56 56 57 57 57 56 53 55 56 57 58 65 70 68 71 77 67 60 55 47 35 29 33 34 30 27
79 80 89 83 81 70 61 58 60 60 58 59 56 64 66 60 58 58 57 57 58 56 59 62 59 54 55 60 69 70 71 75 75 63 57 52 48 36 31 35 34 31 28 25
84 84 90 91 86 81 65 60 55 56 61 53 52 52 53 54 58 63 61 58 58 61 61 63 64 64 67 69 75 73 72 66 60 53 50 47 36 34 36 33 32 31 27 23
89 89 92 89 87 76 68 64 60 61 57 53 52 53 53 55 56 60 62 60 61 62 62 63 68 72 72 70 69 67 61 54 50 49 45 38 36 35 34 33 32 29 26 24
78 83 88 90 91 87 66 64 62 62 59 57 52 52 53 54 55 57 58 59 62 66 68 70 70 66 67 67 59 50 49 48 48 44 39 37 33 34 34 33 32 29 26 25
83 79 84 86 80 71 70 66 65 65 63 63 61 60 58 59 59 60 62 64 65 63 62 63 68 64 53 42 44 47 48 46 43 42 36 32 33 34 35 34 33 30 28 26
81 80 81 84 76 75 73 69 68 66 62 61 61 61 61 60 61 63 65 64 65 66 61 54 46 40 41 46 48 47 44 43 42 33 32 33 34 35 36 36 34 31 29 26
79 80 81 79 76 74 73 70 69 69 66 63 62 62 61 59 59 56 54 52 48 45 43 42 42 45 47 47 46 43 45 41 33 32 32 34 35 36 37 37 34 32 29 30
78 79 80 79 75 71 72 73 71 66 65 67 60 54 49 47 48 47 45 45 44 42 42 43 45 45 46 45 44 46 40 33 32 33 34 35 36 38 38 36 34 31 30 30

GFSCGP_prec_cthk_030.txt.gz
RH
63 68 67 63 61 58 57 60 60 55 57 60 58 54 51 48 45 42 39 39 43 44 40 36 36 39 34 27 25 27 30 36 41 45 48 56 54 51 50 52 50 52 50 40
75 74 66 61 60 60 63 64 57 54 52 58 61 57 52 45 39 41 39 41 45 45 42 38 36 38 38 32 29 28 29 33 39 43 48 52 52 52 53 51 46 39 37 38
78 68 65 68 67 66 61 65 63 61 50 47 54 50 50 38 40 41 39 40 46 44 42 39 35 38 41 34 31 32 35 38 40 45 49 50 53 53 48 40 35 37 40 41
84 78 75 78 77 79 72 63 64 62 63 65 64 63 48 43 41 42 36 38 42 45 42 39 36 39 44 39 35 35 38 43 47 47 48 46 46 43 38 35 38 40 42 43
86 82 84 83 77 85 75 74 72 72 69 66 53 71 46 45 42 39 34 34 42 44 42 39 37 43 46 42 35 38 40 43 44 44 41 41 39 39 40 41 42 43 44 44
88 88 89 80 80 85 84 88 87 86 82 87 49 58 42 42 38 38 35 35 41 46 43 39 40 46 49 48 43 39 40 42 42 39 37 38 40 42 45 45 45 46 46 44
77 80 84 90 92 87 87 94 97 98 97 71 50 59 36 37 33 37 37 38 40 45 43 40 41 45 48 52 49 43 39 38 37 37 38 41 44 47 47 47 48 47 47 45
75 69 74 79 85 86 88 88 95 95 94 63 66 67 39 27 33 44 39 39 45 46 43 42 43 45 48 49 48 40 34 37 39 39 41 44 47 48 49 49 49 50 49 48
73 72 65 65 70 80 86 96 63 94 86 90 62 49 33 31 37 48 41 43 44 47 43 44 45 46 48 48 47 40 36 39 40 40 43 46 49 51 52 52 51 54 56 50
72 89 81 88 91 85 73 78 95 97 96 88 65 54 29 25 41 50 44 43 51 49 48 48 48 48 48 49 44 40 39 39 41 43 46 48 51 56 56 53 56 63 60 50
84 96 94 96 96 93 97 88 86 72 72 81 77 55 29 32 46 44 49 53 51 48 46 46 46 46 45 43 40 39 41 42 44 46 49 54 58 61 58 58 62 69 60 49
94 98 98 93 87 89 83 86 73 78 69 65 83 64 42 41 43 47 55 55 52 50 46 44 44 44 43 42 43 45 44 45 48 51 56 58 61 63 63 66 67 70 57 44
97 98 97 97 98 92 92 72 63 65 69 79 94 75 57 51 53 56 54 52 50 49 49 48 47 46 46 46 45 46 47 48 52 56 59 62 64 66 71 69 70 63 47 40
97 98 97 97 94 92 97 91 83 77 88 78 94 89 66 52 52 51 48 47 46 47 47 47 47 48 48 47 47 49 51 54 57 60 63 64 66 73 75 69 69 52 43 36
97 98 98 97 96 98 89 91 90 83 81 84 76 90 67 55 50 47 48 50 50 50 50 49 49 50 51 53 54 56 58 59 61 62 62 66 75 77 71 75 58 47 36 33
96 98 98 99 94 97 96 94 92 93 94 97 86 74 61 56 50 49 50 50 50 53 55 56 56 57 58 61 63 62 62 63 61 63 67 76 79 75 77 63 48 37 33 33
95 98 99 94 92 96 98 96 95 97 94 89 80 65 58 54 52 54 54 55 57 62 61 60 59 62 63 65 66 63 63 64 64 66 79 81 79 80 65 49 38 36 33 37
89 90 95 97 76 79 70 66 73 75 75 71 74 65 60 60 62 61 61 61 62 64 65 63 59 60 62 66 66 66 64 62 70 80 81 82 81 65 50 38 34 33 39 35
87 87 93 95 86 74 69 64 64 70 72 72 68 65 66 64 62 64 62 63 63 62 62 62 64 68 70 64 61 61 67 78 79 82 82 76 63 46 36 34 35 40 36 31
84 80 88 89 84 79 66 62 59 63 71 63 62 59 60 65 68 65 62 61 62 63 63 67 68 69 71 69 70 76 79 80 78 78 69 55 45 37 33 36 41 37 33 30
84 80 83 87 87 75 68 65 60 62 61 58 57 55 54 57 59 61 60 62 62 65 68 69 69 69 71 76 79 76 73 76 71 56 50 45 36 33 38 40 37 34 33 30
83 82 79 87 87 77 66 66 62 60 58 56 55 55 56 58 60 62 63 61 62 63 66 69 73 74 76 76 73 74 69 53 49 49 44 36 33 39 40 38 37 35 33 30
77 68 72 76 78 71 71 66 66 65 64 63 59 57 56 58 60 63 64 66 68 70 73 73 72 70 72 74 62 49 48 51 49 45 35 33 38 40 38 38 37 35 32 28
70 72 80 77 73 74 73 70 69 67 66 65 64 64 64 65 66 68 68 69 70 70 69 70 68 62 52 46 47 50 49 48 43 34 34 38 39 38 39 39 37 34 30 27
77 79 80 80 77 75 74 74 72 71 70 67 66 65 65 64 65 65 64 62 58 56 54 50 46 43 43 46 49 49 45 40 37 35 37 38 37 39 39 37 35 33 29 27
79 79 84 82 76 76 73 74 75 72 70 69 66 67 66 61 54 51 52 50 46 45 44 43 42 45 48 50 47 42 42 38 35 38 37 37 38 39 38 37 36 32 28 27

GFSCGP_prec_cthk_033.txt.gz
RH
54 58 58 56 60 61 61 64 64 61 57 56 53 53 46 44 44 40 38 37 36 36 38 42 42 39 37 39 40 33 32 37 43 54 56 58 62 64 66 61 59 55 53 49
60 60 58 59 61 66 69 69 67 61 59 56 50 45 43 41 38 40 37 33 34 36 36 40 44 40 37 41 42 37 31 32 36 41 49 55 60 61 60 57 53 57 45 34
65 57 57 64 68 72 71 70 70 65 58 53 54 39 32 30 33 33 32 31 30 32 34 39 43 42 38 40 43 39 33 32 33 37 46 53 56 59 61 57 55 46 36 39
72 68 69 70 72 78 76 70 72 70 75 73 54 54 35 31 29 30 29 29 31 31 33 37 42 43 40 41 45 42 36 36 38 41 44 48 53 56 58 55 45 40 43 45
73 73 73 76 73 79 77 79 83 84 82 77 57 68 41 33 28 28 34 31 28 29 32 34 42 45 43 44 47 47 43 43 42 47 51 53 55 56 51 42 41 45 48 48
72 70 69 66 68 75 82 89 92 97 91 92 64 69 42 32 28 27 29 32 30 32 32 35 43 46 45 45 51 51 48 45 47 48 48 48 47 44 40 41 45 49 51 50
70 63 62 65 64 66 74 97 97 98 98 82 69 73 43 30 29 29 29 32 34 35 33 35 42 48 46 49 57 57 54 49 46 44 43 43 41 40 43 46 49 52 52 51
66 61 59 63 62 64 67 86 95 96 91 83 70 72 42 32 24 22 27 35 37 37 35 37 46 49 46 50 57 60 60 56 47 41 40 40 41 45 47 50 52 54 52 51
69 63 56 61 64 74 81 86 70 93 95 97 75 50 37 34 31 27 31 32 35 37 38 41 49 49 48 51 56 60 62 59 48 40 41 42 44 48 50 54 56 55 55 53
62 72 62 71 88 83 85 76 93 95 93 95 74 68 42 33 26 17 20 36 41 42 43 46 52 51 50 53 58 61 60 53 46 43 43 44 48 51 54 57 59 61 57 57
70 80 79 91 93 92 96 97 84 80 89 89 79 52 45 42 28 21 26 38 44 48 51 53 52 51 54 55 56 57 55 51 47 45 46 47 51 54 58 61 64 64 62 61
81 90 92 89 92 87 88 92 92 85 73 68 80 53 45 50 36 34 38 48 50 55 56 54 54 55 57 56 56 56 52 47 47 48 49 52 56 58 63 66 68 66 66 63
90 95 94 94 97 98 97 97 97 88 72 66 64 39 41 46 42 34 49 60 61 62 57 54 54 55 55 52 51 50 47 48 50 52 53 55 60 64 68 69 68 71 70 59
90 97 97 94 92 98 98 96 89 90 80 63 55 46 48 48 56 55 60 64 65 63 59 53 51 51 51 51 49 48 49 51 52 53 57 62 65 68 68 69 73 75 65 61
94 95 98 97 96 97 98 95 90 80 66 74 65 72 68 66 70 71 74 68 63 62 59 56 54 53 53 52 51 51 52 54 56 59 63 66 68 67 70 74 80 72 66 51
97 96 98 97 95 97 95 95 91 86 78 78 87 79 71 75 75 73 72 63 59 57 56 55 53 54 55 56 56 57 58 60 62 64 67 69 68 69 77 83 79 70 53 39
98 98 98 97 99 98 98 95 86 87 83 78 93 80 76 70 65 62 65 61 57 56 56 58 60 62 62 63 63 64 65 67 68 69 69 68 70 81 85 81 72 53 37 35
95 98 99 99 94 97 88 87 91 91 92 93 92 87 78 72 68 66 65 60 59 62 66 67 68 68 67 67 68 70 70 70 70 67 66 74 85 86 82 71 49 36 36 35
86 94 98 98 98 84 73 89 92 93 95 94 90 81 73 73 68 65 63 62 64 67 70 70 70 69 69 70 71 72 72 66 64 70 81 85 85 80 67 42 37 36 36 40
84 91 92 90 93 86 73 65 72 84 91 83 87 85 75 70 72 70 69 68 69 69 69 68 70 72 75 78 77 74 70 70 78 82 82 81 77 52 41 37 36 37 42 39
90 88 88 89 85 80 73 72 68 70 72 73 72 72 67 68 72 69 66 64 65 66 68 69 72 75 76 76 75 76 80 82 81 80 78 60 47 42 37 35 39 42 39 37
80 85 85 84 89 77 71 67 63 63 63 63 62 62 62 62 65 67 67 66 66 67 69 71 72 72 75 78 79 80 78 76 76 59 51 50 43 36 35 41 41 40 39 36
80 75 75 72 80 71 72 69 69 67 65 64 61 62 59 59 61 63 64 67 66 65 67 71 75 78 78 76 75 77 71 55 52 53 49 42 33 37 41 41 42 40 37 33
74 72 71 69 67 73 72 70 69 67 67 64 62 58 56 58 61 63 64 66 68 70 72 74 74 73 70 68 60 51 52 52 52 48 38 33 38 40 41 42 41 38 35 31
70 71 73 76 76 81 75 74 73 70 70 68 67 66 65 65 67 67 68 69 70 70 66 62 61 59 53 49 49 52 53 51 44 37 37 37 39 41 42 41 40 38 34 28
75 76 79 81 76 74 72 75 75 73 72 72 70 69 69 68 66 66 66 61 56 54 53 50 49 48 47 50 52 52 47 42 41 37 36 40 41 42 41 40 40 36 30 26

GFSCGP_prec_cthk_036.txt.gz
RH
47 51 53 50 51 49 55 60 63 58 54 57 54 47 40 37 38 36 34 34 33 31 33 35 37 37 43 39 37 36 40 39 32 40 51 63 72 74 70 72 73 64 66 59
53 54 49 49 51 56 59 62 59 55 54 53 49 42 40 35 33 33 33 31 30 32 31 32 34 36 40 42 39 37 41 43 37 39 47 56 67 71 68 73 72 62 62 58
54 47 47 55 58 62 63 68 66 63 61 57 56 40 31 27 25 25 26 28 29 28 30 33 36 38 38 43 41 39 42 42 41 41 46 52 58 65 66 65 66 63 59 47
59 54 58 62 66 70 69 67 71 73 78 74 64 55 36 32 28 26 23 24 26 28 29 31 37 36 39 43 43 42 43 42 41 40 43 47 53 59 61 60 67 61 51 42
59 62 65 70 70 76 75 73 78 81 86 87 71 80 40 37 33 28 26 27 25 25 26 29 34 35 39 44 44 45 45 44 43 43 46 48 53 58 59 61 61 53 44 45
63 67 70 71 69 70 72 74 77 83 90 88 63 80 42 38 32 29 25 23 23 26 26 28 31 36 40 46 48 46 48 46 45 46 50 52 57 61 61 60 53 46 46 49
72 74 71 64 60 58 64 73 77 78 78 63 60 78 44 35 35 34 31 24 22 24 28 28 31 34 38 47 50 49 52 50 49 52 54 59 60 58 55 50 45 47 50 53
78 65 56 54 53 55 62 67 74 77 74 65 63 68 39 34 35 34 29 26 26 28 32 30 31 34 40 50 52 51 56 58 55 59 58 56 53 50 45 44 47 50 53 55
75 62 48 49 50 57 68 74 68 91 77 89 66 56 46 35 36 34 37 33 24 30 34 35 36 36 43 54 56 55 63 65 64 65 59 51 46 42 43 47 50 53 56 60
62 66 48 50 58 64 73 83 97 98 96 93 69 65 55 42 41 38 34 30 30 37 38 38 40 41 48 60 59 59 66 66 66 64 57 50 45 44 46 50 54 57 61 63
62 66 63 72 77 81 96 97 98 92 93 93 82 49 46 53 58 51 44 32 27 29 42 44 45 45 56 64 62 62 67 67 67 61 55 51 47 48 51 54 58 62 63 66
63 76 76 71 71 81 86 95 92 98 93 89 87 48 41 58 59 58 50 37 29 37 44 48 49 55 64 67 66 66 68 67 66 57 57 50 48 52 55 59 63 65 68 69
66 79 82 75 83 90 97 97 97 93 96 84 86 48 33 42 53 65 56 47 38 51 58 58 58 62 68 68 67 68 67 65 61 60 51 50 53 58 61 63 68 70 70 68
71 80 85 88 83 91 98 97 98 98 97 81 70 50 37 45 67 57 52 52 62 72 68 67 63 65 66 68 68 66 64 63 58 52 51 56 59 61 66 70 71 70 70 71
79 85 95 92 93 96 98 97 98 98 86 80 54 52 53 60 56 56 55 71 78 76 69 67 66 64 64 65 63 60 57 55 53 54 57 59 62 68 71 74 73 69 74 77
87 95 97 94 93 97 98 97 95 95 86 66 57 57 53 52 58 59 68 79 81 79 74 69 63 59 58 58 56 56 56 55 56 58 62 65 69 74 77 74 70 77 80 71
97 97 97 90 95 97 99 98 96 95 89 80 80 76 78 74 68 69 74 75 78 78 71 69 66 61 61 60 59 58 57 59 62 66 69 72 75 77 72 72 82 82 72 56
96 98 98 94 97 95 86 92 96 91 84 78 82 81 85 81 77 75 66 69 72 72 70 67 64 62 62 63 64 64 65 67 70 72 74 76 74 72 79 86 81 73 50 37
86 95 95 98 96 89 73 80 93 93 85 77 80 81 83 84 79 73 69 66 67 68 66 66 69 70 71 70 68 69 71 74 75 76 74 71 77 86 85 80 67 42 39 39
86 92 96 95 96 94 76 66 81 85 89 79 80 81 81 81 76 71 69 69 69 70 74 77 78 79 78 75 75 76 77 80 78 74 75 85 86 83 75 54 42 40 37 40
95 96 97 98 97 87 78 72 72 77 72 81 81 79 81 78 75 77 73 70 70 72 76 77 78 76 77 80 82 82 82 79 80 86 85 82 78 62 49 43 39 37 42 42
84 88 86 89 96 87 81 73 68 64 68 70 71 76 81 82 80 81 75 73 73 73 74 75 75 78 81 83 82 81 84 85 83 79 77 62 54 49 42 35 38 43 42 42
83 79 81 76 77 77 81 77 74 69 65 64 64 64 67 71 74 83 82 79 78 76 75 75 75 75 79 85 85 81 80 79 70 56 56 53 48 38 35 41 41 43 43 40
80 79 78 74 65 69 76 76 76 72 72 68 65 66 68 69 74 73 75 76 76 74 73 76 79 81 80 79 77 71 63 53 55 56 54 44 36 39 40 41 43 44 42 37
74 76 78 76 72 73 74 75 77 74 74 74 70 69 69 69 70 72 73 74 75 77 79 80 78 71 67 63 58 55 55 56 56 51 40 38 39 38 41 43 44 43 39 33
70 74 77 76 75 78 79 79 76 75 74 73 72 71 73 74 74 74 75 76 76 74 67 63 61 56 53 52 53 53 54 52 46 42 41 38 39 41 43 45 45 42 35 30

GFSCGP_prec_cthk_039.txt.gz
RH
50 50 49 46 47 47 51 55 54 48 46 47 42 37 34 33 33 33 32 30 30 30 30 33 32 36 38 39 41 45 42 38 38 40 39 42 51 63 71 76 80 82 80 74
52 51 46 47 49 51 52 55 53 49 47 49 46 36 34 31 28 28 26 26 27 26 29 31 32 34 37 38 38 42 44 41 41 41 42 41 49 60 74 81 81 84 82 71
51 45 44 49 53 56 57 59 58 58 54 52 50 36 28 26 26 27 27 28 26 23 24 26 31 32 33 36 36 40 45 44 42 44 45 47 51 62 71 78 82 83 78 64
55 50 52 56 59 60 62 58 61 65 70 65 58 50 33 30 28 28 27 26 28 25 23 23 26 32 33 33 35 40 44 46 45 47 47 49 48 57 63 65 72 75 70 62
54 56 60 62 59 63 63 63 67 70 75 76 65 77 34 36 33 31 32 30 26 25 24 23 24 28 32 34 36 40 44 47 46 49 50 52 53 58 64 70 69 68 69 56
58 58 60 60 63 66 67 70 69 68 69 68 46 61 32 27 23 24 27 31 31 26 25 25 25 28 33 37 38 42 45 47 49 48 50 53 55 60 61 64 68 61 65 54
62 61 63 66 70 66 64 68 68 68 71 58 44 58 32 22 22 23 26 30 33 31 25 27 32 31 34 39 40 42 46 49 52 50 50 54 59 62 62 67 69 69 56 49
67 65 65 63 55 50 55 58 62 67 66 57 56 53 36 31 31 26 26 27 36 36 30 30 31 34 36 39 39 42 50 54 56 54 53 57 62 63 68 66 62 57 50 52
74 69 59 53 50 53 59 66 55 70 65 80 57 47 38 32 34 31 38 31 36 34 33 29 37 36 38 39 41 46 53 57 60 60 57 63 66 69 64 58 51 47 52 56
70 75 52 51 56 55 63 67 83 92 95 93 70 64 46 40 36 36 39 37 40 34 30 34 34 38 39 42 43 47 54 59 66 67 67 71 72 67 62 53 49 52 56 59
74 68 54 60 65 65 79 89 97 97 97 92 81 57 46 43 38 47 52 49 47 41 32 32 41 40 41 43 47 54 60 64 69 72 73 71 66 63 58 55 54 57 61 64
75 67 66 58 58 67 76 83 92 97 95 95 91 60 53 50 51 56 69 59 56 48 36 38 42 46 46 49 54 61 68 71 72 75 72 67 63 59 61 58 58 62 64 67
68 72 73 64 72 83 92 87 89 97 97 94 96 56 53 52 52 56 69 71 64 57 46 45 48 50 55 58 63 70 75 73 73 75 70 65 62 64 63 59 64 66 68 72
64 76 76 80 71 80 96 98 98 96 90 83 86 59 57 54 58 64 69 74 73 60 51 53 51 56 62 65 70 78 77 77 77 74 70 65 66 66 61 65 68 71 74 77
71 79 85 87 88 93 97 97 98 94 79 81 64 65 55 55 67 71 71 78 74 63 65 68 64 64 69 73 79 81 82 80 77 72 68 68 64 62 66 71 75 78 80 79
80 88 91 92 88 92 98 97 98 85 74 76 70 69 63 59 66 75 77 77 70 71 78 71 73 75 77 79 82 83 81 78 73 71 66 60 63 69 74 78 81 82 80 73
85 93 94 87 81 87 88 97 98 88 77 73 78 71 67 68 67 74 77 83 85 82 74 74 76 79 80 82 81 79 74 69 64 61 62 66 71 76 80 83 83 76 77 80
88 93 95 87 88 89 79 89 95 89 78 71 70 71 72 75 70 74 84 83 82 78 74 72 72 71 69 68 66 65 63 61 61 65 70 74 78 81 83 80 76 84 82 68
84 92 93 93 93 82 75 79 94 92 80 81 77 66 67 66 65 69 77 79 83 83 77 75 71 69 69 69 67 68 68 68 70 73 76 79 82 82 78 82 88 80 60 42
86 88 91 93 95 92 77 75 84 90 86 88 84 79 75 76 77 74 76 76 77 78 76 73 73 74 76 76 75 73 73 74 76 79 82 83 80 82 89 84 71 47 41 41
92 91 91 93 96 83 79 73 78 87 88 84 89 88 86 85 83 79 80 80 80 80 81 82 83 85 85 82 79 78 81 83 84 84 82 85 89 84 74 54 43 40 38 40
87 90 89 88 91 88 77 72 71 73 77 83 82 83 87 86 85 82 79 79 80 82 84 84 83 83 83 84 85 85 84 83 83 86 85 81 72 54 49 43 38 38 43 43
84 78 83 78 74 67 74 76 76 71 71 71 71 79 85 85 87 84 81 80 82 83 83 83 83 83 84 84 84 85 88 85 81 77 64 54 53 50 41 36 40 43 43 45
79 82 81 77 70 66 66 74 77 74 74 67 67 69 71 76 80 81 85 83 81 81 83 82 81 83 85 87 86 83 77 70 61 57 56 53 47 38 38 42 40 44 46 42
76 80 79 79 71 71 70 73 77 75 78 71 68 67 70 71 74 74 78 80 81 81 83 86 87 87 81 74 71 66 60 57 55 54 50 43 40 41 40 41 45 47 43 38
71 70 76 77 72 72 75 78 80 76 76 75 73 72 72 72 74 76 80 82 83 84 86 81 75 71 67 63 60 58 55 53 51 45 43 41 40 39 42 46 48 45 38 32

GFSCGP_prec_cthk_042.txt.gz
RH
49 49 45 41 42 42 41 43 43 39 36 35 29 27 28 26 27 26 28 30 28 27 28 29 30 30 34 34 35 39 42 49 48 43 49 51 54 53 47 57 65 76 83 85
52 49 41 41 42 45 47 45 41 39 36 37 34 24 27 26 25 25 25 24 25 24 24 25 27 28 30 33 33 36 38 43 48 47 46 49 49 52 53 57 68 80 84 86
44 42 40 45 47 49 48 47 44 44 44 43 41 28 24 22 21 22 23 22 23 24 26 25 23 26 29 31 32 34 36 39 43 48 50 48 48 53 55 56 64 77 88 91
48 46 46 48 48 48 49 47 50 52 54 53 49 39 26 24 22 22 22 23 23 24 25 27 25 24 27 30 32 32 34 37 39 45 48 48 49 53 59 61 62 75 84 90
49 50 53 54 49 52 53 53 55 57 60 59 52 65 22 20 20 19 20 21 25 26 27 27 28 23 26 30 31 31 32 35 37 43 49 53 56 60 63 67 73 75 77 78
48 51 52 52 54 57 59 60 61 62 67 62 38 50 21 15 15 17 18 20 22 24 29 29 27 29 24 28 33 34 32 35 37 40 47 55 60 60 64 70 73 77 78 75
57 57 57 59 60 62 66 71 65 63 65 47 33 38 25 19 22 23 23 24 21 22 27 32 31 29 28 27 31 35 35 36 38 42 46 53 59 67 72 75 74 73 73 62
59 57 57 60 60 59 64 59 49 50 45 33 45 41 25 28 30 29 33 32 27 24 24 31 34 32 31 30 31 36 39 40 43 45 50 56 58 64 68 73 73 70 69 79
60 62 55 57 58 54 55 60 50 61 55 61 45 37 34 39 36 36 38 36 33 27 25 27 32 33 33 35 34 38 43 46 49 50 54 60 61 63 69 70 71 71 64 59
62 68 56 60 57 52 54 54 67 76 78 72 55 51 48 50 50 50 45 43 33 31 31 30 31 36 39 39 40 45 48 52 53 54 56 63 66 67 69 76 78 75 68 59
64 64 66 60 54 50 65 73 78 83 86 81 77 49 55 56 58 57 55 49 43 39 39 34 37 41 45 43 45 48 52 55 56 60 61 67 68 70 79 81 80 69 64 64
64 70 72 55 50 53 57 70 81 96 90 93 89 53 63 64 69 62 61 57 56 48 46 46 47 48 49 47 48 50 54 59 63 67 66 71 75 77 80 76 68 66 69 67
70 79 67 57 68 70 81 81 84 94 94 88 92 60 64 68 73 67 61 51 48 55 55 58 52 53 53 50 52 56 59 66 70 70 70 80 77 79 73 69 66 69 72 67
76 72 65 64 59 72 92 94 96 98 95 79 71 55 59 65 71 66 56 51 65 71 68 65 60 60 56 55 54 60 66 71 74 78 82 82 77 73 68 68 70 74 69 71
73 72 70 74 78 80 88 92 96 98 94 83 53 62 57 54 55 59 66 74 76 80 77 71 67 62 60 60 63 65 71 75 80 82 83 79 73 70 72 72 75 70 72 76
69 74 78 86 76 81 88 93 97 96 91 82 73 67 61 60 64 73 80 81 83 77 76 71 71 63 65 70 71 73 77 82 83 86 82 78 73 76 74 75 70 74 78 81
76 83 88 84 77 80 88 93 97 93 82 72 77 70 72 76 83 86 82 78 74 75 75 78 71 70 76 78 79 82 85 86 88 87 82 77 78 76 71 73 77 81 83 85
84 83 91 88 82 81 74 87 93 90 77 72 71 70 75 76 76 78 79 76 84 89 85 82 81 83 87 90 91 91 91 91 87 81 80 74 70 73 78 82 83 85 84 76
80 83 92 91 86 70 74 81 88 91 83 75 72 69 75 72 82 97 93 95 93 90 88 90 92 93 92 93 91 89 86 83 77 71 70 72 80 83 84 85 87 84 82 73
78 87 91 87 89 79 73 77 83 89 94 84 76 73 71 72 75 90 92 93 88 85 85 84 83 83 84 81 78 76 73 72 72 77 80 82 84 88 88 87 89 81 62 43
88 94 91 89 91 77 73 74 81 86 94 89 91 87 81 83 80 82 87 88 88 86 84 82 81 81 80 79 78 78 79 80 81 83 86 89 88 88 92 85 68 44 40 41
88 92 90 89 92 86 75 77 76 76 82 85 92 91 93 91 86 86 91 90 88 89 88 88 88 88 89 88 84 83 85 87 88 88 87 90 90 83 66 48 42 41 39 41
82 78 74 72 66 61 72 77 79 79 77 76 78 89 93 92 92 88 88 88 89 89 90 91 89 88 84 84 86 88 87 86 88 88 83 75 61 51 50 42 38 40 43 43
80 78 75 75 66 66 63 73 76 80 76 73 72 75 84 89 91 89 87 90 89 89 87 84 83 82 83 85 87 87 85 80 75 70 59 53 51 45 38 39 43 42 43 41
74 78 75 73 68 65 68 74 75 76 79 74 70 70 72 78 85 87 88 86 88 85 85 86 85 86 86 82 74 71 69 64 58 56 53 48 41 38 42 41 41 44 43 38
70 69 68 68 72 69 72 80 79 78 78 77 75 75 76 77 79 82 84 83 85 87 88 88 85 77 72 69 66 65 61 57 54 50 43 39 41 42 40 42 46 44 38 35

GFSCGP_prec_cthk_045.txt.gz
RH
59 57 52 45 42 41 41 38 38 35 32 30 28 26 24 22 20 20 21 22 22 24 27 26 27 28 29 32 35 36 37 40 45 49 54 55 58 58 66 70 67 63 58 59
58 53 45 45 44 42 41 38 35 31 30 31 28 22 22 19 17 18 18 19 19 20 22 25 26 27 27 29 34 35 37 37 39 44 49 57 60 55 58 61 65 67 67 72
53 46 44 45 45 43 40 38 37 38 36 33 32 24 18 17 18 18 18 18 20 21 22 23 24 27 26 27 29 33 37 37 37 41 47 55 52 54 55 58 59 64 67 76
51 46 42 42 44 42 42 39 39 40 42 44 39 38 22 19 19 20 19 18 20 22 23 23 23 24 25 26 29 29 34 39 40 42 43 44 43 48 50 56 61 67 73 70
52 47 48 47 43 44 46 44 44 45 50 55 44 53 22 19 16 16 18 18 18 19 21 24 24 25 25 27 29 33 33 36 40 42 42 42 44 47 51 56 60 67 71 79
52 48 48 47 46 47 48 49 51 55 60 64 41 43 21 17 17 17 16 17 18 18 19 20 21 25 27 27 29 34 37 36 38 40 40 43 46 43 49 58 62 69 74 79
52 49 47 47 50 51 56 61 64 69 68 50 29 31 26 18 19 23 26 28 25 22 21 20 21 22 26 28 28 36 38 40 40 37 40 45 47 45 50 58 67 72 82 83
56 60 51 56 55 58 60 61 57 60 47 38 35 34 23 23 26 31 34 35 32 30 30 30 25 20 24 30 31 34 42 42 41 41 42 48 47 48 52 62 72 74 76 76
56 59 53 57 57 55 62 66 49 59 48 48 32 25 26 32 36 37 37 38 39 40 41 38 30 25 25 30 35 37 41 46 45 46 46 46 50 52 56 63 72 72 73 73
58 66 54 56 58 57 54 52 63 68 67 56 35 37 44 48 50 50 46 43 44 48 46 40 33 28 27 30 38 45 43 47 50 52 50 50 53 59 63 71 71 75 72 79
58 57 59 59 62 55 57 58 59 59 67 67 63 44 51 54 54 47 44 46 52 55 54 48 40 34 32 36 42 52 48 49 54 55 52 54 59 64 68 71 76 71 77 81
58 60 62 65 58 51 51 61 68 84 77 84 81 51 57 58 53 48 47 50 58 65 62 57 48 44 42 47 49 60 53 52 56 59 60 62 66 69 71 75 72 79 79 83
58 64 67 70 56 56 64 71 78 85 89 86 93 57 60 57 60 54 53 53 60 59 62 57 57 52 52 60 62 64 57 57 60 66 68 69 70 70 73 80 87 83 83 74
60 62 72 61 62 65 88 82 85 98 94 77 73 67 59 62 61 63 60 63 62 62 67 56 57 58 61 70 68 64 63 65 67 71 73 74 72 77 81 82 82 81 73 72
65 76 64 58 67 74 79 83 86 97 96 92 67 78 66 71 72 74 71 71 67 68 69 64 63 61 68 70 69 65 69 70 74 79 80 78 79 77 82 83 79 74 73 75
72 71 63 77 75 75 79 80 83 90 94 86 82 75 66 69 70 79 82 78 80 83 84 81 72 66 62 70 69 70 76 78 82 82 83 83 82 81 81 76 73 75 77 79
77 74 76 74 70 67 81 81 88 94 83 80 78 68 70 71 86 93 94 94 91 89 87 76 73 66 73 73 73 76 81 84 87 87 85 84 80 82 78 76 77 82 80 75
73 74 82 80 69 80 69 74 83 89 84 76 76 72 72 79 84 87 90 90 87 84 83 81 80 75 78 76 75 77 81 81 82 80 85 85 83 83 81 86 81 76 80 85
74 86 83 81 75 66 66 75 78 91 92 89 80 73 72 72 86 89 91 86 84 80 79 80 78 80 84 82 83 85 81 80 83 85 84 88 85 86 79 74 80 88 89 86
76 83 87 80 85 76 73 76 80 89 98 86 86 80 73 79 97 98 98 96 92 87 90 87 88 92 90 89 90 92 90 92 95 92 85 77 73 73 83 87 94 90 84 72
83 86 87 86 86 71 71 78 81 83 90 87 93 86 86 78 88 96 96 90 91 94 95 96 96 98 98 97 95 94 90 83 78 73 72 79 85 87 92 95 88 77 55 41
79 85 89 93 93 82 75 80 82 82 86 85 94 92 93 87 88 91 93 91 89 87 86 86 87 88 86 84 83 80 78 76 80 85 87 90 93 97 90 76 56 42 41 39
71 74 84 72 67 64 65 74 80 81 81 81 80 90 96 93 93 94 93 94 93 91 88 86 86 85 84 88 90 90 89 88 90 92 95 94 85 71 55 45 40 37 39 43
69 73 72 72 70 70 69 69 76 79 83 79 78 82 94 95 92 91 90 92 94 93 94 94 93 93 92 90 87 87 90 91 87 82 77 68 53 49 42 36 37 41 42 40
71 76 74 73 70 72 71 72 76 77 78 81 76 76 85 94 95 93 95 92 92 92 90 88 88 88 87 85 79 77 77 75 73 64 57 52 45 39 37 40 41 42 42 39
68 68 70 69 71 73 71 74 80 81 79 83 78 76 79 86 91 93 92 90 89 88 89 90 89 84 77 77 77 75 72 65 58 55 50 43 39 41 41 40 43 42 37 34

GFSCGP_prec_cthk_048.txt.gz
RH
78 73 69 62 59 55 52 51 50 43 40 37 34 30 25 23 22 21 21 22 22 23 23 24 24 25 24 28 32 36 35 37 38 40 44 44 50 59 61 62 62 61 64 66
70 69 63 55 55 53 48 51 49 41 35 33 30 25 21 18 16 15 15 15 16 17 18 20 22 24 25 25 28 31 36 35 35 36 39 45 52 54 58 62 63 63 65 69
70 62 53 54 51 51 49 48 43 40 35 33 30 24 19 17 16 15 15 16 17 17 17 17 18 20 23 25 26 29 33 37 39 37 43 47 49 51 53 59 62 62 65 65
65 61 53 51 50 46 46 42 40 38 40 45 37 45 21 16 15 16 16 16 17 18 18 19 19 20 20 22 26 28 33 36 41 42 44 44 45 47 48 52 56 60 64 68
62 54 54 50 45 44 44 42 41 44 45 47 37 46 25 17 17 16 17 17 16 16 15 16 18 20 23 24 25 26 29 34 37 40 44 45 45 46 47 51 53 56 64 70
58 50 48 47 44 43 46 46 46 48 50 57 41 42 29 20 18 17 16 16 16 16 17 16 17 17 18 21 25 28 31 33 39 42 43 44 42 44 47 49 53 55 61 71
52 51 47 46 47 47 50 52 64 69 69 58 32 42 29 19 19 18 19 19 23 24 23 22 21 19 18 18 21 27 31 37 40 48 48 47 43 45 48 47 51 53 60 68
57 58 49 47 48 55 57 58 67 63 63 51 39 38 24 18 19 23 27 29 31 32 33 31 32 29 27 23 20 22 28 41 46 46 52 52 47 48 47 48 53 55 63 69
57 60 52 53 54 56 62 66 53 60 49 57 36 23 22 25 28 34 36 38 40 42 40 37 36 37 36 31 27 25 27 41 48 49 55 55 52 47 46 50 57 62 67 73
55 65 55 61 58 59 59 52 63 66 67 61 41 35 38 42 45 45 47 50 52 50 45 38 34 34 31 33 33 28 31 39 48 52 55 56 55 53 52 56 60 65 72 75
55 58 63 63 63 61 61 63 57 57 60 71 68 51 48 51 54 55 56 56 54 52 48 41 36 36 35 37 41 36 37 43 53 54 55 59 57 55 59 62 68 72 74 76
63 65 72 63 57 56 59 55 57 66 70 78 83 62 53 56 56 56 54 55 55 52 49 44 47 50 47 50 48 50 50 50 58 54 59 63 63 63 68 71 72 76 77 78
63 67 63 64 62 56 56 56 61 72 82 80 88 65 59 50 57 64 68 66 62 59 63 58 54 61 64 66 64 65 71 59 58 58 66 70 70 73 75 76 81 77 83 80
59 63 67 76 66 66 67 65 73 85 91 80 74 67 56 57 64 67 70 80 78 72 72 74 67 63 66 70 73 83 75 63 62 63 70 75 78 78 80 83 80 83 78 83
62 69 65 64 62 56 63 76 83 90 85 91 69 68 63 70 68 72 80 87 88 84 79 84 70 63 65 77 80 81 72 72 68 70 76 81 81 82 84 82 78 84 84 85
65 71 66 67 53 58 77 76 80 81 85 91 82 72 71 64 72 74 83 89 94 93 87 80 69 65 64 70 70 76 77 77 73 79 83 84 88 85 81 85 84 80 87 87
70 70 74 64 60 71 79 75 77 83 91 89 87 77 71 67 72 81 84 87 88 86 84 74 74 75 71 70 77 85 83 78 81 83 86 88 89 87 85 80 81 87 82 83
69 73 72 72 70 85 68 71 77 80 86 90 88 78 70 69 84 88 85 87 88 82 79 79 77 77 75 81 89 84 79 86 87 87 87 89 89 90 85 81 85 83 84 89
70 80 76 77 73 68 71 77 77 84 87 92 86 87 80 80 93 87 83 81 85 85 80 80 79 78 84 84 83 79 87 88 86 83 85 85 87 88 86 85 88 90 87 83
77 77 83 87 84 79 72 75 79 85 97 88 90 91 84 83 95 95 90 92 85 82 81 80 78 81 82 82 81 85 86 88 89 88 86 90 93 94 94 88 86 87 92 88
80 77 85 86 86 75 66 77 83 94 88 88 91 95 90 87 91 96 94 92 94 94 88 88 90 91 91 91 93 89 96 88 96 96 97 97 92 83 81 94 96 91 77 57
71 83 85 86 90 88 73 75 83 82 85 87 87 89 92 92 90 92 92 94 96 94 95 96 98 99 98 96 98 98 98 98 95 88 81 80 85 96 98 91 74 54 42 40
72 74 80 82 76 64 66 68 72 79 81 85 81 85 93 96 93 93 91 89 87 87 89 89 87 88 92 95 94 88 82 82 81 87 95 97 96 84 68 52 41 38 37 40
74 69 80 80 73 74 72 72 74 78 78 82 82 81 95 95 96 96 96 94 95 92 91 90 87 85 86 89 90 93 95 96 95 91 87 78 64 51 43 38 36 39 42 39
73 70 77 77 72 73 74 76 73 79 80 80 82 79 89 92 92 92 96 96 95 94 93 94 94 94 93 90 89 86 84 81 78 72 63 54 49 40 37 40 42 41 41 37
64 69 78 77 75 73 72 73 71 80 83 82 83 81 84 95 95 93 95 94 91 89 91 92 91 86 79 72 73 73 72 69 62 57 52 45 40 40 42 41 44 40 35 32

GFSCGP_prec_cthk_051.txt.gz
RH
69 72 73 68 63 62 56 54 52 47 44 40 38 36 31 28 26 24 24 23 22 22 21 22 23 23 22 21 26 33 34 38 42 42 41 39 45 50 47 55 56 58 58 60
75 74 70 69 66 65 62 58 54 50 45 41 37 32 28 22 20 17 17 16 16 17 18 19 21 22 23 23 24 27 34 39 42 42 41 41 42 50 50 56 62 58 56 60
75 69 69 69 68 63 59 57 55 51 44 39 34 27 22 19 18 17 15 15 15 14 14 15 15 18 21 22 24 26 30 36 42 43 39 43 47 54 53 56 62 58 54 58
71 67 63 65 66 59 58 52 49 47 45 47 37 47 28 18 16 15 15 15 15 15 15 16 16 17 18 21 23 27 29 33 38 45 43 38 39 43 51 47 56 59 59 60
68 67 64 63 59 58 56 50 48 45 45 47 40 44 27 21 17 16 15 14 15 15 16 16 16 17 19 21 22 23 27 32 36 43 45 44 43 47 51 54 60 61 62 62
65 63 64 61 55 54 50 47 45 46 49 57 40 40 30 22 18 16 15 15 14 16 16 16 18 17 17 19 21 24 25 27 30 37 39 43 42 46 52 60 60 60 59 61
63 63 58 54 54 51 49 50 61 60 63 56 40 46 32 24 20 18 17 17 19 20 20 21 20 21 21 19 19 20 22 25 32 34 33 41 46 46 48 57 63 61 61 61
69 68 56 50 52 52 53 50 60 66 67 57 41 46 28 20 20 22 24 27 29 29 30 31 29 28 28 28 27 23 21 21 24 34 34 37 42 47 51 58 63 64 66 66
63 62 54 52 50 51 57 61 56 62 57 62 44 30 20 23 29 32 33 34 36 37 38 39 39 38 40 39 36 33 30 26 23 27 36 40 48 52 57 62 69 72 70 68
56 65 57 58 55 56 59 54 65 66 60 62 47 37 32 37 41 42 43 43 44 45 45 43 40 43 45 42 39 34 35 33 29 30 39 42 58 70 60 67 71 69 66 66
53 55 68 64 63 60 63 64 59 58 60 63 65 47 43 45 47 51 48 49 52 55 57 56 51 48 45 38 34 31 36 39 38 38 39 53 60 73 64 72 69 68 69 71
53 58 70 66 58 57 59 62 58 64 56 66 72 61 50 53 54 48 47 54 58 59 60 60 57 56 50 37 35 41 43 41 40 44 49 54 72 67 65 73 74 73 74 75
56 64 66 67 61 59 62 61 59 61 68 73 81 68 53 53 49 50 59 61 64 71 77 70 68 60 56 48 43 47 49 48 47 56 63 59 63 59 73 77 75 76 80 82
60 65 65 68 63 61 63 60 63 69 86 77 74 67 53 54 52 56 62 68 76 78 81 86 82 73 67 62 51 54 61 63 60 67 67 60 63 79 81 82 81 83 80 86
64 69 65 64 64 63 67 65 69 77 76 84 63 72 59 63 68 64 70 78 82 87 92 94 94 86 75 60 62 67 77 80 78 79 75 68 82 86 86 84 85 80 89 90
64 68 66 66 57 59 60 61 76 77 79 76 78 74 78 75 70 79 84 82 84 92 82 89 86 81 71 67 69 79 88 94 91 82 71 79 87 90 88 85 84 90 86 82
66 68 71 67 57 58 69 78 78 80 79 79 88 80 76 75 78 84 84 82 83 83 76 74 73 72 70 71 73 86 94 93 88 80 73 83 81 84 81 85 96 87 80 85
69 70 72 70 66 71 64 71 76 80 81 85 88 82 81 82 87 87 83 82 81 79 77 68 66 67 70 70 75 85 91 88 84 81 81 78 82 91 96 94 83 85 88 87
69 75 77 74 73 66 74 76 78 82 87 87 86 83 84 86 89 92 88 90 85 80 85 80 78 76 78 81 89 91 88 86 86 86 84 91 98 92 85 86 89 92 91 94
75 74 82 77 85 84 78 73 80 85 92 84 85 90 87 84 88 92 92 89 87 79 76 74 79 83 86 89 90 87 87 86 95 96 98 95 88 88 90 91 96 98 94 91
79 81 79 76 86 76 67 75 81 88 81 81 83 86 90 89 90 91 93 95 90 86 87 84 84 82 81 85 85 90 95 98 97 94 92 97 98 98 98 98 97 95 89 76
78 81 79 82 88 86 75 75 78 76 79 78 80 82 87 89 88 88 92 91 95 96 91 97 96 96 92 98 95 98 98 95 98 96 96 98 97 96 94 93 86 69 50 39
78 70 80 82 79 71 67 72 72 72 76 76 79 79 88 91 88 89 89 90 90 92 90 91 95 98 98 98 98 97 98 98 98 96 91 92 97 97 82 59 42 37 37 38
74 73 79 86 79 75 75 75 76 73 74 75 76 81 89 91 92 89 89 90 90 92 93 95 94 93 92 93 93 94 92 90 91 96 94 89 70 52 42 38 36 37 42 38
76 76 76 82 80 76 77 78 77 71 75 80 79 80 85 96 93 91 90 92 89 89 90 93 95 95 95 95 96 96 94 90 83 71 58 53 48 41 36 37 42 42 39 38
72 73 77 81 81 80 78 73 68 69 76 81 81 82 85 92 97 94 97 94 91 89 89 90 92 92 89 83 82 79 74 67 63 61 54 45 39 39 42 44 42 39 35 31

GFSCGP_prec_cthk_054.txt.gz
RH
78 77 79 85 81 71 63 56 55 45 41 38 36 36 29 28 29 26 24 23 23 22 19 18 18 19 21 24 28 30 32 35 39 50 58 58 58 58 55 52 54 51 49 53
78 77 70 68 70 67 64 66 56 47 44 42 38 36 30 28 27 24 21 21 21 21 21 21 22 21 20 19 20 21 26 33 33 38 42 43 49 53 57 56 60 61 53 55
74 69 70 66 62 65 61 58 54 53 49 46 42 32 27 21 19 18 17 16 17 15 15 16 19 21 22 24 24 24 23 26 32 34 45 48 54 54 57 58 63 61 58 59
76 69 72 69 68 64 65 57 56 54 51 52 40 44 28 22 20 18 18 17 17 16 16 15 15 14 16 19 21 22 23 24 28 31 33 43 47 46 47 54 56 56 58 59
83 75 70 71 68 64 62 55 54 52 53 51 43 46 28 22 19 17 17 17 15 14 15 15 14 15 16 17 18 21 23 24 27 28 31 37 43 49 46 48 53 57 63 70
71 69 70 66 61 61 58 57 56 55 54 57 42 43 31 25 21 18 17 16 14 13 15 15 15 15 15 16 18 21 22 25 28 30 31 33 38 49 51 52 54 55 60 67
73 72 70 68 64 59 56 58 64 62 64 50 42 50 35 25 22 21 19 18 18 19 19 19 18 18 18 20 19 19 20 22 25 27 30 32 34 41 48 52 54 59 62 69
74 80 67 62 60 59 55 54 58 55 65 58 43 47 31 25 21 22 25 26 26 26 27 27 27 27 27 27 26 23 24 20 20 23 26 28 35 38 45 53 55 59 63 65
66 67 63 58 54 51 55 58 50 59 58 63 47 35 24 26 31 32 33 34 34 34 33 32 32 35 37 37 38 37 35 33 30 24 20 23 29 37 41 47 55 65 64 63
56 69 61 57 53 51 51 52 62 64 54 58 45 41 32 33 38 39 42 41 41 37 36 37 38 39 40 40 42 43 46 41 36 32 29 25 23 30 39 46 55 65 67 71
53 56 69 60 58 59 61 63 61 60 61 62 62 39 35 41 43 47 50 50 49 47 46 45 45 45 46 46 48 49 46 43 40 39 38 34 30 33 39 58 62 75 71 75
51 56 69 65 59 58 61 63 60 64 55 65 64 55 48 50 51 52 49 49 49 52 54 57 58 59 56 59 58 58 54 44 38 40 44 43 44 48 51 62 69 81 78 83
49 55 65 65 62 61 62 60 61 61 63 66 71 64 53 56 56 56 57 56 56 58 62 70 74 72 68 68 73 63 56 45 42 39 41 48 65 70 69 69 80 78 86 88
50 56 61 65 61 60 63 61 62 64 72 69 76 60 63 62 59 57 63 66 72 71 72 71 70 72 82 88 80 71 60 52 54 55 52 57 73 77 72 80 80 77 91 86
59 68 68 66 64 63 61 62 62 64 68 77 67 67 64 66 66 68 71 76 75 70 75 73 62 66 84 95 88 77 66 63 69 78 73 71 82 83 73 64 68 89 86 82
67 71 66 67 60 61 64 62 60 67 73 73 71 74 69 68 71 78 82 78 77 76 75 66 61 63 73 86 84 67 62 64 79 85 85 78 79 76 65 66 80 86 83 78
68 70 72 68 62 59 66 58 68 74 77 75 81 76 73 74 81 86 82 82 79 75 76 68 61 62 65 64 65 66 71 80 84 88 84 85 87 69 75 81 86 83 85 90
68 67 73 74 66 71 52 60 71 78 78 83 84 83 77 82 87 83 83 82 79 75 75 75 65 60 63 63 69 77 90 95 97 91 95 89 74 81 89 90 86 95 95 93
64 68 75 73 75 59 61 76 80 83 84 86 86 86 85 83 85 85 85 83 79 74 78 75 78 75 70 72 74 81 89 95 98 93 86 75 84 90 90 92 98 95 98 95
73 73 77 77 79 73 75 76 77 83 92 84 85 86 87 86 86 86 85 86 81 77 77 78 79 82 85 82 86 84 82 82 79 76 80 89 98 98 98 97 98 97 98 98
81 80 78 78 76 72 71 72 80 86 80 81 82 84 84 87 85 85 86 84 86 81 83 80 78 78 78 84 88 90 90 93 97 98 97 98 98 98 96 98 98 98 95 85
78 79 81 77 81 84 74 79 78 73 77 79 79 83 84 86 85 85 87 83 84 82 82 87 86 89 90 92 90 97 97 96 97 97 98 98 98 97 97 97 93 78 61 54
79 73 77 74 77 72 78 70 73 74 75 76 77 80 83 90 90 88 88 89 86 86 84 86 89 90 93 96 95 97 95 96 97 97 97 97 97 96 83 63 50 42 40 41
73 73 75 78 81 80 74 74 74 78 74 76 82 82 85 90 92 90 90 91 90 89 89 89 89 89 92 94 94 96 95 95 96 97 97 90 67 53 44 39 38 37 38 38
78 77 77 77 81 80 78 78 80 74 69 75 82 83 85 92 94 92 93 94 91 90 90 91 92 93 93 94 95 94 91 86 77 65 53 48 45 40 37 38 41 41 37 35
70 70 75 78 81 83 83 79 76 69 70 77 83 86 87 92 96 94 94 94 94 93 93 92 91 91 87 79 74 70 67 66 65 55 50 46 43 41 41 40 39 36 33 30

GFSCGP_prec_cthk_057.txt.gz
RH
91 90 86 96 81 71 70 65 58 48 41 38 35 35 27 25 26 26 23 21 20 19 17 19 20 19 22 23 27 34 35 32 32 33 43 53 56 59 60 60 54 48 53 57
85 97 95 86 95 94 79 73 66 54 46 42 38 37 28 25 25 25 25 23 22 22 21 22 23 23 21 18 19 27 33 35 34 32 33 39 45 52 60 65 67 65 60 62
78 78 83 87 90 91 86 74 63 55 48 45 42 35 29 24 23 21 20 20 19 18 17 18 20 22 22 20 19 21 25 31 35 34 34 36 42 49 50 53 60 62 63 66
83 72 75 75 68 70 72 56 54 54 53 56 47 46 31 23 21 20 21 20 17 16 16 17 16 16 17 21 24 25 25 25 26 29 31 33 34 38 49 66 63 61 58 61
86 77 73 71 63 58 60 57 58 58 60 55 49 50 29 23 21 20 19 20 17 16 15 17 17 16 16 16 15 20 23 24 26 25 26 26 31 35 38 43 55 59 56 58
84 71 68 68 68 67 65 63 62 61 56 59 45 43 28 25 23 22 22 20 19 18 17 17 16 16 15 15 16 17 18 20 23 24 25 26 29 34 44 48 60 64 65 60
84 83 76 72 72 68 66 68 68 60 64 53 48 49 33 27 26 24 22 22 21 20 19 18 17 17 16 17 17 17 16 18 21 23 25 27 29 32 39 43 53 57 62 57
84 83 75 74 70 71 68 63 61 51 64 58 50 52 34 27 24 23 25 26 26 26 27 28 27 25 25 24 23 22 21 20 19 19 20 24 29 31 34 40 45 51 62 63
74 76 72 69 67 67 68 66 56 61 58 62 48 39 28 29 28 30 32 33 33 33 34 33 33 31 31 30 30 31 32 32 31 26 25 23 22 23 29 34 41 44 52 67
63 78 70 68 67 64 57 55 59 60 55 51 41 42 31 32 37 38 39 38 38 40 41 38 35 35 35 36 35 36 36 36 38 41 39 35 30 26 24 25 34 40 48 55
62 65 78 69 65 63 60 60 56 57 59 58 59 33 36 37 43 44 44 47 49 48 47 43 41 41 43 40 40 42 44 43 43 43 45 44 41 36 33 28 27 39 49 53
60 65 74 66 60 57 56 57 56 62 59 67 64 47 40 48 50 53 56 54 55 55 52 48 49 52 54 54 55 56 56 53 49 51 52 47 44 44 44 41 37 41 50 63
57 60 69 68 61 60 61 61 59 60 61 66 64 50 52 52 54 59 58 57 60 58 58 61 58 59 60 56 52 53 56 59 59 62 58 57 54 50 51 57 58 58 56 71
52 55 56 59 55 60 65 62 61 61 68 63 62 58 57 56 61 62 63 68 69 63 64 61 61 57 48 50 56 60 69 77 74 72 63 65 66 61 60 69 75 75 69 75
54 59 60 60 62 62 62 60 63 61 60 62 64 67 65 65 64 65 67 71 72 66 66 65 63 53 50 55 64 73 79 81 77 75 70 72 71 71 74 82 89 89 80 81
54 68 68 67 62 62 63 62 61 61 61 73 73 73 67 70 68 71 76 74 75 73 64 68 61 54 50 61 64 69 75 77 67 70 79 86 88 84 82 86 88 84 85 81
66 72 73 71 63 59 59 54 55 59 68 74 80 73 73 74 73 80 78 79 75 70 69 70 66 63 57 57 62 65 68 67 69 71 83 85 90 90 86 82 87 78 69 64
71 71 69 71 67 70 50 52 61 73 76 78 79 79 80 79 80 81 80 79 75 72 71 72 71 71 68 64 67 72 76 87 87 85 91 88 84 89 91 80 79 71 72 89
65 65 71 74 76 61 58 68 76 83 82 83 82 83 83 83 81 82 82 81 78 76 76 76 74 76 76 76 73 77 80 89 95 95 97 93 95 92 90 82 84 88 97 95
68 70 74 75 77 69 62 73 76 83 91 84 84 85 87 88 89 86 83 81 79 76 79 74 74 73 77 78 84 84 85 86 90 94 92 89 84 79 82 89 98 98 95 98
79 78 77 73 72 63 65 74 80 87 85 84 86 85 85 87 87 85 82 78 77 76 78 76 78 78 79 82 84 85 86 89 88 82 80 82 82 92 97 97 98 98 98 95
75 77 79 79 78 73 70 80 86 79 79 82 82 80 83 86 87 88 82 80 77 78 78 78 78 79 82 82 86 89 92 93 94 97 97 97 98 98 98 98 97 85 66 56
77 69 73 72 71 64 78 82 73 73 75 77 77 82 83 85 88 90 85 81 80 79 79 79 80 83 84 88 89 88 90 93 94 94 96 97 98 97 86 67 54 48 44 42
73 71 74 75 76 83 84 83 78 77 78 73 77 82 82 86 91 91 87 84 81 80 81 82 85 87 88 89 90 90 92 94 95 96 95 84 63 49 41 39 40 40 38 36
74 73 72 71 75 82 82 83 81 79 73 71 78 82 85 87 94 93 93 86 84 82 82 83 86 88 89 90 88 85 83 79 69 59 52 47 42 40 40 41 40 38 34 31
68 68 70 73 71 80 84 80 80 77 71 70 80 85 88 91 95 95 94 93 87 85 83 83 84 84 80 74 72 69 68 64 59 52 47 44 43 42 41 40 37 33 30 28

GFSCGP_prec_cthk_060.txt.gz
RH
91 97 90 76 74 63 58 57 52 44 38 35 35 35 29 25 25 24 22 19 18 17 16 17 19 22 23 25 26 29 30 31 32 33 31 37 44 49 55 58 60 60 60 58
97 98 94 87 89 75 65 66 64 57 48 43 38 37 28 23 23 22 23 22 21 21 19 18 19 20 19 20 21 24 28 30 32 32 31 31 34 42 50 57 63 64 67 69
95 96 95 94 97 95 80 73 72 65 56 50 44 36 28 23 23 21 22 22 22 19 17 17 18 19 20 20 22 23 23 24 27 30 31 32 34 35 40 44 48 49 68 70
92 92 97 93 97 96 99 86 74 61 57 60 48 51 33 27 24 22 22 21 20 19 17 16 17 18 18 20 23 24 24 22 22 23 27 30 32 33 34 37 41 48 54 55
95 90 91 90 87 89 85 78 74 64 61 56 51 52 31 26 24 23 23 24 25 22 21 19 19 18 17 17 17 19 24 26 26 24 24 27 30 33 35 37 40 44 51 63
91 85 87 83 84 79 73 71 68 63 59 61 48 46 30 28 26 26 25 26 24 23 22 21 20 19 18 17 17 18 18 20 23 26 27 27 27 28 29 30 31 36 41 44
93 92 83 82 85 77 69 68 70 59 65 56 51 51 36 31 29 27 28 27 25 24 22 20 19 18 17 18 19 19 19 19 20 21 23 25 27 28 29 32 36 38 45 52
93 95 84 79 78 76 74 68 67 52 63 54 53 52 36 30 28 29 28 27 27 27 26 25 23 23 23 21 21 21 21 20 19 19 20 22 23 26 29 33 37 39 42 52
86 90 79 79 76 73 75 74 62 66 61 64 51 41 32 32 32 31 29 31 32 33 32 31 31 31 30 30 27 26 26 27 27 26 25 24 23 23 22 24 27 32 39 43
78 90 79 78 74 75 68 67 68 65 61 52 39 39 30 34 34 34 35 35 36 39 39 39 38 36 36 35 33 30 29 29 30 32 32 34 36 35 32 29 28 27 27 36
68 68 81 75 75 74 72 73 63 59 57 54 53 31 33 35 39 40 42 42 43 46 45 45 45 43 40 38 38 38 36 35 36 37 38 39 40 41 42 44 42 38 33 31
64 70 79 76 71 69 66 64 57 58 58 64 64 45 37 39 41 43 47 50 53 55 52 50 48 47 47 48 46 47 48 45 43 41 40 42 44 47 50 49 50 50 47 44
63 69 77 76 66 64 63 59 56 56 59 65 59 41 44 47 48 48 53 54 58 60 58 55 52 50 51 51 48 42 44 42 42 44 45 48 49 52 59 56 57 57 55 55
59 62 60 63 58 62 66 64 61 60 66 62 60 50 48 48 50 57 59 60 64 63 60 59 58 58 54 45 41 43 44 48 49 51 58 64 69 68 74 75 76 72 67 64
59 62 59 58 61 63 63 63 64 62 59 61 54 61 62 61 62 65 65 69 68 67 66 62 59 55 50 45 45 46 50 53 57 61 66 70 71 71 79 80 78 77 82 83
59 64 63 64 62 65 66 63 62 61 61 59 62 72 66 69 69 68 73 72 68 69 65 63 59 54 52 46 46 48 50 56 61 62 63 69 76 79 90 88 80 87 91 81
60 63 72 71 68 65 63 57 56 58 56 60 79 72 70 72 74 74 73 72 71 69 66 63 62 58 57 54 53 54 60 64 67 73 70 71 81 91 94 90 92 92 92 96
68 71 73 71 66 69 50 51 54 59 66 74 75 75 75 76 77 75 76 75 73 71 70 67 65 64 64 63 65 65 67 76 81 87 85 79 86 90 90 94 93 90 93 94
66 69 71 71 68 60 58 63 66 72 80 81 80 80 80 79 80 80 78 77 76 75 72 73 67 68 68 69 73 74 74 75 78 85 86 84 83 82 90 98 91 92 94 90
69 68 67 71 67 69 57 63 71 80 93 85 84 82 82 83 87 80 79 78 75 74 73 71 69 72 73 75 76 77 80 80 80 80 81 87 90 90 96 94 94 98 95 96
77 74 72 69 70 60 57 69 76 94 88 85 85 83 80 83 85 83 81 79 75 74 74 72 75 77 76 75 77 80 82 84 86 81 87 81 81 83 91 93 96 98 98 97
75 76 77 75 76 72 58 75 89 86 81 79 81 79 80 81 84 86 84 80 78 76 74 76 77 76 77 77 77 80 83 87 89 92 93 96 97 98 97 97 97 86 67 58
78 71 69 69 70 60 67 79 84 80 74 78 75 76 83 82 86 90 87 84 81 78 78 76 77 78 79 80 80 81 85 86 89 91 92 94 95 94 77 55 47 44 42 40
72 71 72 72 70 73 70 84 85 79 78 76 74 77 81 85 87 94 90 86 82 80 78 79 80 81 82 83 83 83 84 85 85 85 81 65 48 43 41 41 41 41 38 34
74 73 71 69 69 72 78 85 88 82 80 77 75 80 84 86 89 94 94 87 84 83 82 82 82 83 83 81 78 76 77 73 66 56 47 44 43 43 42 42 39 36 33 30
68 67 68 69 65 68 77 86 85 82 79 77 72 79 87 89 93 94 96 92 88 84 83 83 81 78 76 72 72 67 65 62 54 48 44 43 42 42 41 39 36 34 31 29

GFSCGP_prec_cthk_063.txt.gz
RH
93 97 93 80 78 59 53 48 47 43 37 34 37 39 33 29 24 23 21 20 19 18 17 18 17 21 23 23 24 23 24 26 30 34 34 34 35 38 43 47 56 59 62 66
98 96 90 92 85 76 58 55 53 47 42 37 38 37 30 27 24 23 22 22 21 20 18 17 17 17 18 19 21 22 23 24 26 30 32 32 32 35 39 45 53 54 61 67
98 96 97 96 92 90 78 65 63 55 49 46 43 37 30 26 23 22 21 21 21 20 17 16 16 16 16 17 17 19 20 21 22 25 29 31 33 35 34 31 36 45 53 61
98 96 95 98 97 94 90 76 70 65 62 59 48 47 36 28 25 24 24 23 22 21 19 18 17 17 17 18 18 18 20 21 22 23 23 25 28 32 33 34 34 38 45 51
97 97 96 95 97 97 97 93 79 69 63 56 51 50 36 28 27 28 28 27 27 24 22 21 20 19 19 19 18 18 20 24 26 27 25 23 24 26 28 31 34 36 38 41
93 94 96 91 95 94 89 85 84 75 65 61 51 49 33 31 29 28 30 29 29 27 25 23 22 21 20 19 18 18 19 19 22 25 27 27 27 27 27 29 30 33 36 39
98 96 88 91 90 83 81 83 83 76 74 56 54 53 36 33 31 30 31 32 30 29 27 24 23 22 21 20 19 19 19 19 19 20 22 24 26 28 29 30 31 34 35 35
96 97 93 91 87 84 80 76 76 58 61 51 54 52 35 34 32 34 34 34 33 32 30 27 25 24 23 22 21 21 20 21 20 20 21 22 24 25 25 26 28 30 32 34
91 96 88 84 83 82 79 76 68 66 61 59 49 43 36 37 37 36 35 34 33 35 34 33 33 32 30 28 27 26 24 24 24 24 24 23 23 23 23 24 24 25 27 31
80 93 87 86 80 79 74 71 72 68 61 50 38 38 36 40 39 39 38 37 38 41 40 39 38 38 37 36 36 35 34 33 29 28 28 29 30 31 32 33 33 33 31 30
77 83 88 80 81 81 78 75 70 62 57 49 43 29 31 38 39 38 39 39 41 44 45 44 43 41 40 40 40 38 37 36 35 34 35 35 35 36 37 39 40 40 41 42
74 76 88 85 78 76 71 72 66 65 62 59 58 37 34 37 36 37 39 41 44 48 48 48 47 44 42 43 42 42 41 43 44 43 42 40 39 40 40 40 44 47 51 52
62 68 76 75 70 70 74 71 64 58 56 59 50 37 38 39 40 40 40 46 51 54 53 52 52 51 48 44 43 43 40 37 35 35 36 38 39 39 42 43 44 46 52 55
59 62 64 68 61 66 71 67 62 57 59 56 56 48 45 44 42 46 50 54 58 58 56 56 55 52 47 45 44 43 38 37 38 41 43 44 46 49 54 59 59 62 71 70
59 66 62 58 61 62 62 62 60 60 58 57 51 52 46 47 52 57 59 62 63 63 61 59 59 55 50 48 46 40 40 39 40 44 49 53 54 52 56 62 65 73 78 80
61 68 60 60 59 62 65 62 63 60 58 57 55 56 58 62 65 67 72 69 67 64 64 63 59 56 52 50 46 44 41 44 44 48 55 58 54 59 69 73 80 87 90 90
60 63 60 68 67 68 69 62 60 60 60 58 63 62 63 68 70 73 74 72 68 68 67 65 62 58 58 54 52 49 49 51 53 55 61 57 60 66 79 83 90 98 98 97
60 60 68 74 69 74 54 55 56 56 55 58 65 69 72 74 73 75 76 73 72 71 70 68 66 63 61 58 58 59 57 59 59 63 62 61 65 74 80 86 94 98 98 98
62 65 72 72 72 59 65 66 66 67 73 75 79 77 77 78 79 80 77 75 74 73 71 69 68 65 62 64 63 65 65 68 65 67 66 67 72 75 82 90 95 95 96 97
69 67 68 73 67 64 61 66 68 73 90 85 83 82 81 81 82 82 79 77 75 72 72 72 66 66 66 67 66 70 72 72 73 74 71 73 75 78 83 85 88 97 97 91
76 76 70 71 70 59 58 65 67 86 89 83 84 83 82 81 80 83 79 78 74 72 72 70 69 70 69 70 71 72 75 74 76 78 77 77 82 88 94 95 96 97 97 97
75 75 74 74 76 68 54 68 80 85 84 83 81 79 80 81 80 82 82 79 76 74 72 72 72 71 72 74 73 74 76 78 82 84 86 88 90 92 93 95 90 72 57 50
79 70 67 67 68 61 62 66 75 85 85 82 77 76 77 80 81 85 86 83 79 74 74 73 75 75 76 75 77 77 78 79 82 83 84 86 88 75 48 42 41 41 40 36
73 72 72 69 67 67 66 67 76 87 86 78 77 74 78 83 86 86 90 84 80 77 76 77 77 77 76 78 78 76 75 75 78 78 69 50 41 41 41 41 40 37 33 31
70 71 71 69 67 67 71 74 82 91 86 83 78 73 77 85 85 89 93 86 83 80 80 79 80 79 78 76 72 71 71 66 61 50 42 41 40 41 41 40 37 34 32 31
59 61 66 67 61 62 65 71 76 84 83 80 79 73 77 86 89 93 91 91 87 85 83 80 78 77 74 72 70 63 61 58 49 44 42 42 41 42 40 36 35 33 31 30

GFSCGP_prec_cthk_066.txt.gz
RH
67 80 95 92 79 70 56 55 53 46 39 41 39 39 34 33 29 25 23 22 21 21 19 17 15 17 20 23 24 26 26 26 29 29 31 35 32 30 32 37 46 46 50 52
78 76 84 91 86 80 63 59 51 48 44 37 39 37 33 30 27 25 23 22 20 20 19 18 16 15 16 20 23 25 26 25 24 30 26 28 32 33 32 35 41 45 46 54
70 78 89 94 93 85 73 57 50 47 44 41 38 36 33 29 26 25 23 22 21 20 19 18 16 15 15 15 17 19 20 22 23 24 29 31 32 32 32 32 33 40 43 49
83 86 92 91 96 88 86 68 58 51 50 49 41 38 33 29 28 26 25 25 24 22 20 19 18 16 15 15 15 15 16 17 18 20 25 29 28 29 29 32 34 36 40 42
96 96 97 98 95 92 94 78 64 60 57 54 49 44 35 30 30 31 31 30 26 25 23 22 20 19 18 17 17 18 18 19 20 21 23 28 31 31 28 30 33 35 37 40
97 97 97 95 97 93 95 87 75 65 61 65 49 46 35 31 30 31 32 32 30 28 27 25 22 21 20 19 18 18 18 18 20 22 24 27 34 36 36 34 31 30 32 36
98 98 97 95 98 98 96 94 93 83 74 56 50 50 35 34 32 33 33 34 32 30 29 28 25 23 22 21 20 19 19 19 19 19 21 24 26 29 34 35 38 37 36 33
96 97 97 97 91 89 89 82 76 72 65 50 54 45 36 35 33 36 36 34 34 34 32 30 27 25 24 23 22 21 20 20 20 20 20 20 21 22 24 26 31 35 35 32
91 98 96 95 88 83 82 86 71 67 65 56 45 42 37 36 37 37 36 35 36 36 34 33 31 29 28 27 26 25 24 23 23 22 23 23 23 24 24 25 26 27 28 29
86 95 90 86 89 84 82 75 72 72 63 52 37 37 36 39 40 41 40 38 39 40 40 40 39 37 35 34 33 33 32 31 30 28 27 27 28 28 29 29 30 31 32 32
73 75 89 84 83 79 79 78 69 59 53 40 31 27 31 38 41 40 40 40 42 44 45 44 43 42 41 39 38 37 36 35 35 35 35 33 32 32 34 36 38 40 41 42
74 78 88 83 79 78 75 71 64 64 61 52 48 32 33 38 39 40 40 42 45 47 47 48 48 48 46 44 42 39 38 37 36 36 37 38 39 37 37 38 39 41 43 45
70 73 81 82 74 72 74 69 64 59 58 60 43 35 38 40 40 40 41 43 46 50 52 52 52 50 48 46 44 43 40 37 37 35 31 31 32 33 37 40 42 43 46 49
59 60 66 61 60 62 73 67 62 67 63 49 44 38 39 40 40 41 45 49 53 56 56 55 53 53 51 47 43 40 39 38 35 34 34 36 37 40 42 44 45 48 50 52
59 65 62 61 63 64 65 66 63 63 53 54 41 43 42 42 45 49 52 57 60 62 60 57 56 56 53 49 46 44 42 39 38 38 38 40 41 40 40 42 47 53 58 61
61 69 64 67 61 65 67 63 62 61 56 52 50 48 41 47 53 58 62 66 65 63 62 61 59 59 54 52 52 48 46 45 44 43 43 42 45 45 46 48 58 65 74 76
60 61 58 61 60 62 60 56 56 56 54 52 55 48 50 53 57 63 67 70 70 65 64 62 63 60 58 57 56 53 51 48 50 47 48 48 48 46 52 59 65 72 79 87
56 56 56 62 60 63 52 53 53 53 51 51 50 52 57 63 67 70 72 73 70 66 66 66 64 63 62 60 59 57 58 55 54 51 55 51 53 55 59 64 69 73 81 86
55 55 62 67 63 56 63 61 58 59 63 53 60 66 69 73 75 74 77 76 72 72 70 68 66 65 63 62 61 63 63 62 62 58 57 57 59 61 64 68 72 80 84 85
60 60 62 69 66 57 59 68 65 67 79 71 73 76 79 80 81 80 81 77 75 72 71 69 68 64 63 63 63 63 65 65 65 63 63 66 63 66 68 70 75 82 86 88
66 66 66 63 62 51 56 60 63 76 79 76 82 81 82 82 81 80 81 81 76 73 70 70 69 66 67 66 67 67 66 70 69 70 67 66 72 75 77 79 80 83 87 88
65 67 67 65 63 62 52 67 73 79 79 84 86 84 82 82 82 82 82 81 76 73 70 70 69 67 68 70 68 68 70 72 74 77 77 76 76 77 77 72 54 42 40 39
71 63 62 60 60 61 61 63 67 76 84 87 87 82 81 81 83 82 84 83 77 74 72 70 70 71 72 70 72 71 74 77 77 74 74 74 72 51 39 39 38 37 34 32
71 70 68 68 64 62 63 64 67 74 85 87 85 76 75 80 82 83 84 83 78 76 75 74 73 73 71 73 74 73 70 70 71 72 65 44 38 38 38 37 34 32 31 30
66 69 69 68 66 67 66 69 73 77 83 90 82 78 75 77 80 82 88 86 82 79 78 78 77 74 74 74 72 66 67 66 59 47 39 39 39 38 37 35 32 31 30 28
55 55 58 60 61 62 63 68 69 73 76 89 83 79 77 76 85 89 91 88 88 83 81 81 76 73 70 68 67 64 56 54 47 42 42 41 39 38 36 34 33 31 29 28

GFSCGP_prec_cthk_069.txt.gz
RH
91 73 73 64 64 72 65 65 60 53 50 46 47 47 48 45 44 42 36 33 33 29 26 24 22 21 23 24 27 29 29 30 35 39 33 32 33 40 40 41 39 40 41 45
92 76 64 72 79 82 75 65 56 60 52 46 48 41 44 44 41 38 34 29 27 27 24 24 21 19 17 17 19 23 28 30 31 33 34 30 30 31 34 34 35 36 37 39
57 58 64 74 87 90 86 70 63 61 50 46 45 48 40 34 34 36 34 26 24 23 23 21 19 18 17 16 16 17 20 24 27 29 32 32 33 34 30 28 29 32 37 40
64 66 65 79 97 96 84 70 66 62 52 42 40 37 39 32 28 26 28 31 26 24 23 21 19 19 18 16 16 15 16 17 20 23 26 29 31 31 31 31 30 32 35 38
78 66 77 79 95 96 92 79 72 59 52 52 50 45 48 36 30 28 29 31 32 31 30 27 22 21 20 17 16 16 16 16 17 17 18 21 25 31 33 32 33 34 37 36
79 73 82 91 93 96 85 82 79 69 66 68 50 42 46 36 31 35 35 32 30 29 28 26 25 24 24 20 19 18 18 18 18 20 21 22 25 30 34 35 35 37 38 38
86 84 89 94 97 97 92 93 98 95 84 59 48 49 42 36 32 33 35 36 33 33 32 32 29 27 26 24 22 21 20 19 19 19 19 20 23 27 31 34 36 37 37 37
96 98 98 98 96 97 97 97 98 80 65 53 51 50 40 35 33 37 37 35 35 35 35 33 32 30 28 27 25 23 21 21 19 19 19 19 20 21 24 30 33 36 37 41
96 98 97 97 96 95 97 94 77 68 61 55 45 39 38 36 34 37 36 36 37 37 36 35 33 32 31 30 29 26 25 24 23 22 22 23 24 23 23 24 26 31 33 36
80 96 98 97 94 86 89 85 81 81 71 62 45 40 37 35 36 36 38 39 39 40 40 38 37 36 36 35 33 32 31 30 30 29 27 26 26 26 26 28 30 31 32 33
71 79 93 87 95 90 82 83 78 71 64 59 46 38 39 37 39 41 40 40 41 43 44 43 42 42 42 40 39 38 36 35 34 33 32 32 32 31 30 29 30 31 32 32
71 74 83 80 76 77 75 74 72 75 70 59 61 44 35 39 41 40 41 41 43 45 46 46 46 44 43 42 41 40 39 37 36 35 35 34 35 35 35 33 29 29 30 31
66 70 81 77 73 73 76 73 67 63 67 62 49 41 40 43 40 39 39 42 44 47 47 46 45 46 45 44 44 42 39 37 36 35 36 34 33 29 28 29 30 31 34 37
65 64 70 70 68 66 76 69 66 72 70 55 47 40 39 41 40 38 41 42 46 49 49 49 50 50 49 49 46 40 38 38 37 36 35 35 32 32 31 32 34 36 38 41
61 63 61 60 59 60 61 63 63 69 62 65 49 43 38 40 41 42 45 49 53 54 54 55 55 54 53 53 48 43 43 42 40 38 37 36 34 35 36 36 35 38 42 46
60 67 61 65 57 58 63 60 61 61 58 54 49 46 41 41 45 47 51 55 58 58 58 58 59 59 57 56 51 51 50 46 44 42 42 40 40 40 41 41 41 43 47 55
62 63 63 65 59 62 65 58 60 60 55 51 52 46 46 45 47 52 58 63 66 65 62 61 64 64 61 61 57 54 53 50 48 46 47 46 47 43 43 43 45 50 56 62
57 59 60 56 58 67 55 53 53 54 54 53 52 50 50 52 56 59 64 66 68 68 66 66 66 65 63 63 61 58 55 54 54 53 52 50 49 46 45 50 54 56 61 65
54 57 60 58 58 54 58 59 57 58 60 50 52 51 58 61 65 67 69 72 73 71 69 67 66 66 65 63 60 60 60 61 60 57 55 53 52 50 50 53 57 60 66 70
55 55 56 64 67 58 64 65 63 64 71 59 58 62 66 71 73 79 78 77 75 73 70 70 69 68 65 63 62 62 62 63 61 61 60 59 54 58 58 62 66 68 70 72
64 63 62 64 63 52 50 61 63 74 78 68 68 72 74 75 78 79 79 79 78 74 73 72 70 68 67 65 63 67 66 65 67 63 63 61 62 65 66 67 67 67 64 59
61 60 61 61 61 59 50 59 63 73 72 74 75 80 82 82 81 82 81 81 81 77 74 71 70 70 67 66 67 67 67 68 70 69 69 69 70 68 64 50 41 36 33 30
64 58 60 57 59 55 52 60 61 66 75 79 83 86 84 83 83 83 84 84 82 78 76 73 71 71 70 69 67 68 70 73 74 74 72 71 66 45 36 36 34 31 29 28
66 66 64 64 59 58 60 61 62 63 69 78 83 86 82 80 83 82 83 83 83 79 78 77 76 72 70 70 71 72 74 75 73 70 68 51 37 36 36 34 31 29 28 27
66 67 66 65 63 64 64 63 66 68 70 76 85 88 81 79 79 81 85 88 85 81 79 78 77 74 73 73 74 73 68 66 65 60 41 37 37 37 35 32 30 28 28 26
53 54 60 60 58 60 64 65 66 68 69 71 76 89 82 80 78 84 88 89 89 86 82 80 77 74 73 72 69 66 63 60 50 39 39 40 41 40 36 34 31 30 29 26

GFSCGP_prec_cthk_072.txt.gz
RH
89 95 86 62 59 63 77 76 67 61 56 61 49 50 55 59 60 55 49 48 44 40 35 32 28 27 26 28 31 35 37 42 46 42 37 36 36 40 41 41 41 40 41 38
88 93 75 75 75 74 80 80 74 67 72 61 54 45 47 50 53 56 50 46 44 42 39 34 30 27 25 24 24 27 32 32 31 36 39 37 37 36 38 42 38 38 39 43
83 69 81 81 74 70 71 77 75 70 74 67 54 48 42 43 47 51 48 42 41 39 35 32 30 28 25 23 21 20 21 24 27 30 35 35 35 34 33 32 32 36 40 40
83 73 87 84 74 70 73 73 79 73 75 75 56 50 36 37 45 45 45 37 36 36 33 29 26 25 23 21 19 18 17 16 16 20 23 28 28 30 28 27 29 30 29 31
96 89 81 85 78 79 74 85 77 84 76 69 60 54 35 37 42 41 34 38 37 38 34 29 25 23 22 20 19 18 18 18 18 18 18 19 22 27 34 33 30 29 27 26
91 86 80 77 71 81 90 88 92 87 80 91 62 53 42 37 40 44 31 33 33 35 37 33 28 28 26 23 20 19 19 18 17 18 19 20 20 21 26 32 35 33 33 35
85 88 82 76 80 87 97 98 98 98 96 85 59 65 41 37 35 45 39 34 35 33 32 32 33 31 30 26 23 22 21 20 19 18 18 19 21 23 26 30 33 34 36 38
80 81 77 79 80 83 92 96 96 89 90 71 61 66 45 36 37 44 44 41 39 39 37 34 31 30 28 27 25 23 23 21 19 19 19 19 20 20 21 24 28 31 33 35
83 80 77 82 86 88 95 96 92 85 69 77 64 52 44 39 39 40 47 42 40 38 41 38 34 33 31 30 28 27 25 23 22 22 21 21 21 21 21 22 25 28 30 33
77 89 93 95 95 96 97 90 94 95 88 79 62 52 45 42 39 40 40 42 41 39 39 37 36 35 35 33 32 31 30 29 28 28 27 27 26 25 26 25 26 28 30 31
79 86 98 98 98 97 97 98 83 80 76 82 69 52 41 39 38 39 39 39 39 41 41 40 41 40 40 39 38 37 36 34 34 34 33 32 32 31 29 28 28 28 28 27
73 79 93 86 83 83 80 85 80 88 79 78 78 59 47 43 44 43 43 41 43 44 43 44 45 43 42 42 40 39 38 37 37 37 36 35 34 33 33 33 34 30 26 26
64 72 81 77 75 75 77 76 75 76 81 81 80 62 53 47 49 46 45 46 46 46 45 46 45 43 42 42 42 41 40 38 37 35 35 34 34 33 32 31 27 27 28 28
61 64 73 77 72 73 78 76 75 81 84 75 66 54 52 45 44 42 43 45 46 47 47 46 45 45 46 46 45 44 42 38 36 35 35 35 34 33 33 32 32 31 31 30
61 64 59 59 59 59 66 68 72 75 70 73 58 51 48 44 42 41 44 45 47 49 50 50 51 51 51 51 49 47 43 40 41 39 38 37 34 34 35 35 34 34 33 34
57 66 59 64 56 56 59 60 61 67 68 65 60 55 44 43 43 44 46 49 54 55 55 54 56 56 54 54 52 51 47 46 45 43 41 41 41 39 38 38 38 38 39 42
60 63 64 70 57 58 64 57 58 60 59 59 62 54 49 48 45 47 49 55 58 59 60 58 56 58 57 58 56 56 51 49 49 48 48 47 46 45 43 40 40 42 44 45
60 60 63 69 59 73 59 56 57 59 59 56 52 50 50 47 47 49 56 58 59 62 64 61 62 62 61 61 59 59 57 55 55 54 52 51 51 48 44 44 45 47 48 50
53 58 64 67 63 56 63 58 59 59 59 54 54 52 52 52 58 61 59 63 66 69 67 66 65 64 64 65 62 60 60 59 59 60 57 57 54 49 48 49 50 53 55 57
54 56 61 67 65 63 69 65 61 61 73 54 52 54 58 64 69 70 75 73 73 72 72 69 67 67 65 65 64 61 61 61 62 62 61 59 56 56 54 55 57 58 59 58
63 62 64 62 66 60 58 63 67 77 80 67 61 62 66 70 75 75 75 76 77 77 75 71 69 69 68 67 65 63 63 66 67 63 62 60 60 60 61 61 61 57 43 32
62 64 60 60 66 64 53 60 63 72 74 74 73 75 76 79 79 79 79 80 80 81 78 74 73 71 71 69 66 66 68 69 69 65 64 63 64 64 62 48 37 33 30 26
65 58 61 56 57 53 56 60 61 65 69 77 78 78 80 84 84 83 83 84 84 83 78 75 73 71 71 70 69 68 70 71 71 69 70 69 67 51 36 34 32 29 27 26
66 62 63 62 58 58 58 59 60 61 63 70 77 83 85 86 83 82 83 84 84 84 80 79 75 74 72 71 70 71 72 73 72 72 72 64 42 36 36 33 31 28 27 27
71 70 67 64 64 63 62 61 63 64 65 68 74 81 87 88 84 81 83 86 87 84 81 79 78 75 74 72 72 75 74 72 69 66 59 40 38 38 37 34 32 30 29 28
54 61 67 68 64 63 65 65 65 65 66 67 67 71 78 89 85 81 81 87 89 88 84 81 81 78 76 76 76 74 71 66 63 57 39 39 40 40 38 37 35 34 32 30

GFSCGP_prec_cthk_075.txt.gz
RH
87 93 94 71 70 68 64 62 66 70 69 75 69 57 48 57 67 60 52 48 50 45 40 37 34 32 30 31 36 36 41 42 47 50 54 53 49 46 41 38 40 43 40 40
93 94 95 85 78 80 73 67 62 63 72 73 71 59 50 49 56 63 60 56 50 50 43 39 35 32 30 28 28 32 36 38 39 40 44 47 45 45 44 44 42 44 41 41
96 93 96 91 80 79 76 74 73 71 70 72 69 66 56 43 46 53 56 57 53 48 46 41 37 34 32 30 29 28 29 33 36 35 34 35 38 38 40 40 41 42 47 47
89 87 91 91 81 79 80 69 78 82 80 86 71 70 52 40 37 46 47 49 54 48 44 42 39 34 33 33 33 30 27 25 25 27 28 27 26 28 28 31 35 37 39 41
75 88 97 88 77 79 85 85 83 85 87 76 72 70 46 39 36 33 42 46 49 49 41 40 39 38 34 30 30 27 24 22 20 19 21 21 21 21 25 27 27 27 28 30
91 83 91 91 89 80 75 75 84 93 96 97 71 69 50 42 30 32 36 45 47 47 39 38 38 34 30 25 23 25 23 21 20 20 20 20 22 22 22 24 28 30 32 30
89 91 86 89 92 85 76 81 97 98 98 89 74 72 44 41 32 33 35 44 45 40 41 38 38 39 36 29 24 22 21 20 19 19 19 19 20 21 22 23 27 33 36 37
95 98 90 89 85 80 87 91 88 89 90 82 70 73 53 43 38 34 37 46 46 38 34 35 36 39 39 32 29 28 27 24 21 20 19 18 18 18 19 20 22 27 30 30
93 91 86 85 80 74 78 91 94 94 74 78 69 59 53 50 43 42 41 46 51 45 38 37 35 33 31 31 31 29 26 24 23 22 21 20 20 19 19 19 20 23 26 29
80 82 81 77 78 79 77 79 98 95 95 85 69 66 61 52 51 44 42 45 55 49 41 39 38 36 37 35 32 30 29 28 28 27 25 24 23 23 22 23 23 25 26 29
69 69 76 78 81 83 89 91 90 89 97 88 76 63 54 50 50 48 46 47 49 55 49 43 40 39 39 37 36 34 33 32 31 30 30 29 29 29 29 28 27 27 27 27
77 81 86 90 89 88 88 90 84 90 92 85 83 64 52 51 51 48 48 47 46 49 52 49 45 44 42 40 39 38 37 35 34 33 33 33 33 33 33 32 31 31 31 31
73 85 91 91 87 84 82 84 83 82 83 83 85 67 58 56 56 52 50 49 48 48 49 49 48 46 45 42 40 40 38 37 36 35 35 34 34 33 32 32 31 31 30 28
62 68 71 76 70 76 81 77 82 82 86 80 72 63 64 62 55 53 54 52 51 51 50 50 49 47 46 45 44 43 41 41 38 36 35 34 34 33 32 31 31 30 30 30
61 66 61 59 62 65 69 73 77 77 75 76 68 65 63 56 50 46 47 50 51 52 52 51 51 51 50 49 48 48 46 44 42 39 38 37 36 34 34 33 35 34 34 32
56 64 57 60 54 56 59 62 67 72 72 70 68 61 54 59 53 47 45 47 48 49 54 54 54 54 55 54 54 53 52 48 45 43 42 41 41 40 39 38 38 39 35 35
55 61 64 68 58 59 64 58 59 62 61 64 67 60 57 56 56 53 52 52 51 56 58 58 60 58 58 57 56 56 55 53 49 47 47 48 46 45 44 44 42 38 39 43
61 63 63 69 61 71 55 54 56 57 56 57 57 58 56 57 55 51 49 49 57 60 60 64 64 61 61 61 61 60 59 57 54 54 54 52 51 50 50 45 41 41 44 48
61 59 63 68 68 57 58 58 58 60 59 56 56 55 55 54 50 50 51 58 60 63 66 67 67 66 66 65 65 62 61 61 60 60 58 57 56 54 50 46 46 46 51 56
63 59 62 69 70 66 64 61 58 61 68 58 54 55 58 58 60 60 65 65 70 72 71 71 72 70 69 68 67 65 63 60 61 61 61 60 58 55 54 53 54 55 58 58
64 62 66 68 68 55 57 62 64 77 70 62 53 55 59 64 68 68 71 73 74 73 75 77 75 73 71 69 66 66 64 64 63 63 64 62 59 57 58 59 61 59 45 30
63 66 67 61 61 63 57 64 69 70 73 71 69 63 65 68 73 76 76 74 76 77 81 80 76 73 71 70 69 69 67 67 67 67 65 62 62 61 63 60 42 33 30 27
68 61 62 58 58 53 57 60 65 69 69 77 76 74 75 77 79 79 81 80 81 82 84 80 77 75 73 73 72 70 70 70 70 68 67 65 66 65 44 37 33 30 27 26
68 66 66 63 60 59 59 61 63 65 64 67 72 79 81 82 82 83 82 80 82 84 84 80 79 77 75 74 74 73 71 71 72 72 71 71 67 40 38 35 33 30 29 27
73 72 73 68 66 66 64 65 65 65 66 67 70 76 80 85 87 87 85 84 88 87 86 82 81 79 76 75 73 73 74 74 75 74 74 66 41 38 37 36 34 33 33 32
62 68 74 76 69 68 70 69 68 68 69 69 69 69 70 74 82 88 86 85 88 88 88 86 81 80 77 77 77 77 78 77 74 68 63 45 38 39 39 38 36 37 37 36

GFSCGP_prec_cthk_078.txt.gz
RH
86 98 98 83 83 67 64 59 60 68 71 75 71 65 58 58 63 58 54 54 54 53 52 45 39 37 33 33 35 36 40 44 49 48 50 52 51 51 49 46 43 43 40 39
89 92 96 90 85 79 66 61 60 67 66 73 74 67 62 54 49 56 57 53 52 50 50 45 41 35 33 31 31 32 34 37 41 48 51 54 51 54 58 54 48 44 43 43
92 77 91 97 88 86 82 68 64 59 62 67 68 68 68 54 47 46 52 57 55 52 49 46 42 39 35 34 32 31 32 32 32 35 42 44 46 46 47 47 44 42 44 45
96 79 86 96 89 85 92 82 74 69 67 72 62 68 54 52 50 43 42 51 57 54 51 49 46 43 41 38 35 34 33 32 32 32 31 34 37 38 39 41 44 49 46 42
88 84 89 98 87 82 87 85 86 81 84 74 71 72 53 49 51 40 33 40 55 55 51 51 50 45 43 41 37 34 34 33 30 28 29 28 27 27 27 27 27 28 31 33
94 92 97 95 95 87 85 84 81 87 92 89 76 77 53 44 37 39 34 31 48 52 50 52 51 49 46 40 36 35 34 30 29 28 28 27 27 24 24 24 23 22 23 26
97 98 93 94 96 95 90 92 97 97 94 83 72 75 45 39 37 38 34 30 37 46 47 50 53 50 45 42 38 34 30 27 28 28 27 26 23 23 23 23 23 23 24 27
97 99 98 98 89 89 86 85 86 81 85 75 71 68 48 44 40 38 37 35 34 46 47 49 53 48 43 41 41 39 36 31 26 24 27 25 24 22 21 22 22 23 25 29
95 97 90 95 94 87 89 90 81 79 71 75 68 55 46 47 47 44 42 42 40 43 52 48 46 45 43 41 41 42 41 33 27 26 25 22 21 20 20 20 20 20 22 25
80 94 91 93 91 87 85 80 90 89 92 80 65 58 55 55 56 51 47 44 43 46 56 50 42 36 38 39 39 40 42 38 32 30 29 26 24 23 22 22 22 22 23 25
82 83 92 87 85 86 85 83 83 88 89 87 78 59 48 54 55 55 54 48 48 49 55 55 47 38 37 37 37 36 35 36 34 30 30 29 29 29 28 28 27 26 26 27
73 72 76 74 69 69 74 69 70 80 84 84 75 62 50 55 58 56 56 54 52 50 50 60 52 44 42 41 40 39 41 38 36 34 34 34 33 33 32 32 32 32 32 32
71 76 74 79 80 83 82 78 78 77 79 80 80 65 56 56 60 58 57 57 56 53 50 50 58 56 52 47 43 42 41 40 38 37 37 36 35 34 34 34 34 33 33 33
79 85 80 83 75 81 87 84 86 82 83 74 75 63 63 63 60 65 58 58 55 52 51 52 55 57 57 52 47 44 43 41 40 39 39 38 36 35 34 33 33 32 31 30
67 71 72 69 70 71 78 77 78 80 74 77 68 66 64 65 64 63 54 55 57 55 55 54 54 55 51 51 47 46 45 44 43 42 41 40 39 37 36 34 33 32 31 32
64 67 60 61 55 59 61 65 72 73 72 73 71 68 63 65 63 54 50 53 55 55 54 55 56 56 54 53 52 50 50 50 49 47 44 43 42 42 40 37 36 37 37 37
58 60 62 67 59 60 63 54 59 63 65 69 72 65 61 61 61 62 49 48 49 50 51 56 59 59 59 58 56 55 55 56 55 52 48 47 47 47 45 43 42 41 41 38
58 62 65 71 65 73 49 53 54 56 55 57 58 59 58 57 60 60 59 55 55 55 57 60 60 62 64 62 61 60 60 59 58 56 53 52 52 53 52 50 48 45 41 42
62 66 70 71 70 55 54 56 58 59 58 53 54 56 57 58 60 62 57 54 52 56 61 63 64 66 66 65 65 65 65 62 62 61 60 58 58 57 55 52 49 46 45 46
66 67 67 70 70 67 61 59 60 59 66 57 54 56 58 61 62 58 53 52 57 62 66 69 70 70 70 69 68 68 67 65 64 64 64 63 61 61 58 54 52 52 54 54
72 71 70 67 70 58 51 60 63 74 68 62 57 55 57 62 60 59 61 67 69 70 72 73 72 74 73 71 70 69 68 68 65 63 64 64 63 63 60 58 57 59 57 43
71 70 68 64 66 63 53 62 69 71 72 73 64 59 59 60 64 72 71 71 73 73 73 74 78 78 75 75 73 71 70 69 68 67 66 67 66 64 63 63 64 53 35 28
70 61 62 61 61 53 57 61 65 74 74 80 78 75 73 73 75 76 77 76 77 77 77 80 81 80 78 77 76 76 75 73 73 72 72 71 67 67 67 63 40 32 29 28
70 66 65 64 59 58 58 63 69 73 76 71 77 82 82 82 82 82 79 82 82 82 82 82 83 82 81 79 77 77 77 76 77 75 75 72 70 71 57 37 34 32 30 28
75 72 71 68 64 64 64 66 67 68 67 70 70 74 80 84 87 88 87 87 88 89 88 88 86 85 83 81 79 78 77 76 76 75 76 74 74 56 38 37 35 33 32 32
76 72 74 77 71 68 68 69 70 71 71 71 71 71 71 70 75 80 84 88 88 90 92 90 89 86 84 82 80 78 78 78 77 79 78 78 68 41 39 38 37 35 34 34

GFSCGP_prec_cthk_081.txt.gz
RH
95 86 97 98 84 63 47 48 62 60 63 72 71 68 64 67 73 76 76 77 71 71 68 65 59 53 47 42 40 40 43 49 54 54 51 49 48 49 49 45 44 44 42 42
97 82 92 95 90 78 64 48 53 54 58 64 70 71 72 76 72 71 71 72 73 73 67 61 56 50 46 42 39 37 39 44 46 50 52 54 52 52 52 51 52 55 55 50
85 77 91 98 94 87 79 56 52 51 56 64 70 73 71 62 61 67 66 63 60 56 57 55 52 53 44 40 38 36 36 36 43 48 50 50 50 49 50 50 48 54 63 63
89 85 97 98 94 87 85 63 59 58 61 68 61 72 58 60 59 56 51 53 53 53 51 49 48 46 47 43 40 37 36 36 36 34 33 37 44 46 47 50 51 52 55 55
90 85 93 98 90 90 87 74 67 64 67 63 61 67 51 49 52 45 42 43 45 50 51 50 48 50 47 46 44 40 38 37 36 35 35 33 31 31 33 37 39 41 41 40
93 94 90 96 96 94 91 89 82 78 77 74 58 62 50 41 37 41 43 43 38 45 49 51 51 50 50 49 47 45 40 38 35 33 32 33 32 31 29 29 29 30 31 29
97 91 92 92 98 95 93 93 98 94 91 77 61 68 49 42 39 39 39 39 38 36 43 49 52 53 52 52 52 47 45 41 36 33 31 29 27 29 29 28 27 27 26 26
97 94 92 93 95 91 89 89 85 84 82 80 65 67 48 42 39 37 35 36 38 34 36 48 55 55 54 54 54 51 45 40 37 34 31 29 27 28 29 29 29 26 25 25
96 98 93 98 94 89 94 91 82 83 77 81 65 51 41 42 43 42 38 36 37 37 36 41 55 55 52 52 53 50 46 44 40 34 32 32 30 29 28 28 28 26 23 22
85 96 96 97 95 94 88 85 87 90 90 78 57 53 48 41 44 46 46 44 43 44 40 41 49 53 52 50 51 53 45 43 44 43 41 38 31 27 25 24 24 23 23 23
85 85 95 91 96 91 92 89 83 80 80 75 70 51 46 44 44 48 50 48 48 49 50 48 50 56 52 48 54 50 47 45 45 44 45 44 36 33 31 29 28 26 26 26
83 88 94 90 86 85 83 79 77 78 76 71 76 58 47 46 47 54 55 55 54 55 49 51 51 53 57 47 46 44 47 46 45 43 43 46 40 35 33 32 32 32 33 33
83 85 94 92 86 85 81 73 68 70 72 76 76 58 48 51 51 60 61 59 61 58 54 51 49 50 61 52 46 42 41 40 40 39 38 37 38 38 36 36 35 34 34 35
74 77 69 68 59 64 69 66 68 73 72 65 65 58 54 56 58 59 65 66 63 62 58 52 49 52 61 62 53 49 45 44 42 40 42 42 40 38 37 37 36 35 34 34
75 82 68 61 63 72 74 74 78 77 71 74 65 64 58 59 59 63 67 73 70 65 58 54 51 52 54 61 63 60 56 53 47 44 42 42 40 39 39 38 37 37 37 35
78 79 79 81 75 74 75 82 84 83 80 75 69 67 62 61 63 67 62 61 63 63 61 56 55 55 55 55 61 57 57 58 53 50 48 44 43 42 41 41 40 39 38 37
70 73 68 67 62 61 62 60 66 67 68 70 72 66 67 64 67 66 62 58 59 59 61 62 57 59 60 59 60 62 56 58 56 53 52 50 47 46 46 47 46 44 43 42
65 65 63 72 66 68 45 52 53 52 53 58 59 61 65 64 61 63 66 63 57 55 57 58 60 64 64 65 64 65 61 61 59 58 56 55 53 51 52 52 51 48 45 44
63 66 69 71 72 57 49 53 58 59 55 53 51 52 56 60 61 63 64 63 63 64 61 58 61 64 64 66 67 70 69 65 63 62 60 59 58 57 56 56 55 52 50 48
65 67 72 77 75 66 58 60 57 59 64 56 53 51 54 58 62 64 66 65 63 57 53 61 64 68 71 70 69 70 69 67 66 64 64 63 63 61 62 61 57 54 52 50
73 75 76 79 75 59 53 60 61 69 65 64 60 54 56 60 59 59 58 59 56 55 65 67 68 72 72 74 75 73 71 70 69 67 66 65 66 66 64 62 59 57 56 55
75 78 80 77 71 64 53 60 61 67 70 70 62 60 58 58 60 62 63 64 70 73 74 74 73 73 75 79 77 77 76 73 71 70 69 66 66 66 66 64 62 61 56 44
79 71 73 66 62 54 61 59 60 69 73 76 77 70 65 63 64 68 73 75 77 76 75 76 77 77 81 81 80 79 77 76 74 72 70 69 68 69 67 66 65 58 45 34
77 74 70 66 63 61 60 60 65 72 80 77 78 83 82 79 77 77 79 80 78 79 79 80 80 82 84 85 83 81 81 81 79 76 76 74 74 70 69 69 60 42 32 29
82 78 74 69 67 66 64 65 68 73 76 77 77 74 81 86 87 88 88 85 83 87 90 90 88 88 86 87 85 83 81 81 80 80 79 77 75 73 73 60 41 33 32 31
82 80 78 74 69 71 69 69 71 72 75 77 75 77 76 76 77 81 82 84 88 90 91 91 92 90 88 88 86 84 82 81 80 81 78 78 76 75 63 45 37 35 33 32

GFSCGP_prec_cthk_084.txt.gz
RH
98 94 87 94 91 79 62 69 67 59 58 66 63 61 54 58 65 72 71 83 85 77 77 79 80 83 75 66 64 64 68 70 72 66 63 60 57 55 51 50 53 52 47 47
98 85 77 86 95 91 68 67 64 57 56 66 72 71 63 60 60 63 64 75 81 81 75 74 73 74 69 64 59 57 58 59 62 66 66 64 60 56 53 55 57 58 62 60
93 78 81 93 97 95 76 55 57 51 57 60 66 72 67 62 65 64 63 66 74 75 72 69 69 69 66 63 59 53 51 51 51 52 54 54 57 55 54 53 53 56 61 63
97 88 88 91 98 95 84 60 50 48 55 66 59 68 62 62 63 60 56 55 60 68 68 68 65 66 66 58 56 55 47 44 44 43 44 45 47 47 48 51 54 56 55 56
87 90 90 95 95 94 85 77 65 54 60 59 64 70 53 53 57 49 52 57 57 66 69 62 56 60 59 56 51 49 48 48 44 42 41 40 39 39 40 43 47 47 48 53
88 89 88 96 98 94 88 85 83 70 65 70 58 64 52 49 42 45 49 49 53 61 64 62 58 54 52 52 52 51 47 47 46 45 41 38 35 34 34 34 34 34 35 38
96 92 90 95 99 97 93 88 95 92 80 65 53 63 49 41 36 37 40 43 48 48 52 56 52 53 54 52 51 53 50 49 46 43 41 38 36 34 32 32 32 32 31 31
95 98 94 93 98 98 97 85 83 82 79 71 62 64 43 35 38 36 38 38 39 44 45 45 50 50 51 54 54 53 54 51 49 46 42 38 35 33 31 29 28 28 29 30
88 96 94 92 93 97 97 95 76 78 75 74 63 53 36 37 40 39 36 36 36 38 40 41 41 43 51 53 56 55 53 53 52 49 46 41 38 34 31 30 27 28 28 29
79 97 92 90 92 95 93 86 90 83 83 78 61 55 46 35 35 37 39 40 39 38 38 42 44 43 47 51 59 58 56 53 50 49 47 43 42 39 35 32 32 31 29 27
89 90 98 94 98 98 90 90 85 79 80 77 72 54 41 39 39 39 41 40 41 42 42 44 48 46 45 50 59 58 55 52 50 51 51 47 44 41 38 38 37 35 30 28
87 89 94 97 91 94 85 81 78 79 79 76 74 59 41 45 43 43 46 45 47 49 52 52 54 53 48 48 54 54 52 50 51 54 53 46 43 45 47 46 44 38 34 32
83 88 93 96 90 88 87 81 78 75 75 75 72 57 40 48 49 49 51 51 52 54 58 59 57 57 54 49 50 58 56 50 49 53 50 47 47 49 45 44 47 44 37 34
82 86 83 82 71 72 82 80 77 74 76 65 61 51 45 48 48 56 58 60 63 64 61 63 63 57 54 52 51 52 62 52 50 48 48 47 45 43 44 41 39 40 40 37
88 88 80 77 75 77 77 75 74 72 66 65 53 54 48 48 51 55 58 64 68 73 67 67 64 60 55 54 54 58 62 59 53 48 43 42 41 40 40 41 42 41 38 37
80 84 78 77 69 67 62 67 68 63 57 64 61 56 55 58 59 60 64 68 70 74 78 69 66 61 60 58 57 60 65 66 68 59 56 53 46 44 43 44 46 44 39 38
80 86 78 75 70 70 69 67 72 77 75 70 70 58 61 64 67 65 69 68 66 65 66 69 70 66 65 64 61 59 61 63 63 62 59 59 56 53 49 48 47 45 42 42
78 77 76 82 71 69 50 53 52 57 61 63 60 58 62 70 70 68 67 67 64 62 66 67 69 68 67 67 65 64 64 63 64 66 62 63 64 59 53 53 51 49 48 47
70 70 75 72 69 56 52 53 55 57 53 52 49 48 51 61 68 67 64 70 67 66 67 65 65 65 69 71 71 69 68 67 65 71 65 62 63 59 58 57 55 55 54 52
70 72 72 76 72 64 57 61 58 57 62 57 56 54 53 55 61 64 64 68 67 67 67 69 65 66 67 68 69 70 69 70 72 70 70 69 64 63 63 62 60 60 58 57
73 73 75 74 78 67 55 55 61 68 63 63 61 56 55 58 57 59 64 66 69 71 69 66 67 74 75 73 74 72 72 73 72 72 71 70 67 66 67 66 64 65 64 61
77 78 79 78 81 76 56 58 62 64 69 69 67 63 60 61 63 64 66 68 66 64 66 69 71 70 70 72 73 78 79 76 76 75 73 73 72 69 67 69 69 69 66 61
85 78 77 74 73 63 62 62 63 64 69 74 76 69 67 65 63 64 65 68 70 74 75 77 77 76 76 77 78 80 79 79 78 77 75 74 74 72 71 71 71 70 67 56
83 79 79 76 72 71 67 64 65 68 73 74 76 80 81 78 75 71 72 73 75 78 79 78 78 80 79 80 82 85 86 85 82 80 79 78 76 74 74 74 74 71 61 48
84 85 82 78 72 70 68 67 71 72 73 75 80 80 85 86 88 89 88 89 87 84 83 85 86 88 87 86 86 89 88 86 86 86 85 82 82 81 78 77 76 66 52 42
81 82 84 80 73 69 72 72 73 73 75 77 79 79 79 81 80 83 86 86 85 87 88 89 93 92 92 89 88 89 89 88 85 86 85 85 84 83 80 80 74 53 42 36

GFSCGP_prec_cthk_087.txt.gz
RH
79 85 93 89 95 89 67 70 67 57 55 56 54 53 48 45 45 48 50 56 62 70 76 73 74 76 75 75 78 84 83 80 80 80 73 71 67 67 62 57 53 48 47 47
86 80 88 89 95 95 73 67 68 63 58 60 61 54 49 45 43 44 49 55 60 65 70 69 73 77 77 79 76 78 82 80 74 77 80 77 75 69 64 63 60 55 53 57
88 87 89 95 93 99 86 70 66 58 63 62 60 57 51 49 44 45 46 54 60 62 68 68 74 77 76 73 73 68 68 70 72 73 75 77 76 73 70 64 61 58 60 65
89 84 89 98 97 98 91 76 65 62 64 68 58 58 49 49 51 46 46 49 55 56 71 73 75 76 78 75 71 70 67 65 64 65 65 63 62 65 66 67 64 60 60 58
93 96 91 91 94 97 96 76 67 69 66 64 60 60 42 44 49 55 52 51 53 61 69 78 75 76 71 71 71 70 68 63 61 60 59 57 52 50 48 49 51 51 50 51
82 81 85 83 89 95 97 85 74 71 69 74 58 60 45 41 40 47 50 52 53 56 60 69 78 73 69 69 70 68 64 64 61 57 56 54 52 47 41 38 38 39 41 41
79 78 84 82 89 95 99 87 92 89 82 68 54 59 42 37 35 38 43 46 50 54 55 60 71 68 66 63 62 62 61 59 58 57 56 53 48 42 39 36 34 33 34 34
85 88 85 87 92 98 93 82 77 79 76 69 63 61 38 29 34 36 36 38 39 44 48 49 58 68 66 59 59 58 58 55 53 49 49 50 50 49 44 41 35 33 31 30
87 92 87 90 96 98 97 91 74 76 73 69 58 50 32 32 29 38 38 36 37 38 41 45 46 56 61 59 53 59 58 56 53 54 53 51 50 47 43 39 36 33 32 31
85 94 94 96 95 97 99 86 82 80 81 75 63 56 39 33 36 38 40 39 35 35 37 39 41 46 55 55 58 55 56 59 56 55 55 53 51 49 46 44 38 35 33 30
84 90 96 96 93 97 98 92 81 76 78 70 67 53 44 43 38 36 37 37 39 38 37 37 39 45 50 55 55 55 55 58 58 57 56 53 53 51 48 46 42 42 41 37
87 90 95 90 88 88 90 86 80 81 84 77 72 59 49 45 44 42 41 41 41 40 40 42 43 44 47 51 56 54 54 53 54 57 57 55 51 50 52 53 47 44 43 41
88 88 95 95 85 84 88 86 83 80 79 79 74 61 50 46 46 47 48 47 46 46 48 50 51 52 54 53 55 57 52 48 50 52 52 52 49 50 53 54 48 44 45 46
87 87 82 82 73 75 82 81 78 77 82 75 72 59 48 43 44 46 47 51 51 53 55 55 57 60 63 61 58 56 56 51 51 54 59 54 49 50 51 49 48 47 48 46
93 96 85 80 77 79 75 76 79 79 74 73 64 60 48 44 45 42 39 49 57 57 58 61 63 62 61 61 59 61 61 56 52 54 59 59 52 50 48 50 49 48 46 44
89 89 86 87 80 76 76 73 74 72 71 71 67 60 49 50 49 48 47 54 57 60 62 68 72 70 67 68 68 65 62 59 58 57 59 59 59 54 48 45 42 41 41 41
87 90 86 83 77 72 64 61 66 68 66 65 67 55 57 54 53 53 54 57 60 60 63 68 73 77 71 71 69 67 63 62 62 64 66 65 64 65 59 53 50 45 44 43
83 82 83 85 70 66 49 53 55 56 55 61 64 60 54 55 58 60 61 59 62 65 66 64 66 72 76 73 73 70 67 66 64 64 67 69 68 66 63 62 59 58 53 50
81 79 84 82 80 63 59 60 58 58 53 55 56 56 53 52 54 63 66 63 64 67 66 66 68 70 73 76 77 74 73 71 69 67 64 64 67 67 65 62 64 63 61 57
71 72 75 81 74 60 53 60 59 59 61 60 60 57 54 54 53 53 61 64 65 68 68 67 69 70 68 73 79 79 78 77 75 71 69 69 69 67 69 64 66 65 61 59
71 68 73 70 70 62 56 57 60 63 62 65 62 59 55 55 52 50 54 62 65 70 70 71 71 73 72 72 75 76 74 75 75 77 77 73 73 71 70 70 73 68 67 65
76 71 72 69 69 70 59 64 62 62 67 67 64 61 60 58 58 59 60 63 66 71 72 72 73 72 77 79 80 78 78 80 79 78 77 77 76 74 73 75 72 72 71 70
86 77 71 69 69 62 63 67 65 61 67 67 68 70 65 65 64 65 66 68 70 72 70 67 69 74 81 82 79 78 77 78 82 82 82 79 78 79 79 79 78 78 76 73
82 82 80 76 73 72 71 69 66 64 70 70 70 76 79 77 77 75 74 70 70 70 75 78 81 80 82 83 81 81 82 84 86 87 87 83 81 81 80 79 78 78 76 73
83 84 84 81 75 73 73 72 69 72 77 71 72 78 87 89 89 90 87 82 82 83 83 83 85 86 86 87 87 85 86 89 91 89 89 88 88 85 83 81 81 80 79 67
79 81 84 85 80 77 74 76 76 76 77 76 77 81 86 83 84 86 86 88 88 88 88 88 87 88 90 94 93 92 92 92 93 92 89 88 89 89 88 86 84 83 76 65

GFSCGP_prec_cthk_090.txt.gz
RH
86 92 84 75 92 94 69 74 69 56 66 63 48 46 44 43 42 38 36 38 47 59 66 63 70 75 77 74 73 79 76 82 78 79 77 79 76 68 71 72 72 68 59 54
89 86 77 84 91 96 84 67 73 65 65 63 54 45 44 44 42 37 35 36 42 56 63 61 68 77 79 79 78 80 80 81 84 81 82 82 84 82 80 77 72 69 63 59
91 83 79 86 95 97 86 68 68 70 68 64 56 50 41 40 40 39 36 37 41 48 60 67 71 76 78 82 83 80 77 78 75 76 79 83 86 82 86 83 78 69 69 67
82 74 74 88 94 96 90 74 75 69 65 62 53 44 36 38 38 37 37 35 40 50 59 68 71 76 80 79 82 74 78 74 74 78 82 84 83 82 84 85 84 79 75 73
81 81 88 96 89 96 98 83 72 64 62 68 67 59 37 35 37 39 37 36 38 47 56 61 64 70 76 75 75 74 68 72 76 72 80 80 78 79 80 82 84 86 78 71
84 96 95 91 96 96 98 86 79 76 75 74 56 54 36 33 31 32 36 39 38 43 50 59 66 67 69 70 73 74 74 69 66 68 68 73 73 73 69 67 61 56 54 52
84 92 94 90 95 97 99 92 97 95 89 62 52 58 43 34 28 26 30 39 45 46 49 51 59 68 68 70 70 73 77 78 74 71 70 69 68 67 67 63 56 48 45 41
83 91 92 90 88 95 98 95 75 66 64 55 62 55 40 26 28 29 29 33 43 47 50 52 54 62 75 81 75 71 71 71 72 72 71 71 72 70 63 57 50 46 43 40
79 89 83 85 85 91 98 95 75 73 69 62 51 45 34 26 25 28 31 30 35 40 44 51 53 56 66 74 81 77 72 69 66 66 63 60 59 58 57 56 52 48 44 39
86 89 86 92 91 97 98 94 83 82 74 58 58 47 28 29 30 29 30 32 32 34 37 40 47 51 55 64 75 68 64 63 64 63 62 60 55 53 52 52 52 50 48 46
88 86 94 98 95 93 95 96 83 74 75 59 60 51 42 36 33 32 31 34 34 33 32 36 41 44 48 48 53 63 65 63 58 58 60 60 57 55 55 52 49 47 45 44
82 96 96 97 89 83 88 85 79 79 81 70 65 54 48 43 40 39 38 37 37 38 39 38 37 37 38 43 47 51 57 62 61 62 59 61 62 58 56 54 52 49 47 46
90 95 96 97 95 96 95 87 75 76 75 75 61 55 54 54 48 47 44 42 41 42 44 43 44 44 43 44 45 48 49 53 62 67 62 59 57 59 58 56 53 50 49 49
91 87 83 77 74 78 86 79 77 83 84 74 67 57 54 53 49 44 43 43 46 46 47 47 48 50 50 50 53 55 55 54 54 58 59 57 53 55 52 50 49 47 51 52
86 88 79 77 74 76 74 76 80 82 77 80 64 62 53 51 47 43 42 41 46 50 50 51 52 53 54 54 56 58 60 60 58 56 54 54 51 53 54 53 53 50 50 51
90 88 81 79 76 76 74 72 73 76 75 70 65 60 57 50 45 43 43 43 43 45 53 55 55 55 57 59 60 60 61 62 61 61 59 59 55 54 59 59 57 54 50 49
85 84 79 80 73 68 66 65 71 71 71 66 66 57 56 52 49 47 46 46 47 50 54 56 58 58 62 66 68 69 67 67 67 65 65 64 61 58 58 60 63 63 56 52
79 78 78 75 68 62 57 58 58 59 58 59 58 59 56 54 52 53 52 48 49 54 57 60 61 61 62 63 73 74 73 72 71 70 67 66 66 65 64 67 67 67 66 61
76 74 78 75 68 61 62 61 57 56 58 58 59 57 56 52 49 51 54 56 53 57 61 65 64 62 62 64 68 76 77 77 75 72 70 68 66 64 66 70 72 72 70 65
70 71 73 76 71 58 59 57 62 63 66 63 59 56 56 56 53 46 49 60 60 61 66 66 66 66 67 68 67 72 78 80 79 77 74 73 69 67 67 66 66 70 71 69
65 67 70 70 72 58 56 58 59 62 66 64 61 58 54 54 53 53 51 53 62 64 64 67 67 67 70 70 73 70 74 78 80 79 79 80 81 80 77 74 73 74 73 73
68 61 59 60 62 64 56 61 62 63 62 61 61 60 58 59 58 59 58 56 59 63 65 67 70 71 72 74 73 77 81 82 79 78 79 79 80 80 78 77 76 77 77 78
79 71 64 60 56 55 58 63 64 65 64 65 65 65 63 65 66 64 64 66 67 68 70 72 73 74 75 75 77 87 86 82 84 84 84 88 88 85 82 80 84 83 81 81
78 79 75 72 69 68 68 68 67 67 72 68 68 72 73 78 77 76 74 72 69 70 69 70 71 72 75 79 81 82 85 86 87 85 87 88 90 88 87 85 85 86 86 86
78 81 82 80 76 73 74 74 72 73 79 76 72 73 78 82 84 84 85 82 77 75 75 75 76 81 84 87 88 87 86 86 87 89 91 92 91 90 92 91 89 87 86 85
80 78 79 81 81 80 75 74 76 78 77 76 77 77 77 78 79 80 80 82 84 86 87 85 85 95 90 87 87 89 91 93 93 92 93 95 94 92 92 93 91 89 87 87

GFSCGP_prec_cthk_093.txt.gz
RH
88 93 88 91 87 80 90 78 67 59 71 72 70 57 50 52 47 39 34 40 48 51 51 52 53 55 60 70 73 75 76 73 70 72 73 80 84 78 75 65 63 68 67 64
95 85 73 80 89 95 95 83 71 62 75 69 72 67 56 49 45 39 33 37 39 45 48 59 48 57 58 70 74 78 83 82 77 72 73 76 81 87 86 79 71 66 67 67
92 82 75 78 95 98 96 81 71 64 75 72 77 74 58 45 46 43 36 38 39 36 41 53 50 57 68 68 74 80 86 85 84 75 74 80 81 82 85 83 84 83 77 74
87 89 78 87 98 92 94 75 78 71 76 71 67 71 52 43 43 38 36 35 35 34 36 51 54 45 61 69 75 79 82 86 84 84 74 70 76 79 80 79 80 84 81 82
97 85 78 79 87 89 94 84 74 77 73 73 70 66 47 34 34 32 34 34 34 36 37 44 50 46 56 68 75 77 76 82 79 77 83 79 74 74 82 82 84 83 77 82
96 92 85 84 87 91 93 87 91 82 78 91 69 52 36 38 33 33 34 32 34 33 36 47 47 46 55 63 68 74 73 75 82 80 79 82 84 84 82 83 87 84 81 79
88 91 82 92 93 96 98 95 97 96 95 67 60 65 44 37 32 31 30 32 33 33 37 43 49 45 53 63 69 74 75 75 75 77 79 76 79 81 85 81 87 86 84 77
80 94 94 95 95 97 98 98 90 81 79 66 64 60 49 40 31 27 27 30 33 35 36 39 47 51 55 61 68 70 72 70 69 73 75 72 75 77 77 76 79 78 72 66
79 92 94 91 92 92 98 96 84 78 63 65 58 46 41 39 30 28 26 25 28 34 40 44 45 49 50 58 62 67 71 73 73 72 73 76 79 79 79 76 76 76 67 62
89 91 86 91 90 92 98 97 87 83 76 70 61 44 46 37 34 29 28 28 27 29 33 40 47 51 52 58 63 69 79 79 73 69 71 70 69 69 71 69 65 64 62 61
82 90 93 88 86 94 98 95 90 79 77 63 67 53 42 39 33 30 25 23 27 29 31 35 39 44 52 56 57 64 71 80 85 80 75 72 70 67 66 64 62 61 59 58
91 90 91 93 88 85 89 87 81 79 72 72 74 60 46 43 39 33 31 30 32 32 33 31 33 39 43 49 54 57 57 67 70 75 72 68 68 67 67 67 64 61 57 56
92 91 96 95 94 94 91 83 90 78 78 76 74 59 50 50 47 39 36 37 36 35 35 35 36 38 40 41 44 48 51 54 59 59 63 67 70 66 64 60 62 61 60 58
92 97 98 87 83 81 86 78 77 85 81 68 69 62 56 52 50 45 44 42 42 41 38 38 39 40 41 43 45 45 46 47 49 50 52 55 61 68 69 65 60 56 56 57
94 98 85 79 75 73 75 78 76 80 72 78 68 65 59 55 53 49 44 41 41 46 44 42 43 44 44 46 48 47 48 51 53 54 55 54 54 53 56 58 60 59 56 52
90 93 83 81 73 72 73 70 72 73 72 72 71 66 60 56 51 48 46 43 42 44 48 48 48 49 49 51 52 53 54 55 57 58 58 59 58 56 54 54 54 55 57 59
86 82 82 85 74 72 74 71 68 68 67 67 71 64 60 57 52 50 47 46 44 45 45 45 47 50 52 54 55 55 56 60 61 62 63 62 62 62 60 58 58 58 61 62
77 75 71 71 69 72 64 60 63 66 59 57 59 59 58 56 55 53 50 46 44 44 47 49 51 54 56 57 57 58 58 62 66 68 68 67 67 68 66 65 63 59 59 61
70 72 75 75 65 64 64 62 59 59 58 55 55 54 54 55 52 51 51 51 52 48 51 53 56 58 60 58 58 59 62 64 70 74 73 73 72 72 69 66 65 64 64 66
68 70 75 75 72 60 66 60 60 58 64 60 60 56 53 52 54 50 47 46 52 53 57 60 61 64 65 63 62 63 65 66 70 77 78 78 77 74 72 70 69 67 66 68
66 69 72 74 75 65 58 57 57 65 79 66 60 57 53 54 54 55 52 49 50 56 61 67 69 69 69 71 70 69 70 68 69 74 78 81 80 79 77 78 78 76 73 70
65 63 63 66 70 72 65 65 67 68 62 62 59 56 60 59 58 58 55 53 52 57 61 65 66 67 68 69 72 72 73 71 74 76 79 78 78 76 77 81 80 78 78 77
73 69 70 61 61 56 60 64 63 62 63 68 64 60 63 64 65 67 64 62 61 60 63 65 66 68 71 73 74 74 76 74 83 84 82 83 82 80 84 86 84 85 82 81
71 73 73 73 69 65 64 64 64 64 69 71 71 70 72 74 74 75 74 72 69 69 70 70 72 75 78 77 75 73 76 79 81 84 86 84 84 84 85 87 87 86 86 86
80 79 78 76 77 75 74 73 73 74 75 80 78 75 75 78 79 83 83 82 79 76 74 74 75 75 73 75 80 84 85 87 87 87 86 86 88 89 93 92 92 92 91 90
76 79 81 92 81 80 78 76 75 77 81 82 81 80 76 76 74 75 79 81 82 85 86 84 84 82 83 86 90 91 86 87 86 89 91 91 92 93 94 96 94 94 94 92

GFSCGP_prec_cthk_096.txt.gz
RH
74 84 95 90 91 95 91 84 75 57 58 65 70 67 63 65 59 52 53 48 48 53 53 49 46 46 55 58 59 63 64 68 71 71 72 74 75 78 79 77 72 67 65 63
81 78 82 92 95 97 98 92 75 73 63 64 64 67 63 64 65 57 47 46 41 46 48 49 44 49 52 55 57 58 64 67 67 68 68 68 71 77 78 82 82 80 74 67
85 82 88 91 94 99 96 91 83 84 71 73 70 74 75 67 60 52 48 43 41 39 43 47 46 46 51 54 57 54 61 67 69 69 75 76 75 77 81 84 85 86 86 84
82 81 87 86 95 96 93 84 85 82 76 95 82 87 83 70 66 48 43 41 37 39 39 40 41 43 47 50 58 63 59 66 75 75 77 82 85 84 86 92 94 91 90 91
95 91 81 92 90 92 91 88 85 89 78 80 82 79 73 71 61 45 38 36 34 35 34 35 36 38 42 44 47 58 65 67 72 79 83 84 85 85 84 87 85 88 85 86
95 91 90 85 92 92 95 90 88 93 92 98 79 66 64 59 50 39 37 35 34 32 34 32 38 39 39 37 42 46 54 68 75 76 79 81 81 79 88 88 88 88 81 82
93 90 89 88 94 96 97 98 97 98 98 84 67 73 53 45 50 38 32 32 32 32 30 33 37 41 36 37 40 48 56 62 72 79 79 80 80 86 85 86 92 89 90 88
86 92 91 91 89 94 94 94 97 90 91 77 71 89 58 54 49 44 39 39 35 33 33 37 43 41 39 39 42 47 54 60 68 72 77 76 75 79 86 84 86 82 85 85
88 95 86 94 93 92 98 97 94 87 66 78 64 55 58 54 51 38 34 30 31 32 33 35 42 42 36 38 42 48 52 60 64 73 74 74 73 72 75 81 79 77 76 76
86 89 81 84 86 91 91 91 93 93 93 94 66 59 55 49 44 33 30 31 32 34 33 36 37 40 38 38 44 49 53 58 66 71 67 69 74 77 78 73 72 76 73 70
77 83 84 81 83 85 87 90 95 90 82 84 78 65 53 47 44 35 29 28 27 27 30 35 38 41 39 42 47 49 54 62 67 70 68 71 80 78 74 72 72 72 70 68
89 92 83 84 79 80 79 77 87 90 78 85 88 68 56 46 40 43 36 28 28 29 31 29 30 35 38 41 48 52 56 61 68 75 76 81 79 76 76 72 70 67 66 63
90 93 94 93 92 88 87 80 82 86 89 89 96 73 61 52 49 44 39 39 30 33 34 32 32 33 33 35 39 45 54 58 62 63 66 68 67 69 73 73 71 71 70 70
91 94 98 98 83 79 84 75 79 88 90 78 93 70 62 58 56 50 41 37 35 36 36 36 38 37 38 38 39 40 42 45 47 49 49 52 56 58 59 63 63 66 66 65
90 99 97 83 79 75 76 77 78 82 78 82 77 72 68 62 58 52 49 45 42 40 39 41 41 41 42 41 41 41 42 44 45 47 49 52 53 53 54 53 53 55 56 63
85 90 83 87 76 76 79 78 74 74 73 71 70 72 68 65 60 58 54 48 45 44 44 47 46 45 45 45 45 46 47 48 49 50 52 54 56 56 58 58 58 55 52 52
87 95 89 91 74 74 82 74 75 72 72 71 77 74 70 66 62 58 56 54 49 45 47 48 49 49 48 49 49 49 52 54 54 54 57 60 61 62 63 63 62 62 61 58
80 79 77 81 73 77 68 61 63 65 63 62 63 65 65 63 60 60 57 54 52 49 49 49 48 50 48 49 51 52 52 53 53 55 58 61 63 66 68 67 65 65 64 63
73 77 78 81 70 68 63 61 59 62 62 59 59 60 59 56 57 57 56 54 52 50 50 50 50 51 53 55 54 54 53 54 57 59 62 66 69 71 73 72 71 70 69 66
67 72 82 80 81 71 76 62 61 59 68 60 58 58 55 52 59 60 57 52 50 54 57 58 57 57 59 59 58 56 56 57 60 64 67 68 70 73 76 76 75 72 70 69
68 67 77 83 82 73 67 62 64 71 81 72 65 59 58 59 58 58 57 54 49 49 57 62 66 67 66 66 63 65 65 66 67 69 69 70 71 72 75 78 77 77 76 75
70 72 68 70 78 81 72 69 71 72 73 69 63 58 57 59 59 60 59 56 55 53 56 62 69 73 74 72 71 71 70 70 69 70 71 72 78 80 79 78 77 74 77 80
74 75 81 69 72 65 67 72 73 68 63 65 65 64 61 62 64 64 64 62 62 60 59 64 66 68 69 69 69 69 70 72 72 73 78 81 82 82 82 83 82 83 84 83
73 73 74 79 78 70 67 66 66 68 71 71 69 70 69 70 71 70 71 73 71 70 70 69 69 70 70 71 73 74 77 75 73 78 80 81 82 83 83 84 86 86 86 89
78 80 82 80 84 85 80 76 73 73 75 76 77 77 78 80 75 75 76 76 76 75 73 72 76 76 76 77 76 77 76 75 83 85 86 86 86 86 86 87 89 90 94 93
76 83 86 96 87 89 85 84 82 81 80 82 83 82 82 81 78 75 75 74 76 80 81 82 79 78 79 80 79 81 82 85 88 89 86 86 87 88 89 91 94 95 95 95

GFSCGP_prec_cthk_099.txt.gz
RH
68 75 80 96 95 97 85 93 95 73 79 79 72 84 80 83 89 90 86 73 69 62 54 55 50 51 54 61 66 69 72 74 75 72 68 64 64 67 70 72 72 72 69 68
72 77 75 91 92 97 98 96 88 78 76 77 78 83 82 74 77 74 72 71 66 66 58 55 51 49 50 54 58 62 68 70 70 70 70 70 75 78 78 75 75 75 77 79
80 72 76 86 92 94 97 96 86 79 70 70 74 81 81 74 69 73 68 66 61 56 54 51 51 48 48 51 52 56 63 69 73 70 73 78 81 82 82 78 73 80 84 90
75 76 83 83 90 92 98 96 85 82 85 85 77 84 72 65 66 65 68 62 56 51 47 45 46 45 43 45 50 51 55 61 68 75 72 77 77 77 83 87 82 89 89 90
90 93 84 91 91 88 98 94 86 85 92 88 96 93 67 67 67 62 58 59 52 48 45 41 39 42 42 44 46 47 48 47 52 62 67 74 73 76 76 77 81 86 93 95
95 93 95 91 91 95 90 96 95 96 96 94 90 96 66 65 51 56 55 52 47 48 45 40 38 36 33 37 44 47 48 50 52 58 70 73 72 72 78 80 81 81 87 89
96 98 96 94 95 96 96 99 98 99 97 92 82 88 64 56 56 50 52 51 41 43 46 36 33 34 34 37 36 40 41 41 47 49 64 74 74 74 75 81 84 86 86 88
93 97 95 92 89 91 98 96 93 93 94 77 80 77 58 53 47 44 46 45 40 35 37 36 33 34 34 37 39 41 42 42 45 50 54 56 60 70 75 78 82 79 78 81
95 93 92 87 84 84 98 98 90 84 76 81 76 58 48 49 51 48 46 43 40 35 34 32 32 33 34 36 38 36 39 44 47 49 51 56 63 68 72 74 73 71 72 77
83 84 83 88 91 96 95 93 95 90 88 83 66 59 55 55 53 52 51 45 35 38 33 34 33 37 43 39 35 37 36 40 45 49 53 59 66 70 70 69 70 69 73 76
75 74 79 76 84 87 90 90 96 91 85 83 78 63 56 55 54 51 47 48 44 41 40 39 39 39 39 38 40 38 39 41 44 48 52 54 58 63 70 70 72 75 78 77
81 77 65 75 84 78 77 80 89 87 84 89 81 69 60 59 54 47 43 36 43 42 40 39 37 37 40 40 39 40 41 44 49 53 59 64 67 71 74 79 78 73 71 72
80 77 76 79 80 80 82 77 79 89 88 92 92 75 65 60 55 46 40 34 33 35 37 37 38 39 41 41 38 39 41 45 50 56 63 67 72 75 73 71 69 71 75 74
90 90 92 84 72 73 80 76 76 85 89 97 95 78 72 61 53 54 49 43 36 33 34 35 35 36 38 38 37 37 39 40 46 54 58 62 65 64 63 60 57 55 59 65
91 92 92 83 75 72 71 73 76 81 80 90 86 79 75 68 58 53 50 52 50 44 41 40 40 39 40 39 38 39 38 39 41 44 47 50 53 55 54 53 54 54 56 57
83 89 84 85 73 75 78 75 73 81 79 80 79 79 76 71 68 65 59 53 49 49 43 40 43 43 43 42 42 41 41 43 44 46 48 49 50 51 52 55 57 59 59 58
82 86 86 88 75 77 83 79 77 80 78 77 78 77 73 72 70 69 66 62 57 50 45 44 45 49 48 45 46 45 47 49 50 51 52 54 55 56 57 59 60 61 61 62
87 83 83 84 70 80 74 71 75 78 75 75 74 75 74 73 72 69 68 66 63 61 55 50 50 50 52 51 52 52 53 53 53 53 53 54 55 56 58 60 62 65 67 66
77 78 84 81 78 69 66 65 66 72 76 72 70 69 67 66 66 64 62 63 62 59 60 59 57 55 53 53 53 51 51 52 53 54 54 55 57 60 64 66 68 71 71 71
62 71 80 82 81 74 76 66 64 63 78 73 66 61 58 58 62 62 60 59 59 57 56 58 58 58 58 57 58 58 57 57 56 55 57 59 61 66 67 69 71 73 74 75
71 68 74 80 87 76 71 68 66 69 77 73 69 64 59 60 59 59 60 58 58 54 55 61 65 66 67 67 65 64 63 62 61 62 64 66 69 70 69 70 69 71 72 72
69 76 78 77 79 84 78 76 73 75 75 77 76 69 64 61 61 62 63 60 57 54 54 63 68 71 73 75 76 73 71 71 70 71 72 72 73 73 74 76 77 79 78 78
75 77 83 79 82 69 72 77 79 75 69 72 72 70 67 67 65 65 65 65 64 62 62 61 67 74 77 79 79 78 77 76 75 75 77 79 77 79 80 80 81 80 80 81
80 78 79 79 81 81 77 71 73 77 78 81 80 76 74 75 77 76 71 72 73 73 72 70 69 71 72 72 74 75 77 77 77 80 80 79 78 80 81 81 82 83 84 84
77 80 82 83 82 86 83 84 80 75 76 77 81 84 84 84 84 81 78 78 79 78 76 75 76 78 79 78 79 79 79 80 81 80 78 81 83 83 85 85 86 87 88 88
68 79 88 91 88 90 89 84 83 84 85 84 86 89 87 88 87 84 80 78 76 75 76 79 81 81 80 81 82 82 82 81 78 80 83 86 87 88 87 84 85 88 89 92

GFSCGP_prec_cthk_102.txt.gz
RH
66 74 77 85 94 98 96 88 82 76 75 85 87 80 91 93 92 93 85 82 77 69 69 63 66 73 79 78 75 72 73 78 77 76 78 71 73 76 77 72 73 74 70 69
71 78 75 73 96 96 95 82 90 84 75 83 87 85 88 92 94 90 90 91 86 78 72 64 60 60 68 71 75 80 76 75 73 74 84 73 73 75 76 73 68 71 72 72
76 65 68 85 97 96 96 82 81 92 84 91 90 91 90 80 92 95 92 93 85 83 77 70 62 57 58 59 67 74 72 72 72 74 76 83 83 81 80 79 79 79 79 79
75 74 73 80 93 97 95 85 85 93 97 97 94 96 93 83 87 84 85 90 79 81 76 69 60 58 56 55 59 67 67 68 67 68 68 79 74 78 85 82 82 84 83 86
75 84 83 92 87 94 99 94 88 88 89 88 93 78 73 79 80 70 67 78 68 70 70 64 60 55 55 55 54 60 61 62 61 64 68 71 73 75 81 78 80 80 82 81
95 89 95 95 92 92 97 94 90 87 88 90 80 74 68 70 58 53 59 68 67 62 57 57 55 58 54 52 53 53 56 60 58 58 66 68 68 69 71 73 78 83 88 89
92 91 92 90 90 89 98 96 98 99 98 90 85 90 71 62 59 51 53 57 58 62 60 50 48 47 48 48 49 48 52 56 60 58 59 60 60 57 63 71 75 78 80 84
97 94 93 89 84 85 97 97 97 96 93 93 83 84 66 56 54 54 54 56 61 60 54 49 46 43 40 43 45 44 50 51 55 56 58 56 57 55 57 59 66 74 79 79
93 93 90 84 83 85 93 95 96 89 77 88 88 71 56 52 49 47 49 53 52 50 44 49 43 41 38 39 42 45 43 44 50 52 51 51 48 49 50 53 56 59 62 67
83 85 83 91 92 90 95 92 96 91 88 89 78 64 56 50 53 48 46 44 42 42 41 39 38 40 40 37 39 41 42 40 44 48 47 46 48 49 51 53 55 60 63 66
79 74 86 80 80 89 88 88 88 81 80 80 76 61 55 56 50 52 51 47 41 39 39 36 34 39 44 42 44 47 43 40 39 42 46 55 58 51 51 51 55 58 63 71
75 70 80 78 81 80 84 80 84 80 77 76 69 63 54 53 51 49 48 47 46 41 39 39 35 35 40 44 46 46 44 39 40 43 46 48 50 50 52 58 59 63 67 68
73 69 74 75 78 79 82 80 76 77 76 83 75 67 55 55 53 50 50 46 44 48 45 41 40 41 47 48 43 41 44 46 44 44 47 46 48 53 55 59 65 68 72 63
75 78 78 72 70 74 80 75 74 76 80 83 81 71 59 57 54 50 48 47 47 47 54 47 40 43 47 47 46 47 47 45 44 43 43 46 51 55 61 65 68 64 59 58
75 76 80 77 76 72 72 73 77 82 83 89 84 79 72 62 58 57 55 49 44 38 39 42 43 40 44 45 45 44 44 43 42 40 42 46 51 55 57 57 57 57 54 52
79 82 73 74 69 72 73 70 74 81 78 86 91 85 79 74 66 64 59 56 53 47 38 37 43 45 42 39 40 41 40 41 39 40 43 45 47 48 49 50 50 51 52 53
77 82 80 81 71 71 80 80 77 79 83 81 86 81 78 75 70 63 63 64 62 57 55 47 42 44 46 45 45 44 43 43 44 44 45 46 46 48 50 51 53 53 54 56
85 83 83 84 73 81 77 76 81 81 82 81 80 80 79 77 76 73 71 68 64 62 60 58 55 54 51 51 51 48 48 50 51 50 52 52 52 53 53 53 54 54 56 59
80 83 87 87 84 74 74 76 76 78 84 83 81 80 78 75 74 74 75 74 73 69 63 58 56 54 52 56 55 56 58 57 56 55 55 54 54 55 55 56 58 60 63 65
69 75 81 82 85 81 81 71 71 69 84 80 79 74 71 69 70 69 68 67 66 66 68 67 68 64 62 61 60 60 60 59 55 54 56 58 58 58 59 60 60 62 65 67
71 71 73 79 85 79 75 73 73 74 77 79 74 69 67 64 61 63 66 65 62 61 63 65 67 70 74 75 73 68 65 63 62 61 60 60 60 62 63 63 65 68 69 70
68 74 77 78 79 82 77 80 79 78 81 80 77 73 70 67 65 65 65 65 62 61 61 66 68 71 74 74 74 75 75 71 67 66 67 67 68 67 68 70 74 76 74 73
68 71 80 79 79 74 76 75 80 80 77 77 76 74 73 71 69 69 70 69 68 65 62 63 68 73 77 80 81 82 83 78 77 77 77 76 75 77 80 78 76 75 74 73
65 71 74 75 82 83 83 81 76 78 81 84 86 84 78 76 77 78 75 73 72 72 72 70 68 70 74 78 81 82 80 79 81 82 83 84 83 81 79 75 74 76 77 78
64 71 75 80 81 82 84 86 86 84 81 80 83 87 90 91 90 89 83 78 76 76 76 76 77 78 78 78 77 77 78 80 82 82 82 82 82 80 78 78 81 81 80 80
57 65 72 80 81 85 86 88 86 87 87 89 89 87 90 90 89 87 84 79 77 75 74 74 76 77 77 79 81 83 84 84 84 83 80 79 79 80 85 86 88 87 85 84

GFSCGP_prec_cthk_105.txt.gz
RH
74 69 77 73 94 95 98 93 87 85 79 87 89 82 92 95 96 96 92 81 79 77 79 82 88 86 90 93 96 83 89 76 76 75 73 67 63 64 64 72 62 64 63 63
82 72 71 72 93 94 98 96 93 82 82 89 91 85 87 95 92 97 94 81 81 76 70 74 83 88 84 87 92 90 86 85 92 93 88 81 81 76 77 76 81 76 76 71
77 64 63 78 98 96 98 90 95 86 91 93 86 90 92 96 95 90 95 84 79 75 69 65 70 79 91 87 87 87 83 83 85 80 88 86 86 85 81 78 76 77 81 75
75 67 73 87 95 93 96 88 88 87 87 95 96 96 94 92 87 83 90 88 77 71 68 63 64 66 78 86 90 92 88 86 84 89 84 85 88 87 76 80 84 83 83 81
69 75 82 90 88 96 95 86 84 89 95 95 97 89 86 92 91 88 86 85 79 72 69 65 64 63 67 68 76 84 83 82 80 83 79 86 83 84 87 90 84 82 79 81
79 80 91 93 93 98 96 90 83 90 94 94 90 85 81 84 72 80 73 81 86 82 74 70 68 68 69 65 63 65 71 78 82 78 73 78 72 79 80 80 78 77 82 91
94 95 96 96 97 97 99 89 93 98 97 92 84 83 64 66 62 65 61 69 80 83 81 73 68 68 68 67 65 63 65 65 67 71 70 71 71 71 72 70 73 71 72 75
97 97 92 93 96 95 99 97 89 90 85 86 85 78 65 60 59 59 54 59 64 69 71 69 67 66 64 65 62 62 62 64 64 68 68 67 64 65 62 63 65 67 63 64
90 85 85 86 84 86 98 94 90 78 77 81 82 69 60 59 60 59 55 54 57 59 63 61 57 59 59 60 64 64 60 59 61 65 68 68 63 60 59 59 57 54 55 53
82 82 74 73 81 83 97 97 94 84 82 86 81 67 60 61 59 57 58 58 55 56 60 59 57 52 53 50 52 56 53 53 57 59 58 60 62 60 58 53 51 51 50 51
76 73 71 74 77 83 86 93 95 87 81 80 81 68 61 61 57 57 57 55 56 58 62 59 57 54 56 48 48 48 50 51 51 52 52 57 58 62 56 51 49 49 48 48
74 73 78 76 77 82 78 80 87 84 84 80 74 73 60 55 55 57 57 55 53 49 47 50 51 55 52 48 50 49 49 46 47 51 54 52 59 56 52 52 52 51 52 53
71 72 76 73 71 79 81 78 77 79 77 78 72 68 57 56 54 52 52 52 51 50 50 46 46 45 43 45 47 49 47 47 45 41 43 51 55 52 51 52 53 55 58 56
74 73 75 79 74 78 83 76 74 75 78 83 80 70 61 56 54 52 49 49 49 51 49 48 47 50 47 46 46 48 50 45 43 47 45 43 45 48 51 54 57 55 57 58
78 82 79 74 76 76 76 74 72 77 81 80 81 72 65 61 59 55 52 50 46 46 48 48 53 53 55 57 54 53 52 48 47 45 44 45 46 47 50 53 54 55 56 56
76 82 78 76 71 74 77 73 74 80 82 82 80 79 70 70 69 61 57 56 51 46 45 46 44 42 45 52 55 53 51 50 49 48 46 44 44 47 46 53 56 52 51 49
76 81 82 77 70 70 72 71 75 78 78 80 83 80 75 77 77 73 68 65 60 57 54 46 45 49 47 47 47 47 47 47 46 45 45 44 45 44 47 48 47 48 47 48
81 79 79 81 72 81 75 77 78 79 79 79 76 76 77 76 75 75 72 65 62 60 58 54 51 47 47 50 51 50 48 45 45 47 45 44 44 46 46 47 50 52 51 50
78 84 84 84 83 75 79 81 91 88 87 83 81 80 74 74 76 72 68 65 62 63 62 60 59 61 57 52 54 54 52 54 50 50 51 50 51 51 51 53 54 52 52 53
71 75 78 83 84 84 83 75 76 78 88 85 82 78 75 71 70 68 68 70 69 68 67 66 64 65 65 63 63 62 59 59 59 58 55 55 56 55 54 54 55 56 56 56
68 70 70 74 81 78 75 78 79 79 78 81 78 76 76 72 69 67 66 65 65 63 64 66 71 72 72 72 70 67 65 63 65 64 61 60 58 56 57 58 59 59 58 61
63 69 72 73 75 77 76 79 78 80 85 86 81 77 73 69 67 67 65 63 62 61 63 64 69 76 78 80 80 80 79 76 75 71 66 64 63 63 64 64 64 65 66 67
61 63 71 71 72 74 77 75 78 81 77 79 78 76 77 75 73 71 71 69 67 67 64 66 70 75 80 82 83 85 86 85 83 80 78 76 74 74 72 72 73 74 71 71
56 59 64 70 73 74 74 75 77 76 77 80 80 82 86 84 81 81 79 75 73 71 70 69 70 72 75 81 85 88 88 89 89 84 82 82 80 78 80 82 80 77 72 69
53 57 64 69 70 71 75 77 77 79 82 83 82 82 87 90 92 92 91 84 78 75 74 73 74 75 75 75 76 79 81 82 83 83 83 84 84 84 83 81 77 75 71 71
43 49 56 60 64 69 73 75 78 78 81 83 87 89 90 91 92 93 89 88 86 82 78 76 75 75 75 77 79 80 82 82 83 83 82 82 82 81 80 77 77 76 81 82

GFSCGP_prec_cthk_108.txt.gz
RH
70 78 74 74 78 94 90 96 98 82 77 75 77 81 83 93 97 97 97 87 82 76 80 83 85 95 97 95 91 78 76 72 76 68 68 72 66 57 54 56 59 63 63 60
72 77 68 70 74 94 96 97 92 74 90 88 87 86 93 95 94 97 97 89 88 85 83 86 87 92 92 94 98 95 95 80 76 74 84 77 67 62 66 67 66 66 69 64
80 68 64 72 88 96 92 98 93 84 93 95 92 97 95 96 96 94 87 90 87 85 89 88 88 92 89 87 91 91 95 94 84 90 87 76 76 74 75 74 73 77 80 81
75 69 77 83 97 97 95 94 96 91 89 98 96 98 98 95 93 89 94 94 89 86 83 87 86 87 86 85 88 89 85 94 90 91 92 93 95 88 88 88 84 83 85 84
67 76 88 93 95 97 98 91 96 95 93 97 97 88 93 88 88 89 92 93 87 83 83 83 81 82 84 84 85 90 87 90 99 98 93 84 83 86 92 89 85 83 85 79
82 84 88 96 94 96 91 90 90 92 92 96 96 79 83 94 88 85 82 92 90 85 81 77 73 70 73 79 81 84 92 91 90 93 97 98 95 92 96 90 86 80 75 80
94 96 98 98 98 95 86 85 92 90 93 94 86 78 72 79 72 75 72 87 84 85 80 75 71 67 65 69 72 85 93 93 94 93 95 97 95 95 92 92 88 84 84 82
97 93 95 93 96 98 89 76 88 89 90 86 81 82 75 70 70 65 69 73 91 86 83 73 68 70 69 67 63 69 76 81 84 86 88 82 86 86 82 81 76 71 69 68
88 91 88 82 87 97 93 80 88 86 80 81 84 71 65 65 66 61 63 66 81 84 83 75 70 71 67 64 68 67 68 70 71 74 72 73 71 71 71 68 65 64 65 62
78 85 76 79 82 97 95 93 89 80 77 82 79 68 68 65 63 61 62 65 70 80 81 73 72 73 69 69 72 69 66 66 67 69 69 66 66 66 66 65 66 63 60 58
70 68 72 71 81 87 93 88 84 78 77 79 81 78 68 66 60 59 61 67 66 69 73 76 76 75 70 67 71 71 68 67 66 67 65 62 61 62 62 64 65 61 60 56
66 67 83 80 81 88 88 88 89 81 82 80 78 81 69 66 61 58 62 67 66 63 61 68 72 69 63 58 59 63 60 61 61 61 62 58 55 59 58 63 67 63 58 53
73 69 67 65 72 77 84 83 88 82 81 84 79 81 68 67 68 64 66 64 63 63 62 60 63 63 59 57 56 59 57 57 59 57 56 56 54 56 62 64 63 60 57 50
64 73 75 74 78 81 82 79 82 76 73 80 76 70 69 64 63 61 61 61 59 56 55 55 53 52 56 58 56 59 58 56 56 57 55 51 54 58 60 61 58 57 52 53
72 77 74 77 75 79 78 77 75 75 74 69 70 67 65 63 62 59 54 50 49 50 50 48 52 50 51 54 54 57 58 57 53 51 48 48 48 51 50 51 53 50 49 49
73 78 77 75 73 75 75 75 78 78 74 71 70 69 64 62 60 58 56 53 49 47 45 44 48 55 54 57 58 57 54 54 61 56 53 51 53 49 48 52 49 46 47 51
74 75 76 73 70 74 75 70 74 76 74 77 74 74 71 69 65 63 60 56 52 50 48 45 47 49 54 53 57 59 62 61 61 57 53 52 52 48 45 45 45 46 48 52
77 75 74 75 66 79 68 74 74 79 81 80 79 81 79 75 74 74 71 68 63 58 57 52 47 45 46 50 50 51 53 55 59 53 48 48 46 44 44 47 47 47 48 46
74 78 77 76 78 71 79 81 91 85 85 84 84 81 80 79 78 77 76 74 71 67 64 63 61 59 55 51 48 48 49 48 45 46 46 46 48 50 50 49 48 48 49 51
66 70 73 77 77 80 79 74 77 85 93 88 84 80 78 76 75 75 74 74 75 74 69 64 67 67 66 62 58 53 52 55 56 56 57 58 60 58 56 59 63 56 53 55
58 61 64 70 76 72 72 74 76 77 76 83 81 79 78 77 76 75 72 72 70 71 73 72 67 70 74 75 71 70 67 63 62 64 65 63 61 61 62 61 60 56 57 57
52 58 63 68 72 73 69 70 72 78 83 84 80 77 76 75 74 73 73 73 72 70 70 70 69 77 83 84 81 80 78 74 74 72 73 69 70 70 68 66 62 59 61 59
50 50 57 59 62 68 72 73 72 74 74 75 76 76 76 76 76 75 75 75 75 72 70 69 71 74 79 85 87 88 88 88 87 86 85 84 81 80 79 76 72 68 67 69
48 50 50 56 60 62 65 68 71 73 73 71 74 76 76 77 79 84 83 80 76 74 74 73 75 73 75 78 82 90 92 93 95 95 94 92 89 86 83 80 77 79 80 77
46 48 50 53 55 56 59 63 66 69 72 73 75 75 75 78 82 84 84 86 83 79 77 77 76 73 75 76 78 83 87 90 94 95 94 94 90 89 88 87 87 86 83 78
38 41 47 49 48 52 56 60 63 65 67 68 71 73 76 80 83 86 87 84 83 83 83 80 76 75 77 78 79 81 84 86 88 89 90 90 89 88 87 85 83 80 77 74

GFSCGP_prec_cthk_111.txt.gz
RH
81 80 73 73 73 80 82 85 91 74 75 86 81 64 74 73 85 86 94 88 84 84 83 84 90 94 94 88 82 74 71 74 71 66 61 58 52 45 46 46 45 47 49 51
80 72 64 64 72 81 88 95 88 72 78 91 78 82 73 81 80 89 93 88 83 80 79 80 87 89 94 84 82 77 71 73 75 71 70 65 57 51 52 49 51 54 54 54
76 60 61 75 81 94 94 97 95 93 93 90 81 96 94 82 86 93 93 87 84 81 75 79 84 81 88 91 82 79 77 81 82 81 76 67 67 66 60 58 59 60 62 64
64 60 78 89 97 96 98 94 91 87 98 98 93 88 97 91 88 88 84 87 91 85 72 78 83 87 90 91 95 98 97 89 83 87 81 72 70 71 67 64 61 65 69 75
67 71 85 88 94 97 98 98 91 90 98 98 93 87 96 92 86 91 87 90 95 87 72 79 82 84 85 90 91 98 98 91 97 90 92 84 85 85 76 79 80 82 84 85
84 84 94 96 98 97 91 98 92 87 94 97 98 81 90 91 91 92 89 96 97 83 76 80 80 79 81 85 91 93 95 93 89 91 95 93 94 92 85 87 85 83 85 87
94 96 93 94 92 92 91 85 91 91 94 96 95 77 78 81 86 81 90 96 94 81 82 76 79 79 81 87 93 94 95 96 97 94 90 94 94 97 94 91 86 86 87 91
86 88 93 93 94 84 86 87 91 86 91 95 84 91 79 72 69 78 85 91 87 91 82 77 79 81 86 88 92 93 92 93 90 91 90 99 98 95 97 97 91 96 94 93
85 82 80 96 97 87 84 93 96 88 83 80 88 77 70 74 75 75 79 88 94 88 77 75 76 75 79 79 80 82 84 86 85 87 91 96 92 92 96 93 94 89 87 83
75 73 73 90 91 89 85 94 94 86 82 87 82 80 83 75 74 70 69 77 95 87 79 77 75 74 69 70 74 73 75 75 76 78 83 87 89 89 87 87 88 84 78 71
73 70 73 80 94 96 96 96 90 85 80 80 80 91 80 74 71 71 72 75 89 89 84 79 74 70 70 69 71 73 72 71 69 69 72 75 78 78 79 79 79 76 70 68
71 71 78 77 86 93 91 94 91 84 83 79 78 89 78 74 70 69 71 73 79 88 89 84 77 72 69 71 74 75 75 72 69 68 67 65 68 71 73 74 74 71 67 63
69 69 69 64 68 77 86 87 87 81 78 86 83 88 79 77 69 70 71 68 72 77 78 79 83 81 77 73 73 73 75 75 73 71 69 68 69 68 69 72 74 70 67 62
72 75 72 78 78 78 79 80 79 73 77 80 81 78 77 76 72 66 65 65 65 71 70 73 74 74 76 75 72 72 68 63 61 63 62 62 61 65 66 68 68 64 63 60
70 76 82 79 80 75 76 73 72 73 75 75 75 77 75 70 68 66 65 61 60 60 58 62 64 62 64 68 67 66 64 63 61 58 59 56 54 58 62 63 63 62 61 60
67 74 76 76 77 74 71 72 72 74 72 71 70 67 65 64 64 61 59 56 58 57 56 55 58 62 61 60 61 62 64 67 66 63 59 52 49 47 48 47 49 56 56 50
68 67 67 70 69 71 71 71 71 72 74 73 76 72 67 62 62 62 59 58 55 51 50 51 52 56 64 66 64 63 63 64 65 63 59 55 53 50 52 50 49 49 51 51
70 68 68 70 60 72 68 76 75 78 77 72 73 71 71 72 70 63 60 57 53 49 47 47 46 47 50 57 62 63 64 66 70 67 64 61 58 55 57 55 50 48 49 50
69 69 70 70 72 68 72 77 82 80 83 78 74 69 69 68 66 67 68 64 57 54 52 49 45 45 43 44 48 49 51 55 60 64 65 65 62 58 54 51 50 50 49 49
60 61 65 71 73 76 73 70 78 80 90 81 74 71 71 66 66 67 66 62 58 60 61 61 57 56 57 55 53 49 48 49 50 51 50 49 49 49 51 52 52 52 53 56
55 56 58 64 70 67 66 69 71 70 76 83 80 78 74 70 68 67 65 64 62 59 61 65 65 63 65 69 69 66 63 59 56 55 58 59 59 57 55 57 57 58 61 65
51 55 57 60 63 66 62 63 64 69 75 77 74 72 71 70 69 68 71 71 68 67 66 66 67 69 71 71 75 75 76 75 71 69 64 65 68 68 68 66 67 68 70 69
50 47 52 51 51 55 60 62 64 66 66 67 69 71 71 72 72 72 73 72 71 70 70 69 70 73 76 77 81 84 84 85 86 83 80 78 76 76 78 76 74 72 72 75
46 47 48 52 54 56 56 57 60 63 64 66 67 66 67 70 73 73 74 76 76 73 72 73 75 74 74 79 80 81 87 92 93 92 92 92 90 90 88 86 86 87 89 90
42 45 46 49 51 52 52 52 55 58 60 61 64 67 70 73 75 75 79 81 81 80 78 75 74 76 77 79 79 82 85 89 96 98 99 98 97 96 98 97 96 95 94 92
34 38 42 43 43 46 48 52 53 55 55 57 60 62 67 69 75 79 84 86 86 87 85 85 86 84 82 81 81 81 81 83 88 92 93 96 96 99 95 98 99 97 98 98

GFSCGP_prec_cthk_114.txt.gz
RH
72 77 69 62 64 69 75 79 74 65 72 77 83 75 67 68 67 62 68 73 71 78 79 80 88 89 99 95 91 90 77 67 65 59 55 50 46 44 44 45 47 48 48 48
72 66 56 60 62 72 83 86 80 78 74 69 77 75 63 67 68 62 67 74 75 74 76 80 90 96 93 97 94 84 84 71 65 63 58 59 53 50 49 50 50 52 51 53
70 59 60 69 75 86 88 94 89 86 85 75 76 78 65 74 63 56 63 74 83 74 74 78 85 95 90 96 98 95 90 78 67 60 61 67 61 59 50 52 52 52 52 54
58 58 68 75 89 95 96 95 96 94 98 91 73 91 80 76 72 61 69 71 77 79 73 78 79 94 96 95 99 98 98 89 75 74 71 71 69 57 51 53 53 54 58 61
68 70 83 89 89 98 95 98 96 98 97 97 78 92 98 89 77 67 71 72 80 75 69 73 75 92 92 97 96 99 96 90 85 80 84 76 78 68 59 58 58 64 66 71
73 75 83 86 88 95 97 98 98 99 99 97 87 86 98 96 81 73 72 73 79 73 71 74 78 86 92 98 88 95 98 97 96 91 87 85 87 80 72 64 66 71 76 78
78 89 87 84 88 84 92 88 88 95 95 96 96 76 90 83 83 81 76 78 82 77 78 72 72 82 91 97 90 89 90 92 94 99 93 90 92 93 87 88 82 82 84 85
82 83 88 83 83 83 94 95 91 93 94 96 89 92 90 79 74 76 83 85 91 84 76 74 78 81 92 92 93 91 88 92 93 89 96 98 97 95 98 95 91 95 91 91
77 88 91 81 80 88 89 92 94 90 79 84 95 86 79 78 75 75 86 96 99 88 81 86 80 82 87 92 88 90 89 93 95 94 93 94 90 91 98 96 93 93 98 95
76 85 79 78 87 90 94 94 90 81 83 92 92 93 93 79 79 82 95 96 97 95 84 79 78 80 87 89 90 89 94 94 96 95 98 91 82 86 90 95 92 96 93 90
73 75 84 81 92 98 93 91 86 78 78 80 84 96 86 86 83 80 92 96 97 95 87 78 76 82 86 89 87 84 87 90 93 93 90 88 84 83 83 90 94 88 88 89
70 73 87 93 87 88 88 89 84 83 81 79 77 94 80 81 76 84 84 94 96 94 90 84 78 76 79 82 81 84 86 83 81 78 78 81 84 85 89 87 90 89 88 86
71 70 78 78 86 78 83 83 83 79 80 86 74 90 78 75 73 79 82 87 95 94 89 83 78 76 74 81 82 81 81 81 80 79 75 77 80 81 84 84 85 85 88 83
68 76 83 82 86 85 86 77 74 73 75 76 78 77 75 70 70 71 74 77 80 85 86 87 83 81 78 74 79 80 80 83 82 80 79 76 74 75 78 82 83 84 84 82
69 79 80 78 76 81 76 75 70 76 68 72 72 73 71 69 69 68 66 67 68 70 80 78 83 82 84 82 82 78 82 82 78 79 78 77 73 71 75 80 81 80 81 80
66 74 73 76 71 70 70 71 69 67 65 66 67 69 67 67 68 68 66 62 60 62 63 68 72 72 74 77 75 77 79 83 82 78 76 71 66 63 66 69 72 77 78 74
65 64 65 71 66 64 65 69 71 69 66 62 62 63 62 59 60 61 60 59 58 56 55 56 58 62 67 67 62 65 69 74 75 76 78 76 71 66 62 62 63 59 58 58
64 63 60 57 55 65 71 73 72 67 68 65 62 61 59 60 58 56 55 54 55 55 53 49 47 49 51 58 64 63 61 64 69 72 71 75 73 70 65 62 62 60 58 55
63 62 58 56 56 62 66 70 75 73 72 66 63 63 60 58 56 55 52 51 50 49 49 47 46 45 44 46 54 59 63 68 66 65 69 75 76 76 74 66 63 63 61 56
54 54 55 58 59 61 57 64 69 69 74 68 63 61 59 57 54 58 58 55 52 51 53 51 48 47 47 49 47 45 47 51 56 59 64 68 69 70 71 68 65 62 62 59
45 45 49 50 52 53 55 58 58 57 67 69 67 66 64 62 63 61 60 58 58 56 54 54 56 53 54 56 57 56 56 54 55 55 57 59 60 60 61 62 61 60 60 61
42 43 44 47 50 53 52 56 56 58 68 68 67 66 67 69 69 66 66 63 61 58 58 59 58 60 64 65 64 65 67 67 67 65 64 65 64 65 68 70 72 73 74 71
40 39 42 42 42 48 50 52 54 56 58 61 62 62 62 64 66 68 69 70 67 64 61 62 63 65 69 73 76 76 75 75 77 79 79 82 81 79 77 77 76 77 80 79
38 39 41 46 47 51 51 52 52 51 52 52 53 54 54 56 56 55 55 59 62 64 65 69 70 71 69 72 75 78 82 84 86 88 88 89 90 91 90 88 88 86 86 85
33 37 38 41 45 49 49 49 50 49 49 49 49 50 51 53 54 55 59 63 66 68 68 68 68 68 71 74 77 79 84 85 88 88 88 92 93 93 95 96 96 98 98 97
28 30 32 33 34 39 41 43 44 47 48 47 48 48 49 51 52 54 57 58 62 64 68 71 72 74 77 77 77 77 79 81 84 85 87 92 99 98 99 98 99 99 96 98

GFSCGP_prec_cthk_117.txt.gz
RH
62 65 63 65 63 67 68 69 67 56 62 69 68 77 77 63 64 57 53 59 60 65 67 78 76 74 66 85 89 99 97 96 78 70 59 52 45 39 35 35 35 33 37 40
60 66 60 58 58 61 65 71 69 61 62 65 65 66 69 69 71 71 66 60 62 65 70 73 75 77 66 78 87 99 92 90 82 69 61 62 51 42 36 34 34 31 37 41
62 54 56 59 64 68 75 84 82 83 81 85 76 63 57 57 67 76 74 61 63 65 69 68 74 72 72 78 83 90 97 95 85 79 72 65 60 51 44 40 39 38 43 47
60 59 58 64 76 84 94 85 95 90 96 83 70 79 58 55 61 69 70 57 58 69 69 67 70 69 72 73 75 94 92 98 88 86 78 72 61 54 46 41 40 43 51 55
59 63 70 77 81 95 89 94 97 96 95 98 87 97 77 69 73 66 62 61 64 79 74 71 71 67 79 74 80 91 98 97 89 82 79 75 70 59 50 46 45 51 56 56
74 77 77 79 81 93 96 98 98 96 93 92 83 93 99 97 89 75 76 78 78 69 75 73 67 67 79 79 79 98 98 99 95 87 79 78 64 61 56 52 56 59 59 56
75 86 80 80 86 85 91 95 97 97 96 87 96 95 98 96 89 95 89 80 80 80 80 69 68 70 78 80 84 97 98 98 97 86 92 88 81 72 68 61 59 60 59 61
90 94 87 83 85 89 92 95 98 96 95 86 75 92 98 93 89 91 87 90 84 74 70 66 69 73 76 82 87 90 91 99 98 96 97 96 86 87 83 79 80 68 70 76
90 85 75 89 84 88 84 87 94 97 95 86 96 98 95 91 93 93 93 93 82 74 71 67 70 74 74 83 90 92 94 97 94 96 93 93 94 88 87 95 90 87 81 85
89 85 74 84 92 93 88 83 85 92 95 94 94 94 97 96 96 94 96 95 84 77 74 74 79 81 81 84 85 91 94 91 88 91 91 96 94 93 91 92 93 94 89 92
82 87 94 91 95 98 91 81 77 84 78 95 90 96 98 93 94 97 97 96 87 82 76 78 79 83 83 85 88 90 95 98 98 97 96 95 90 87 83 85 90 98 94 91
74 89 94 84 84 86 84 82 82 94 82 85 81 97 90 90 93 96 98 98 97 92 85 81 83 88 86 83 82 83 93 95 98 95 95 93 92 89 83 84 92 88 91 93
72 81 96 79 80 82 83 77 77 77 81 80 79 95 82 78 84 94 97 98 97 99 88 84 90 93 90 86 85 89 90 91 90 92 91 89 88 88 84 84 86 92 84 88
75 81 91 86 87 90 91 74 75 84 82 85 87 84 75 73 80 84 88 93 95 96 96 88 84 88 94 92 94 94 85 84 88 89 91 89 90 89 89 90 93 91 91 95
73 80 80 75 72 73 80 75 72 73 74 81 80 78 79 75 73 76 72 78 84 84 92 93 92 87 86 94 95 93 90 88 88 87 86 81 82 80 81 87 88 91 93 93
67 74 73 70 67 66 73 73 71 67 71 74 76 76 77 74 71 62 64 65 65 70 75 86 90 90 90 86 84 89 93 91 89 86 81 80 79 79 77 72 76 85 87 86
65 65 67 69 63 61 66 71 68 66 66 67 71 70 66 67 66 65 61 56 57 56 62 66 72 78 79 80 81 80 83 90 89 88 87 85 83 81 78 75 79 82 80 79
62 63 61 57 55 62 66 70 68 65 64 62 60 62 61 59 56 58 60 58 55 54 54 54 58 61 70 74 73 74 73 78 84 89 91 93 91 88 83 79 75 72 72 72
62 61 60 62 59 63 67 70 74 74 67 59 56 56 55 55 57 55 53 52 52 50 51 51 49 49 48 51 64 71 73 73 72 72 74 81 83 79 79 79 76 73 71 65
51 53 59 57 62 62 56 61 62 64 73 61 59 55 52 50 53 55 54 52 51 52 52 51 51 53 53 53 53 54 58 67 77 79 77 75 74 78 81 83 83 81 76 71
40 40 49 49 51 54 55 60 62 69 71 62 59 57 55 53 54 55 55 54 52 49 51 54 52 56 58 61 64 65 62 57 56 56 59 65 69 72 72 75 76 74 70 67
37 38 39 40 43 52 52 54 57 57 60 58 57 55 53 52 53 54 53 52 51 49 48 51 52 54 59 62 67 70 70 71 68 67 65 62 61 60 62 62 64 63 63 64
34 35 37 38 40 42 45 48 49 51 54 53 52 50 49 49 50 50 50 49 50 52 51 54 55 55 54 56 60 65 69 76 81 80 78 79 80 78 77 75 75 74 74 74
30 31 33 36 38 41 44 45 45 45 43 43 43 43 44 44 45 45 44 44 44 46 48 51 54 56 58 61 63 65 71 72 77 82 86 87 85 89 91 93 93 92 90 88
29 29 30 33 36 38 39 40 39 40 40 41 41 42 42 41 42 42 44 45 46 48 48 50 51 54 56 59 62 65 69 72 76 78 85 92 93 94 96 96 97 97 95 95
23 24 26 26 25 29 32 34 37 38 37 38 40 41 40 40 42 43 44 43 43 45 47 48 50 53 56 58 62 67 69 73 78 78 80 84 92 97 94 97 98 98 98 98